[[{"header":{"parameterUnit":"m.s-1","parameterCategory":1,"la1":30.6,"la2":28.766,"lo1":-90.7593,"lo2":-88.6598,"dy":0.0162,"dx":0.0183,"nx":116,"ny":114,"refTime":"2023-05-03T18:00:00:Z","depth":0,"parameterNumber":2,"parameterNumberName":"U-component_of_WINDS"},"data":[0.0,0.0,0.0,0.0,0.0,0.0,0.0,0.0,0.0,0.0,0.0,0.0,0.0,0.0,0.0,0.0,0.0,0.0,0.0,0.0,0.0,0.0,0.0,0.0,0.0,0.0,0.0,0.0,0.0,0.0,0.0,0.0,0.0,0.0,0.0,0.0,0.0,0.0,0.0,0.0,0.0,0.0,0.0,0.0,0.0,0.0,0.0,0.0,0.0,0.0,0.0,0.0,0.0,0.0,0.0,0.0,0.0,0.0,0.0,0.0,0.0,0.0,0.0,0.0,0.0,0.0,0.0,0.0,0.0,0.0,0.0,0.0,0.0,0.0,0.0,0.0,0.0,0.0,0.0,0.0,0.0,0.0,0.0,0.0,0.0,0.0,0.0,0.0,0.0,0.0,0.0,0.0,0.0,0.0,0.0,0.0,0.0,0.0,0.0,0.0,0.0,0.0,0.0,0.0,0.0,0.0,0.0,0.0,0.0,0.0,0.0,0.0,0.0,0.0,0.0,0.0,0.0,0.0,0.0,0.0,0.0,0.0,0.0,0.0,0.0,0.0,0.0,0.0,0.0,0.0,0.0,0.0,0.0,0.0,0.0,0.0,0.0,0.0,0.0,0.0,0.0,0.0,0.0,0.0,0.0,0.0,0.0,0.0,0.0,0.0,0.0,0.0,0.0,0.0,0.0,0.0,0.0,0.0,0.0,0.0,0.0,0.0,0.0,0.0,0.0,0.0,0.0,0.0,0.0,0.0,0.0,0.0,0.0,0.0,0.0,0.0,0.0,0.0,0.0,0.0,0.0,0.0,0.0,0.0,0.0,0.0,0.0,0.0,0.0,0.0,0.0,0.0,0.0,0.0,0.0,0.0,0.0,0.0,0.0,0.0,0.0,0.0,0.0,0.0,0.0,0.0,0.0,0.0,0.0,0.0,0.0,0.0,0.0,0.0,0.0,0.0,0.0,0.0,0.0,0.0,0.0,0.0,0.0,0.0,0.0,0.0,0.0,0.0,0.0,0.0,0.0,0.0,0.0,0.0,0.0,0.0,0.0,0.0,0.0,0.0,0.0,0.0,0.0,0.0,0.0,0.0,0.0,0.0,0.0,0.0,0.0,0.0,0.0,0.0,0.0,0.0,0.0,0.0,0.0,0.0,0.0,0.0,0.0,0.0,0.0,0.0,0.0,0.0,0.0,0.0,0.0,0.0,0.0,0.0,0.0,0.0,0.0,0.0,0.0,0.0,0.0,0.0,0.0,0.0,0.0,0.0,0.0,0.0,0.0,0.0,0.0,0.0,0.0,0.0,0.0,0.0,0.0,0.0,0.0,0.0,0.0,0.0,0.0,0.0,0.0,0.0,0.0,0.0,0.0,0.0,0.0,0.0,0.0,0.0,0.0,0.0,0.0,0.0,0.0,0.0,0.0,0.0,0.0,0.0,0.0,0.0,0.0,0.0,0.0,0.0,0.0,0.0,0.0,0.0,0.0,0.0,0.0,0.0,0.0,0.0,0.0,0.0,0.0,0.0,0.0,0.0,0.0,0.0,0.0,0.0,0.0,0.0,0.0,0.0,0.0,0.0,0.0,0.0,0.0,0.0,0.0,0.0,0.0,0.0,0.0,0.0,0.0,0.0,0.0,0.0,0.0,0.0,0.0,0.0,0.0,0.0,0.0,0.0,0.0,0.0,0.0,0.0,0.0,0.0,0.0,0.0,0.0,0.0,0.0,0.0,0.0,0.0,0.0,0.0,0.0,0.0,0.0,0.0,0.0,0.0,0.0,0.0,0.0,0.0,0.0,0.0,0.0,0.0,0.0,0.0,0.0,0.0,0.0,0.0,0.0,0.0,0.0,0.0,0.0,0.0,0.0,0.0,0.0,0.0,0.0,0.0,0.0,0.0,0.0,0.0,0.0,0.0,0.0,0.0,0.0,0.0,0.0,0.0,0.0,0.0,0.0,0.0,0.0,0.0,0.0,0.0,0.0,0.0,0.0,0.0,0.0,0.0,0.0,0.0,0.0,0.0,0.0,0.0,0.0,0.0,0.0,0.0,0.0,0.0,0.0,0.0,0.0,0.0,0.0,0.0,0.0,0.0,0.0,0.0,0.0,0.0,0.0,0.0,0.0,0.0,0.0,0.0,0.0,0.0,0.0,0.0,0.0,0.0,0.0,0.0,0.0,0.0,0.0,0.0,0.0,0.0,0.0,0.0,0.0,0.0,0.0,0.0,0.0,0.0,0.0,0.0,0.0,0.0,0.0,0.0,0.0,0.0,0.0,0.0,0.0,0.0,0.0,0.0,0.0,0.0,0.0,0.0,0.0,0.0,0.0,0.0,0.0,0.0,0.0,0.0,0.0,0.0,0.0,0.0,0.0,0.0,0.0,0.0,0.0,0.0,0.0,0.0,0.0,0.0,0.0,0.0,0.0,0.0,0.0,0.0,0.0,0.0,0.0,0.0,0.0,0.0,0.0,0.0,0.0,0.0,0.0,0.0,0.0,0.0,0.0,0.0,0.0,0.0,0.0,0.0,0.0,0.0,0.0,0.0,0.0,0.0,0.0,0.0,0.0,0.0,0.0,0.0,0.0,0.0,0.0,0.0,0.0,0.0,0.0,0.0,0.0,0.0,0.0,0.0,0.0,0.0,0.0,0.0,0.0,0.0,0.0,0.0,0.0,0.0,0.0,0.0,0.0,0.0,0.0,0.0,0.0,0.0,0.0,0.0,0.0,0.0,0.0,0.0,0.0,0.0,0.0,0.0,0.0,0.0,0.0,0.0,0.0,0.0,0.0,0.0,0.0,0.0,0.0,0.0,0.0,0.0,0.0,0.0,0.0,0.0,0.0,0.0,0.0,0.0,0.0,0.0,0.0,0.0,0.0,0.0,0.0,0.0,0.0,0.0,0.0,0.0,0.0,0.0,0.0,0.0,0.0,0.0,0.0,0.0,0.0,0.0,0.0,0.0,0.0,0.0,0.0,0.0,0.0,0.0,0.0,0.0,0.0,0.0,0.0,0.0,0.0,0.0,0.0,0.0,0.0,0.0,0.0,0.0,0.0,0.0,0.0,0.0,0.0,0.0,0.0,0.0,0.0,0.0,0.0,0.0,0.0,0.0,0.0,0.0,0.0,0.0,0.0,0.0,0.0,0.0,0.0,0.0,0.0,0.0,0.0,0.0,0.0,0.0,0.0,0.0,0.0,0.0,0.0,0.0,0.0,0.0,0.0,0.0,0.0,0.0,0.0,0.0,0.0,0.0,0.0,0.0,0.0,0.0,0.0,0.0,0.0,0.0,0.0,0.0,0.0,0.0,0.0,0.0,0.0,0.0,0.0,0.0,0.0,0.0,0.0,0.0,0.0,0.0,0.0,0.0,0.0,0.0,0.0,0.0,0.0,0.0,0.0,0.0,0.0,0.0,0.0,0.0,0.0,0.0,0.0,0.0,0.0,0.0,0.0,0.0,0.0,0.0,0.0,0.0,0.0,0.0,0.0,0.0,0.0,0.0,0.0,0.0,0.0,0.0,0.0,0.0,0.0,0.0,0.0,0.0,0.0,0.0,0.0,0.0,0.0,0.0,0.0,0.0,0.0,0.0,0.0,0.0,0.0,0.0,0.0,0.0,0.0,0.0,0.0,0.0,0.0,0.0,0.0,0.0,0.0,0.0,0.0,0.0,0.0,0.0,0.0,0.0,0.0,0.0,0.0,0.0,0.0,0.0,0.0,0.0,0.0,0.0,0.0,0.0,0.0,0.0,0.0,0.0,0.0,0.0,0.0,0.0,0.0,0.0,0.0,0.0,0.0,0.0,0.0,0.0,0.0,0.0,0.0,0.0,0.0,0.0,0.0,0.0,0.0,0.0,0.0,0.0,0.0,0.0,0.0,0.0,0.0,0.0,0.0,0.0,0.0,0.0,0.0,0.0,0.0,0.0,0.0,0.0,0.0,0.0,0.0,0.0,0.0,0.0,0.0,0.0,0.0,0.0,0.0,0.0,0.0,0.0,0.0,0.0,0.0,0.0,0.0,0.0,0.0,0.0,0.0,0.0,0.0,0.0,0.0,0.0,0.0,0.0,0.0,0.0,0.0,0.0,0.0,0.0,0.0,0.0,0.0,0.0,0.0,0.0,0.0,0.0,0.0,0.0,0.0,0.0,0.0,0.0,0.0,0.0,0.0,0.0,0.0,0.0,0.0,0.0,0.0,0.0,0.0,0.0,0.0,0.0,0.0,0.0,0.0,0.0,0.0,0.0,0.0,0.0,0.0,0.0,0.0,0.0,0.0,0.0,0.0,0.0,0.0,0.0,0.0,0.0,0.0,0.0,0.0,0.0,0.0,0.0,0.0,0.0,0.0,0.0,0.0,0.0,0.0,0.0,0.0,0.0,0.0,0.0,0.0,0.0,0.0,0.0,0.0,0.0,0.0,0.0,0.0,0.0,0.0,0.0,0.0,0.0,0.0,0.0,0.0,0.0,0.0,0.0,0.0,0.0,0.0,0.0,0.0,0.0,0.0,0.0,0.0,0.0,0.0,0.0,0.0,0.0,0.0,0.0,0.0,0.0,0.0,0.0,0.0,0.0,0.0,0.0,0.0,0.0,0.0,0.0,0.0,0.0,0.0,0.0,0.0,0.0,0.0,0.0,0.0,0.0,0.0,0.0,0.0,0.0,0.0,0.0,0.0,0.0,0.0,0.0,0.0,0.0,0.0,0.0,0.0,0.0,0.0,0.0,0.0,0.0,0.0,0.0,0.0,0.0,0.0,0.0,0.0,0.0,0.0,0.0,0.0,0.0,0.0,0.0,0.0,0.0,0.0,0.0,0.0,0.0,0.0,0.0,0.0,0.0,0.0,0.0,0.0,0.0,0.0,0.0,0.0,0.0,0.0,0.0,0.0,0.0,0.0,0.0,0.0,0.0,0.0,0.0,0.0,0.0,0.0,0.0,0.0,0.0,0.0,0.0,0.0,0.0,0.0,0.0,0.0,0.0,0.0,0.0,0.0,0.0,0.0,0.0,0.0,0.0,0.0,0.0,0.0,0.0,0.0,0.0,0.0,0.0,0.0,0.0,0.0,0.0,0.0,0.0,0.0,0.0,0.0,0.0,0.0,0.0,0.0,0.0,0.0,0.0,0.0,0.0,0.0,0.0,0.0,0.0,0.0,0.0,0.0,0.0,0.0,0.0,0.0,0.0,0.0,0.0,0.0,0.0,0.0,0.0,0.0,0.0,0.0,0.0,0.0,0.0,0.0,0.0,0.0,0.0,0.0,0.0,0.0,0.0,0.0,0.0,0.0,0.0,0.0,0.0,0.0,0.0,0.0,0.0,0.0,0.0,0.0,0.0,0.0,0.0,0.0,0.0,0.0,0.0,0.0,0.0,0.0,0.0,0.0,0.0,0.0,0.0,0.0,0.0,0.0,0.0,0.0,0.0,0.0,0.0,0.0,0.0,0.0,0.0,0.0,0.0,0.0,0.0,0.0,0.0,0.0,0.0,0.0,0.0,0.0,0.0,0.0,0.0,0.0,0.0,0.0,0.0,0.0,0.0,0.0,0.0,0.0,0.0,0.0,0.0,0.0,0.0,0.0,0.0,0.0,0.0,0.0,0.0,0.0,0.0,0.0,0.0,0.0,0.0,0.0,0.0,0.0,0.0,0.0,0.0,0.0,0.0,0.0,0.0,0.0,0.0,0.0,0.0,0.0,0.0,0.0,0.0,0.0,0.0,0.0,0.0,0.0,0.0,0.0,0.0,0.0,0.0,0.0,0.0,0.0,0.0,0.0,0.0,0.0,0.0,0.0,0.0,0.0,0.0,0.0,0.0,0.0,0.0,0.0,0.0,0.0,0.0,0.0,0.0,0.0,0.0,0.0,0.0,0.0,0.0,0.0,0.0,0.0,0.0,0.0,0.0,0.0,0.0,0.0,0.0,0.0,0.0,0.0,0.0,0.0,0.0,0.0,0.0,0.0,0.0,0.0,0.0,0.0,0.0,0.0,0.0,0.0,0.0,0.0,0.0,0.0,0.0,0.0,0.0,0.0,0.0,0.0,0.0,0.0,0.0,0.0,0.0,0.0,0.0,0.0,0.0,0.0,0.0,0.0,0.0,0.0,0.0,0.0,0.0,-3.0552,0.0,0.0,0.0,0.0,0.0,0.0,0.0,0.0,0.0,0.0,0.0,0.0,0.0,0.0,0.0,0.0,0.0,0.0,0.0,0.0,0.0,0.0,0.0,0.0,0.0,0.0,0.0,0.0,0.0,0.0,0.0,0.0,0.0,0.0,0.0,0.0,0.0,0.0,-2.991,-3.0239,-3.0671,-3.1151,-3.1014,-3.0527,-2.9745,0.0,0.0,0.0,0.0,0.0,0.0,0.0,0.0,0.0,0.0,0.0,0.0,0.0,0.0,0.0,0.0,0.0,0.0,0.0,0.0,0.0,0.0,0.0,0.0,0.0,0.0,0.0,0.0,0.0,0.0,0.0,0.0,0.0,0.0,0.0,0.0,0.0,0.0,0.0,0.0,0.0,0.0,0.0,0.0,0.0,0.0,0.0,0.0,0.0,0.0,0.0,0.0,0.0,0.0,0.0,0.0,0.0,0.0,0.0,0.0,0.0,0.0,0.0,0.0,0.0,0.0,0.0,0.0,0.0,0.0,0.0,-3.0807,0.0,0.0,0.0,0.0,0.0,0.0,0.0,0.0,0.0,0.0,0.0,0.0,0.0,0.0,0.0,0.0,0.0,0.0,0.0,0.0,0.0,0.0,0.0,0.0,-3.049,-3.0514,-2.9841,-2.9415,0.0,0.0,0.0,0.0,0.0,0.0,0.0,-3.0154,-3.0137,-3.0165,-3.1024,-3.1833,-3.2548,-3.2433,-3.1631,-3.0327,-3.0086,0.0,0.0,0.0,0.0,0.0,0.0,0.0,0.0,0.0,0.0,0.0,0.0,0.0,0.0,0.0,0.0,0.0,0.0,0.0,0.0,0.0,0.0,0.0,0.0,0.0,0.0,0.0,0.0,0.0,0.0,0.0,0.0,0.0,0.0,0.0,0.0,0.0,0.0,0.0,0.0,0.0,0.0,0.0,0.0,0.0,0.0,0.0,0.0,0.0,0.0,0.0,0.0,0.0,0.0,0.0,0.0,0.0,0.0,0.0,0.0,0.0,0.0,0.0,0.0,-3.384,-3.3859,-3.3706,-3.3236,-3.2505,-3.164,-3.1071,-3.0742,0.0,0.0,0.0,0.0,0.0,0.0,0.0,0.0,0.0,0.0,0.0,0.0,0.0,0.0,0.0,0.0,0.0,0.0,0.0,0.0,0.0,0.0,-3.053,-3.052,-3.0588,-3.0383,-3.0274,-3.032,0.0,0.0,0.0,0.0,0.0,-3.0207,-3.0192,-3.0519,-3.12,-3.2076,-3.2589,-3.2755,-3.269,-3.2594,-3.2459,-3.2039,-3.1506,-3.0918,0.0,0.0,0.0,0.0,0.0,0.0,0.0,0.0,0.0,0.0,0.0,0.0,0.0,0.0,0.0,0.0,0.0,0.0,0.0,0.0,0.0,0.0,0.0,0.0,0.0,0.0,0.0,0.0,0.0,0.0,0.0,0.0,0.0,0.0,0.0,0.0,0.0,0.0,0.0,0.0,0.0,-3.1579,-3.0884,0.0,0.0,0.0,0.0,0.0,0.0,0.0,0.0,0.0,0.0,0.0,0.0,0.0,0.0,-3.3393,-3.4157,-3.4529,-3.4549,-3.5292,-3.5664,-3.5625,-3.4862,-3.4471,-3.4314,-3.3447,0.0,-3.0781,-3.0699,0.0,0.0,0.0,0.0,0.0,0.0,0.0,0.0,0.0,0.0,0.0,0.0,0.0,0.0,0.0,0.0,0.0,0.0,0.0,0.0,0.0,-3.097,-3.1241,-3.127,-3.1674,-3.1725,-3.1256,-3.1174,0.0,0.0,0.0,-3.0323,-3.026,-3.028,-3.0945,-3.2237,-3.3602,-3.4533,-3.5053,-3.5395,-3.5649,-3.5748,-3.5429,-3.4042,-3.1939,-3.1857,0.0,0.0,0.0,0.0,0.0,0.0,0.0,0.0,0.0,0.0,0.0,0.0,0.0,0.0,0.0,0.0,0.0,0.0,0.0,0.0,0.0,0.0,0.0,0.0,0.0,0.0,0.0,0.0,0.0,0.0,0.0,0.0,0.0,0.0,0.0,0.0,0.0,0.0,0.0,-3.1473,-3.1737,-3.0894,-3.1532,-3.1692,0.0,0.0,0.0,0.0,0.0,0.0,0.0,0.0,0.0,-3.413,-3.4603,-3.5095,-3.5585,-3.6464,-3.6894,-3.6894,-3.7285,-3.7461,-3.7441,-3.707,-3.6366,-3.5405,-3.5034,-3.3878,-3.2225,-3.1736,-3.1811,-3.2217,0.0,0.0,0.0,0.0,0.0,-3.0296,0.0,0.0,0.0,0.0,0.0,0.0,0.0,0.0,0.0,0.0,0.0,0.0,-3.0907,-3.1666,-3.215,-3.2121,-3.2719,-3.2736,-3.1854,-3.1755,-3.1336,-3.0442,-3.039,-3.039,-3.0328,-3.1024,-3.2137,-3.3618,-3.5354,-3.6524,-3.7179,-3.7647,-3.7951,-3.8043,-3.7873,-3.6102,-3.3249,-3.3162,-3.2469,-3.1414,0.0,0.0,0.0,0.0,0.0,0.0,0.0,0.0,0.0,0.0,0.0,0.0,0.0,0.0,0.0,0.0,0.0,0.0,0.0,0.0,0.0,0.0,0.0,0.0,0.0,0.0,0.0,0.0,0.0,0.0,0.0,0.0,0.0,0.0,0.0,0.0,0.0,-3.1692,-3.2087,-3.1224,-3.2056,-3.2375,0.0,0.0,0.0,0.0,0.0,0.0,-3.4076,-3.4484,-3.5031,-3.568,-3.6327,-3.6972,-3.7637,-3.8281,-3.8594,-3.8594,-3.8379,-3.8261,-3.8261,-3.8046,-3.7342,-3.6321,-3.6325,-3.56,-3.43,-3.2972,-3.2811,-3.335,-3.2685,-3.243,-3.2407,-3.2176,-3.1715,-3.1216,0.0,0.0,0.0,0.0,0.0,0.0,0.0,0.0,0.0,0.0,0.0,-3.1801,-3.1758,-3.2576,-3.3103,-3.303,-3.3067,-3.2736,-3.1854,-3.1797,-3.1378,-3.0442,-3.0394,-3.0392,-3.0392,-3.2825,-3.4588,-3.5563,-3.7247,-3.8092,-3.8129,-3.8106,-3.8112,-3.8202,-3.8111,-3.6964,-3.5065,-3.5062,-3.3997,-3.2272,-3.1558,0.0,0.0,0.0,0.0,0.0,0.0,0.0,0.0,0.0,0.0,0.0,0.0,0.0,0.0,0.0,0.0,0.0,0.0,0.0,0.0,0.0,0.0,0.0,0.0,0.0,0.0,0.0,0.0,0.0,0.0,0.0,0.0,0.0,0.0,0.0,0.0,0.0,0.0,-3.2124,-3.3521,0.0,0.0,0.0,0.0,-3.3337,-3.4903,-3.5873,-3.5878,-3.7441,-3.8359,-3.8394,-3.8456,-3.8496,-3.8535,-3.8574,-3.8594,-3.8594,-3.7753,-3.7362,-3.7342,-3.6501,-3.652,-3.7225,-3.7223,-3.7182,-3.6908,-3.4385,-3.3361,-3.3409,-3.335,-3.3324,-3.3239,-3.2407,-3.2079,-3.2043,0.0,0.0,0.0,0.0,0.0,0.0,0.0,0.0,-3.0583,-3.05,-3.1308,-3.1888,-3.1879,-3.3132,-3.3965,-3.393,-3.4448,-3.4394,-3.3536,-3.2952,-3.2241,-3.1334,-3.0755,-3.0983,-3.211,-3.4158,-3.564,-3.6536,-3.8269,-3.9071,-3.906,-3.9535,-3.9779,-3.9812,-3.9746,-3.9013,-3.779,-3.7105,-3.5746,-3.4053,-3.3733,-3.2618,0.0,0.0,0.0,0.0,0.0,0.0,0.0,0.0,0.0,0.0,0.0,0.0,0.0,0.0,0.0,0.0,0.0,0.0,0.0,0.0,0.0,0.0,0.0,0.0,0.0,0.0,0.0,0.0,0.0,0.0,0.0,0.0,0.0,0.0,0.0,0.0,0.0,-3.2963,-3.3989,0.0,0.0,-3.5069,-3.5308,-3.5879,-3.7012,-3.7655,-3.7608,-3.8198,-3.8551,-3.859,-3.9645,-4.0233,-4.0273,-4.1348,-4.1875,-4.1875,-4.1562,-4.1113,-4.0566,-4.0253,-3.9706,-3.8964,-3.8964,-3.8649,-3.8056,-3.712,-3.61,-3.5072,-3.5072,-3.4739,-3.4191,-3.3881,-3.3413,-3.2945,0.0,0.0,0.0,0.0,0.0,0.0,0.0,0.0,-3.0342,-3.0868,-3.1506,-3.2128,-3.2701,-3.4032,-3.4851,-3.4831,-3.5379,-3.5238,-3.4042,-3.3718,-3.305,-3.1844,-3.1535,-3.2198,-3.394,-3.5418,-3.6736,-3.788,-3.9324,-4.0001,-3.9948,-4.0474,-4.0726,-4.0733,-4.0662,-4.0298,-3.9699,-3.8931,-3.7571,-3.5883,-3.5515,-3.4008,-3.1947,0.0,0.0,0.0,0.0,0.0,0.0,0.0,0.0,0.0,0.0,0.0,0.0,0.0,0.0,0.0,0.0,0.0,0.0,0.0,0.0,0.0,0.0,0.0,0.0,0.0,0.0,0.0,0.0,0.0,0.0,0.0,0.0,0.0,0.0,0.0,-3.3954,-3.4231,-3.5055,-3.5917,-3.6797,-3.6875,-3.7129,-3.7708,-3.8551,-3.9135,-3.9373,-3.9379,-3.9655,-4.0279,-4.1105,-4.1696,-4.203,-4.3144,-4.3691,-4.3691,-4.3398,-4.2969,-4.2383,-4.2108,-4.1366,-4.0331,-4.0312,-3.9821,-3.9033,-3.9035,-3.8173,-3.6852,-3.6558,-3.5916,-3.5135,-3.5135,-3.4763,-3.4275,0.0,0.0,0.0,0.0,0.0,0.0,0.0,-2.9843,-2.9924,-3.1555,-3.1866,-3.2578,-3.4283,-3.5264,-3.5778,-3.5708,-3.5766,-3.5048,-3.3258,-3.3978,-3.3669,-3.1888,-3.2662,-3.396,-3.5718,-3.6692,-3.8001,-3.9685,-4.0495,-4.0876,-4.0839,-4.0815,-4.079,-4.0794,-4.0732,-4.0662,-4.0581,-4.046,-3.9397,-3.7698,-3.6758,-3.5334,-3.3695,0.0,0.0,0.0,0.0,0.0,0.0,0.0,0.0,0.0,0.0,0.0,0.0,0.0,0.0,0.0,0.0,0.0,0.0,0.0,0.0,0.0,0.0,0.0,0.0,0.0,0.0,0.0,0.0,0.0,0.0,0.0,0.0,0.0,-3.3479,-3.4203,-3.507,-3.5976,-3.6836,-3.7695,-3.8588,-3.8651,-3.8652,-3.8672,-3.9452,-4.0287,-4.1058,-4.1091,-4.1841,-4.3478,-4.2794,-4.2825,-4.3684,-4.373,-4.375,-4.3769,-4.2929,-4.2519,-4.244,-4.1614,-4.1244,-4.1268,-4.1187,-4.0698,-3.9974,-3.9955,-3.9422,-3.8552,-3.7672,-3.6813,-3.607,-3.6051,-3.6012,-3.5992,0.0,0.0,0.0,0.0,0.0,0.0,0.0,-3.0351,-3.0385,-3.0806,-3.2013,-3.3027,-3.3507,-3.4906,-3.578,-3.5708,-3.5766,-3.5296,-3.4129,-3.3772,-3.3106,-3.1913,-3.3313,-3.4932,-3.6672,-3.8204,-3.982,-4.1489,-4.1096,-4.1197,-4.1732,-4.1098,-4.0801,-4.0796,-4.0784,-4.0706,-4.0588,-4.0504,-4.01,-3.9433,-3.8489,-3.7061,-3.5495,0.0,0.0,0.0,0.0,0.0,0.0,0.0,0.0,0.0,0.0,0.0,0.0,0.0,0.0,0.0,0.0,0.0,0.0,0.0,0.0,0.0,0.0,0.0,0.0,0.0,0.0,0.0,0.0,0.0,0.0,0.0,0.0,-3.6015,-3.5368,-3.5487,-3.6191,-3.7712,-3.8104,-3.8807,-4.0268,-3.988,-3.9784,-4.0368,-4.0621,-4.087,-4.1093,-4.1109,-4.1301,-4.1765,-4.2195,-4.2827,-4.3688,-4.4336,-4.496,-4.5586,-4.5332,-4.4902,-4.4277,-4.4042,-4.3593,-4.2988,-4.2324,-4.1912,-4.1654,-4.1029,-4.0262,-3.939,-3.8552,-3.8103,-3.7809,-3.7184,-3.6539,-3.5992,0.0,0.0,0.0,0.0,0.0,0.0,0.0,-3.025,-3.0297,-3.0999,-3.1999,-3.2926,-3.3656,-3.4978,-3.5786,-3.5754,-3.5795,-3.5309,-3.401,-3.3502,-3.3491,-3.4054,-3.5055,-3.6414,-3.8151,-3.9189,-4.0335,-4.166,-4.1505,-4.1689,-4.2147,-4.2003,-4.1925,-4.1876,-4.1546,-4.1335,-4.1216,-4.1104,-4.0726,-4.0215,-3.9974,-3.861,-3.6689,-3.6688,-3.594,-3.4851,-3.4405,-3.4061,-3.3657,-3.274,0.0,0.0,0.0,0.0,0.0,0.0,0.0,0.0,0.0,0.0,0.0,0.0,0.0,0.0,0.0,0.0,0.0,0.0,0.0,0.0,0.0,0.0,0.0,0.0,-3.8241,-3.8592,-3.916,-3.8318,-3.8003,-3.9017,-3.9761,-4.0562,-4.1557,-4.1559,-4.1697,-4.2145,-4.2184,-4.2356,-4.2714,-4.2396,-4.251,-4.3216,-4.3402,-4.3918,-4.4783,-4.5293,-4.58,-4.6308,-4.6308,-4.6035,-4.5547,-4.5547,-4.5078,0.0,-4.3711,-4.328,-4.2887,-4.2006,-4.1356,0.0,0.0,0.0,0.0,0.0,-3.7282,-3.6539,0.0,0.0,0.0,0.0,0.0,0.0,0.0,-2.9907,-3.0025,-3.1675,-3.1988,-3.2673,-3.4324,-3.5274,-3.5803,-3.5799,-3.5767,-3.5055,-3.342,-3.3243,-3.4318,-3.6848,-3.7044,-3.7913,-3.966,-3.9796,-4.0228,-4.1043,-4.1825,-4.2257,-4.2343,-4.3126,-4.3456,-4.3372,-4.2659,-4.2291,-4.2215,-4.1912,-4.1267,-4.0471,-4.1015,-3.9808,-3.7675,-3.769,-3.6761,-3.5475,-3.5439,-3.499,-3.4395,-3.4313,0.0,0.0,0.0,0.0,0.0,0.0,0.0,0.0,0.0,0.0,0.0,0.0,0.0,0.0,0.0,0.0,0.0,0.0,0.0,0.0,0.0,0.0,0.0,0.0,-4.0664,-4.1129,-4.3373,-4.1848,-4.044,-4.0345,-4.1633,-4.2552,-4.2553,-4.3259,-4.3709,-4.3709,-4.3709,-4.4038,-4.4811,0.0,0.0,0.0,0.0,-4.5261,-4.6131,-4.6152,-4.6191,-4.6308,-4.6308,-4.6308,-4.6308,-4.6308,-4.5878,-4.5137,-4.5038,-4.4568,-4.3786,-4.2904,-4.2489,-4.2249,-4.0584,-3.9449,-3.8747,-3.8747,-3.8181,0.0,0.0,0.0,0.0,0.0,0.0,0.0,0.0,-3.0414,-3.0699,-3.1686,-3.2488,-3.3349,-3.4399,-3.5273,-3.5795,-3.5797,-3.5212,-3.4411,-3.3378,-3.3235,-3.4046,-3.5969,-3.6727,-3.7912,-3.966,-4.0344,-4.1082,-4.1961,-4.2116,-4.2524,-4.3172,-4.3398,-4.346,-4.3391,-4.3285,-4.3147,-4.2939,-4.2147,-4.1558,-4.1122,-4.0525,-3.9937,-3.9426,-3.9416,-3.9258,-3.8931,-3.8287,-3.807,-3.7874,-3.6546,-3.6075,-3.5939,-3.527,-3.5089,0.0,0.0,0.0,0.0,0.0,0.0,0.0,0.0,0.0,0.0,0.0,0.0,0.0,0.0,0.0,0.0,0.0,0.0,0.0,-4.0994,-4.2146,-4.3136,-4.3632,-4.3881,-4.3756,-4.3054,-4.3256,-4.3453,-4.345,-4.359,-4.3709,-4.3709,-4.3709,-4.3767,-4.3942,-4.3781,0.0,-4.4176,-4.4022,-4.4374,-4.5234,-4.5252,-4.5603,-4.6308,0.0,0.0,-4.6308,-4.6308,-4.6209,-4.6014,-4.5309,-4.4892,-4.4686,-4.3806,-4.304,-4.2291,-4.1243,-4.0327,-3.9566,-3.9566,-3.9058,-3.8357,0.0,0.0,0.0,0.0,0.0,0.0,0.0,-3.0488,-3.067,-3.1041,-3.1912,-3.2822,-3.3698,-3.4196,-3.4635,-3.5103,-3.4416,-3.3937,-3.3899,-3.4272,-3.5281,-3.7023,-3.7935,-3.9004,-4.0266,-4.0694,-4.1102,-4.1548,-4.2422,-4.3053,-4.3465,-4.434,-4.4738,-4.4672,-4.4275,-4.378,-4.3178,-4.2668,-4.1807,-4.0778,-4.0736,-4.0406,-3.9943,-3.9911,-3.9922,-3.9908,-3.9603,-3.9299,-3.8946,-3.8197,-3.7735,-3.7392,-3.7012,-3.6908,-3.665,0.0,0.0,0.0,0.0,0.0,0.0,0.0,0.0,0.0,0.0,0.0,0.0,0.0,0.0,-3.7284,0.0,0.0,-4.1425,-4.2266,-4.3493,-4.4506,-4.4941,-4.5387,-4.5169,-4.386,-4.4469,-4.4822,-4.4391,-4.4745,-4.5,-4.4999,-4.5,-4.5,-4.5,-4.498,-4.4941,-4.4956,-4.496,-4.5174,-4.5657,-4.5657,-4.5874,-4.6307,-4.6305,-4.6306,-4.6307,-4.6305,-4.6305,-4.6285,-4.5831,-4.565,-4.5583,-4.4713,-4.3845,-4.296,-4.2087,-4.1211,-4.0448,-4.0448,-3.9923,-3.9201,0.0,0.0,0.0,0.0,0.0,0.0,0.0,-3.0396,-3.0516,-3.0648,-3.1309,-3.2129,-3.2991,-3.3103,-3.3343,-3.3954,-3.3712,-3.3736,-3.4229,-3.5236,-3.6576,-3.8328,-3.9062,-3.9897,-4.0888,-4.0907,-4.0907,-4.0907,-4.2481,-4.3253,-4.3287,-4.4792,-4.5506,-4.5456,-4.4755,-4.3981,-4.3173,-4.2923,-4.1914,-4.0482,-4.0957,-4.0676,-3.9986,-3.9922,-3.9911,-3.9924,-3.9929,-3.9661,-3.9254,-3.9096,-3.8747,-3.8331,-3.8228,-3.8195,-3.7905,-3.6375,-3.6383,0.0,0.0,0.0,0.0,0.0,0.0,0.0,0.0,0.0,-3.6315,-3.632,-3.7317,-3.8367,-3.8917,-4.0601,-4.2324,-4.3514,-4.4568,-4.5506,-4.6209,-4.6307,-4.5761,-4.4355,-4.5449,-4.6015,-4.5293,-4.5878,-4.6287,-4.6288,-4.6287,-4.6286,-4.6285,-4.6229,-4.6206,-4.62,-4.6199,-4.6239,-4.6278,-4.6272,-4.6299,-4.6301,-4.6301,-4.6301,-4.6301,-4.6301,-4.6301,-4.63,-4.6291,-4.6287,-4.6227,-4.5523,-4.4726,-4.386,-4.3158,-4.2356,-4.1554,-4.1228,-4.0664,-4.0043,0.0,0.0,0.0,0.0,0.0,0.0,0.0,0.0,-3.0697,-3.1451,-3.1655,-3.2069,-3.2998,-3.3088,-3.2878,-3.2322,-3.3553,-3.4093,-3.3487,-3.4921,-3.6576,-3.8328,-3.8484,-3.9276,-4.0869,-4.0907,-4.0907,-4.0907,-4.1859,-4.2354,-4.2368,-4.3325,-4.3751,-4.3701,-4.3585,-4.3421,-4.3142,-4.2244,-4.1651,-4.1275,-4.0468,-4.0102,-3.9986,-3.9922,-3.9933,-3.9901,-3.9271,-3.9563,-4.0033,-3.8626,-3.8645,-3.9136,-3.8413,-3.8194,-3.8002,-3.7046,-3.682,-3.6704,-3.58,-3.6195,-3.6676,-3.5896,-3.6212,-3.6552,0.0,0.0,-3.8112,-3.8109,-4.0098,-4.1607,-4.093,-4.2869,-4.4373,-4.3807,-4.5074,-4.6187,-4.6289,-4.6308,-4.6211,-4.5948,-4.6148,-4.6247,-4.6084,-4.6203,-4.6279,-4.6228,-4.6215,-4.6215,-4.6207,-4.6195,-4.6191,-4.621,-4.6193,-4.6193,-4.6208,-4.621,-4.6241,-4.6294,-4.6294,-4.6297,-4.6301,-4.6296,-4.6294,-4.6293,-4.6249,-4.6214,-4.6192,-4.6105,-4.5553,-4.4763,-4.465,-4.4098,-4.3143,-4.1649,-4.1035,-4.0957,0.0,0.0,0.0,0.0,0.0,0.0,0.0,0.0,0.0,-3.0835,-3.0923,-3.1291,-3.2191,-3.2318,-3.2014,-3.12,-3.227,-3.3052,-3.3222,-3.4854,-3.6576,-3.8328,-3.8887,-3.9703,-4.0869,-4.0907,-4.0907,-4.0907,-4.1767,-4.2209,-4.2213,-4.3097,-4.3495,-4.3449,-4.3379,-4.3021,-4.2418,-4.1952,-4.1398,-4.0768,-4.03,-4.0087,-3.9989,-3.9412,-3.9231,-3.9206,-3.8937,-3.9156,0.0,-3.8308,-3.8257,-3.8595,-3.8298,-3.8194,-3.8026,-3.7168,-3.6903,-3.685,-3.6543,-3.6725,0.0,0.0,-3.8621,-3.9301,-3.9491,-4.0485,-4.1373,-4.142,-4.2322,-4.2993,-4.2666,-4.3918,-4.4882,0.0,-4.5487,-4.6308,-4.6308,-4.6308,-4.6284,-4.6204,-4.6222,-4.6225,-4.6207,-4.6222,-4.6238,-4.6202,-4.6669,-4.6956,-4.6965,-4.7435,-4.7487,-4.6972,-4.6958,-4.671,-4.6203,-4.6192,-4.6225,-4.6298,-4.6298,-4.6303,-4.6291,-4.6308,-4.628,-4.6249,-4.6206,-4.6209,-4.62,-4.6203,-4.5988,-4.5605,-4.5092,-4.4676,-4.415,-4.2428,-4.1811,-4.1733,0.0,0.0,0.0,0.0,0.0,0.0,0.0,0.0,0.0,0.0,-3.0318,-3.0597,-3.1278,-3.1378,-3.1177,-3.0554,-3.1355,-3.2275,-3.3139,-3.4613,-3.6226,-3.7979,-3.8654,-3.9489,-4.0558,-4.0577,-4.0674,-4.0907,-4.1529,-4.1845,-4.184,-4.2466,-4.2766,-4.2747,-4.262,-4.2169,-4.1509,-4.142,-4.0969,-4.0281,-4.0186,-4.0137,-3.9962,-3.9043,-3.869,-3.8643,-3.8241,-3.8337,-3.8457,-3.7536,-3.743,-3.7687,-3.7527,-3.7474,-3.7332,-3.6712,-3.6704,-3.6909,-3.6955,0.0,0.0,-3.961,-4.0606,-4.15,-4.2354,-4.2854,-4.3234,-4.3536,-4.3785,-4.3908,-4.371,-4.4593,-4.5288,-4.5038,-4.5722,-4.6308,-4.6306,-4.6304,-4.6274,-4.6177,-4.6162,-4.6162,-4.6175,-4.6184,-4.6281,-4.6511,-4.7131,-4.7608,-4.7852,-4.8454,-4.8503,-4.7875,-4.7609,-4.7187,-4.6567,-4.6326,-4.6223,-4.6275,-4.6279,-4.6264,-4.6273,-4.6273,-4.6245,-4.6206,-4.6192,-4.6196,-4.6206,-4.6199,-4.6199,-4.6141,-4.5517,-4.5264,-4.5089,-4.3565,-4.2861,-4.2549,0.0,0.0,0.0,0.0,0.0,0.0,0.0,0.0,0.0,0.0,0.0,0.0,0.0,-3.0436,-3.0458,-3.0491,-3.1362,-3.2274,-3.3139,-3.4031,-3.5313,-3.7061,-3.7159,-3.7974,-3.9699,-3.9737,-4.013,-4.0907,-4.0927,-4.0946,-4.0946,-4.0892,-4.089,-4.0884,-4.0738,-4.0631,-4.0535,-4.0396,-4.03,-4.0196,-4.0137,-4.0057,-3.992,-3.9033,-3.869,-3.8491,-3.6939,-3.6918,-3.7429,-3.5967,-3.6034,-3.6628,-3.5894,-3.5637,-3.5586,-3.5628,-3.6242,-3.6903,-3.6903,0.0,-4.069,-4.0749,-4.1475,-4.2384,-4.3253,-4.283,-4.25,-4.34,-4.4261,-4.4592,-4.3763,-4.5054,-4.5989,-4.5149,-4.5721,-4.6308,-4.6303,-4.6301,-4.6248,-4.6115,-4.6102,-4.6107,0.0,-4.6158,-4.6523,-4.7303,-4.7455,-4.7875,-4.8713,-4.8791,-4.8791,-4.8768,-4.7876,-4.7424,-4.7466,-4.6628,-4.6209,-4.6206,-4.6201,-4.6209,-4.6209,-4.6209,-4.6209,-4.6206,-4.6192,-4.6203,-4.6203,-4.6206,-4.6199,-4.6199,-4.618,-4.616,-4.6043,-4.5147,-4.4286,-4.3445,0.0,0.0,0.0,0.0,0.0,0.0,0.0,0.0,0.0,0.0,0.0,0.0,0.0,0.0,0.0,0.0,-3.0801,-3.1632,-3.3034,-3.3443,-3.4675,-3.7003,-3.71,-3.7644,-3.881,-3.8829,-3.8965,-3.9241,-3.9241,-3.951,-4.0038,-4.0017,-4.0261,-4.0724,-4.0641,-4.0591,-4.0527,-3.9857,-3.951,-3.9356,-3.8747,-3.8442,-3.8249,-3.7364,-3.704,-3.6889,0.0,-3.596,-3.6575,-3.5545,-3.5477,-3.5792,-3.5546,-3.5509,-3.568,-3.6294,-3.7085,-3.8005,-3.917,0.0,-4.1806,-4.2385,-4.2762,-4.3075,-4.3377,-4.3654,-4.3966,-4.4331,-4.4625,-4.4752,-4.4511,-4.4955,-4.5271,-4.4972,-4.5667,-4.6237,-4.6231,-4.6222,-4.6197,-4.6109,-4.6096,0.0,0.0,0.0,0.0,-4.7432,-4.8511,-4.9294,-4.9586,-5.0131,-5.019,-4.9605,-4.9286,-4.8604,-4.7501,-4.7209,-4.6771,-4.6206,-4.6209,-4.6192,-4.6192,-4.6203,-4.6203,-4.6192,-4.6196,-4.6206,-4.6206,-4.6199,-4.6199,-4.6199,-4.6199,-4.6199,-4.616,-4.5868,-4.5572,-4.5124,0.0,0.0,0.0,0.0,0.0,0.0,0.0,0.0,0.0,0.0,0.0,0.0,0.0,0.0,0.0,0.0,0.0,-3.1139,-3.2507,-3.2681,-3.3604,-3.5558,-3.596,-3.6522,-3.7342,-3.7696,-3.7991,-3.8282,-3.8346,-3.8622,-3.9107,-3.9107,-3.9344,-3.9773,-3.968,-3.9641,-3.9592,-3.8949,-3.8593,-3.8411,-3.7546,-3.7129,-3.6909,-3.5761,-3.5476,0.0,-3.4775,-3.504,-3.5732,-3.5262,-3.5417,-3.5798,-3.5844,-3.6177,-3.663,-3.7207,-3.821,-3.9441,-4.0889,-4.2135,-4.3162,-4.3722,-4.3637,-4.3488,-4.3796,-4.4054,-4.4342,-4.471,-4.4798,-4.4802,-4.4861,-4.4621,-4.4549,-4.4846,-4.5369,-4.5845,-4.6154,-4.6194,-4.6186,-4.6103,-4.6368,0.0,0.0,0.0,0.0,-4.8397,-4.9391,-5.0131,-5.0443,-5.1008,-5.1047,-5.0482,-5.0151,-4.9488,-4.8397,-4.7793,-4.7057,-4.6206,-4.6206,-4.6206,-4.6206,-4.6185,-4.6189,-4.6206,-4.6192,-4.6208,-4.6208,-4.6196,-4.6199,-4.6199,-4.6199,-4.6199,-4.6199,-4.6199,-4.6199,-4.6004,0.0,0.0,0.0,0.0,0.0,0.0,0.0,0.0,0.0,0.0,0.0,0.0,0.0,0.0,0.0,0.0,0.0,0.0,-3.1648,-3.1816,-3.2227,-3.2971,-3.3903,-3.4721,-3.5359,-3.629,-3.7113,-3.7834,-3.7973,-3.8023,-3.8005,-3.7999,-3.7983,-3.7958,-3.7839,-3.7778,-3.7771,-3.7581,-3.7476,-3.7327,-3.6464,-3.6074,-3.5827,-3.4245,-3.4131,-3.4737,-3.396,-3.4188,-3.487,-3.5095,-3.5779,-3.6607,-3.6726,-3.7462,-3.8279,-3.8321,-3.9569,-4.1128,-4.2009,-4.3463,-4.4755,-4.4755,-4.4122,-4.3676,-4.4503,-4.4064,-4.3693,-4.4549,-4.4695,-4.4671,0.0,0.0,-4.3825,-4.4757,-4.4941,-4.5265,-4.6069,-4.6192,-4.6183,0.0,0.0,0.0,0.0,0.0,0.0,-5.0069,0.0,-5.0424,-5.1261,-5.13,-5.13,-5.13,-5.0502,-5.0053,-4.9995,-4.8339,-4.7081,-4.6263,-4.6224,-4.6185,-4.6185,-4.6126,-4.6126,-4.6185,-4.6185,-4.6205,-4.6209,-4.6208,-4.6196,-4.6199,-4.6199,-4.6199,-4.6199,-4.6199,-4.6199,-4.6082,0.0,0.0,0.0,0.0,0.0,0.0,0.0,0.0,0.0,0.0,0.0,0.0,0.0,0.0,0.0,0.0,0.0,0.0,-3.1569,-3.1697,-3.2116,-3.2965,-3.3903,-3.416,-3.3647,-3.4519,-3.4756,-3.4289,-3.4337,-3.4643,-3.5219,-3.5213,-3.5521,-3.608,-3.6043,-3.6013,-3.5925,-3.5235,-3.4868,-3.471,-3.3866,-3.3472,-3.3316,-3.2899,-3.3259,-3.3979,-3.3771,-3.3828,-3.4216,-3.5533,-3.6674,-3.7571,-3.7765,-3.8437,-3.9303,-3.9946,-4.1377,-4.2933,-4.3792,-4.4801,-4.5583,-4.5583,-4.4938,-4.4344,-4.4563,-4.4453,-4.4201,-4.3832,-4.323,-4.3003,0.0,0.0,0.0,-4.4581,-4.5416,0.0,-4.6174,-4.6196,0.0,-4.6102,0.0,-4.7636,-4.8234,-4.9338,0.0,0.0,-5.0929,-5.1067,-5.13,-5.13,-5.13,-5.13,-5.1086,-5.0657,-5.0014,-4.8285,-4.7315,-4.7099,-4.6439,-4.6138,-4.6119,-4.611,-4.6104,-4.6126,-4.6126,-4.6154,-4.6209,-4.6193,-4.6204,-4.6199,-4.6199,-4.6199,-4.6199,-4.6199,-4.6199,-4.618,0.0,0.0,0.0,0.0,0.0,0.0,0.0,0.0,0.0,0.0,0.0,0.0,0.0,0.0,0.0,0.0,0.0,0.0,0.0,-3.1021,-3.1282,-3.17,-3.2986,-3.3435,-3.2885,-3.3712,-3.4122,-3.4,-3.3306,-3.3371,-3.4146,-3.3801,-3.3852,-3.4256,-3.4256,-3.4242,-3.4162,-3.3624,-3.3344,0.0,0.0,-3.2469,-3.236,-3.2,-3.2634,-3.3657,-3.3278,-3.3892,-3.5047,-3.612,0.0,-3.8013,-3.8183,-3.9356,-4.0743,-4.125,0.0,-4.4164,-4.5035,-4.5588,-4.5899,-4.5899,-4.5241,-4.4504,-4.4118,-4.3737,-4.335,-4.2914,-4.2139,0.0,-4.2761,0.0,0.0,0.0,0.0,0.0,-4.6157,-4.6174,-4.6286,0.0,-4.7413,0.0,-4.9093,-4.9985,-5.07,0.0,-5.1267,-5.1296,-5.1308,-5.1296,-5.13,-5.13,-5.13,-5.0872,-5.0014,-4.9029,-4.8152,-4.7382,-4.6901,-4.646,-4.61,-4.6066,-4.6076,-4.6099,0.0,-4.6113,-4.6154,-4.6185,-4.6201,-4.6199,-4.6199,-4.6199,-4.6199,-4.6199,-4.6199,-4.6199,0.0,0.0,0.0,0.0,0.0,0.0,0.0,0.0,0.0,0.0,0.0,0.0,0.0,0.0,0.0,0.0,0.0,0.0,0.0,0.0,-3.0226,-3.0109,-3.1726,-3.2601,-3.2539,-3.336,-3.4186,-3.4936,-3.3541,-3.3152,-3.3722,-3.3005,-3.2602,-3.2433,-3.2433,-3.2452,-3.2452,-3.2317,-3.2321,-3.2419,-3.2288,-3.2303,-3.2322,0.0,-3.2322,-3.3581,-3.271,-3.3975,-3.6073,-3.6161,-3.7115,-3.8299,-3.844,-4.0222,-4.2302,-4.2354,-4.3557,-4.5032,-4.5797,-4.5958,-4.5911,-4.5911,-4.5312,-4.4504,-4.3518,-4.2725,-4.2138,-4.1956,0.0,-4.0947,-4.2003,-4.2092,-4.2398,-4.3575,0.0,-4.52,-4.6079,-4.6146,-4.639,-4.714,-4.8035,-4.8904,-4.9654,-5.0611,-5.1196,-5.1208,-5.1254,-5.1284,-5.1291,-5.1308,-5.1296,-5.13,-5.13,-5.095,-5.019,-5.005,-4.9173,-4.7577,-4.7455,-4.6936,-4.6076,-4.6032,-4.6032,-4.6095,0.0,0.0,-4.6093,-4.6154,-4.6193,-4.6196,-4.6196,-4.6196,-4.6199,-4.6199,-4.6199,-4.6199,0.0,0.0,0.0,0.0,0.0,0.0,0.0,0.0,0.0,0.0,-2.9916,-2.9905,0.0,0.0,0.0,0.0,0.0,0.0,0.0,0.0,0.0,-3.0101,-3.1143,-3.1685,-3.1642,-3.2432,-3.292,-3.3081,-3.28,-3.2343,-3.1775,-3.1638,-3.1222,-3.0577,-3.0577,-3.0598,-3.0645,-3.0569,-3.0918,-3.1526,-3.1436,-3.181,-3.2379,-3.2239,0.0,0.0,-3.271,-3.3234,-3.4241,-3.3663,-3.6016,-3.9212,-3.9398,-4.1204,-4.3262,-4.3267,-4.4457,-4.5816,-4.5958,-4.5958,-4.5911,-4.5911,-4.5745,-4.5181,-4.3653,-4.3189,0.0,0.0,-4.0337,-4.0233,-4.1886,-4.1576,-4.1815,-4.4217,0.0,0.0,0.0,0.0,-4.6216,0.0,0.0,0.0,0.0,0.0,0.0,0.0,0.0,0.0,-5.1306,-5.1291,-5.1304,-5.13,-5.13,-5.1222,-5.1086,-5.0369,-4.9491,-4.8472,-4.7733,-4.6912,-4.6026,-4.6002,-4.6002,-4.6026,0.0,0.0,-4.6105,-4.611,-4.6156,-4.6193,-4.6193,-4.6204,-4.6199,-4.6199,-4.6199,-4.6199,0.0,0.0,0.0,0.0,0.0,0.0,0.0,0.0,-2.9655,-2.9263,-2.9212,-2.9399,-2.9851,-2.9897,0.0,0.0,0.0,0.0,0.0,0.0,0.0,0.0,-3.091,-3.1375,-3.1356,-3.2175,-3.2814,-3.3219,0.0,-3.2401,-3.1963,-3.1499,-3.0868,-3.0098,-3.0098,-3.0376,-3.0825,-3.0758,-3.1202,-3.1993,-3.232,-3.2683,-3.3024,0.0,0.0,0.0,0.0,-3.3149,-3.3171,-3.2869,-3.4808,-3.7481,-3.8093,-4.0694,-4.3408,-4.2951,-4.437,-4.6042,-4.6042,-4.6,-4.5955,-4.5955,-4.5874,-4.5246,-4.3111,0.0,0.0,0.0,-3.9783,-3.9905,-4.1222,-4.1471,0.0,0.0,0.0,0.0,0.0,0.0,0.0,0.0,0.0,0.0,0.0,0.0,0.0,0.0,0.0,0.0,-5.1249,-5.1272,-5.1308,-5.13,-5.1308,-5.1308,-5.13,-5.0891,-5.0246,-4.9367,-4.8482,-4.7578,-4.6657,-4.621,-4.6002,-4.6002,0.0,0.0,-4.61,-4.61,-4.6119,-4.6154,-4.6185,-4.6193,-4.6204,-4.6196,-4.6199,-4.6199,0.0,0.0,0.0,0.0,0.0,0.0,0.0,-2.9145,-2.9283,-2.8684,-2.8604,-2.8855,-2.9558,-2.9623,-2.9707,0.0,0.0,0.0,0.0,0.0,0.0,0.0,0.0,0.0,0.0,0.0,0.0,0.0,-3.3035,0.0,0.0,0.0,0.0,0.0,-3.0486,-3.0966,-3.1615,-3.1537,-3.203,0.0,0.0,-3.3686,0.0,0.0,0.0,0.0,0.0,-3.3218,-3.2572,-3.2649,-3.3667,-3.5079,-3.6074,-3.9275,-4.2597,-4.2271,-4.3777,-4.5619,-4.5974,-4.603,-4.5986,-4.5986,-4.5764,-4.4871,-4.2318,-4.1603,0.0,0.0,-3.894,-3.9216,-4.0097,-4.0953,-4.1568,0.0,-4.2524,0.0,0.0,0.0,0.0,0.0,0.0,0.0,0.0,0.0,0.0,0.0,0.0,0.0,0.0,-5.1252,-5.1296,-5.13,-5.1304,-5.1304,-5.13,-5.1304,-5.0858,-4.9999,-4.9318,-4.8492,-4.7556,-4.6862,-4.6454,-4.6268,0.0,0.0,0.0,-4.6071,-4.6085,-4.6108,-4.6169,-4.6201,-4.6209,-4.6204,-4.6196,-4.6199,0.0,0.0,0.0,0.0,0.0,0.0,0.0,-2.8979,-2.8556,-2.86,-2.8598,-2.8634,-2.8704,-2.8774,-2.9101,0.0,0.0,0.0,0.0,0.0,0.0,0.0,0.0,0.0,0.0,0.0,0.0,0.0,0.0,0.0,0.0,0.0,0.0,0.0,0.0,0.0,-3.2303,-3.2231,0.0,0.0,0.0,0.0,0.0,0.0,0.0,0.0,0.0,-3.3145,-3.2441,-3.2575,0.0,-3.3121,-3.4059,-3.6935,-4.0241,-4.169,0.0,0.0,-4.5608,-4.5964,-4.5911,-4.5911,-4.5293,-4.404,-4.1487,0.0,-3.9249,-3.7502,-3.7135,-3.7417,-3.836,-3.9195,-3.9755,-3.984,-4.1233,-4.2641,0.0,0.0,0.0,0.0,0.0,0.0,0.0,0.0,0.0,0.0,0.0,0.0,0.0,-5.1258,-5.13,-5.13,-5.1296,-5.1296,-5.13,-5.1296,-5.086,-5.0002,-4.9924,-4.9391,-4.8481,-4.8404,-4.7922,-4.7181,0.0,0.0,0.0,-4.6002,-4.6061,-4.6105,-4.6105,-4.6152,-4.6209,-4.6189,-4.6201,-4.6199,0.0,0.0,0.0,0.0,0.0,0.0,0.0,-2.8806,-2.88,-2.8353,-2.8407,-2.8655,-2.9143,-2.8871,-2.8982,0.0,0.0,0.0,0.0,0.0,0.0,0.0,0.0,0.0,0.0,0.0,0.0,-3.2298,0.0,0.0,0.0,0.0,0.0,0.0,0.0,0.0,0.0,0.0,0.0,0.0,0.0,0.0,0.0,0.0,0.0,0.0,0.0,0.0,-3.2406,0.0,0.0,0.0,-3.3073,-3.4616,0.0,0.0,-4.1538,-4.3102,-4.4807,-4.5223,-4.5179,-4.5179,-4.4879,-4.3808,-4.0719,0.0,-3.9636,-3.7367,-3.7328,-3.7793,-3.8177,-3.8926,-3.9513,-3.9533,-4.0558,0.0,-4.3282,0.0,0.0,0.0,0.0,0.0,0.0,0.0,0.0,0.0,0.0,0.0,0.0,-5.123,-5.1249,-5.1239,-5.1239,-5.1267,-5.13,-5.13,-5.1124,-5.0785,-5.0246,-4.9771,-4.9361,-4.884,-4.8416,-4.8055,0.0,0.0,0.0,-4.621,-4.6026,-4.6037,-4.6071,-4.611,-4.6152,-4.6145,-4.6162,-4.6201,0.0,0.0,0.0,0.0,0.0,-2.9167,-2.8499,-2.8726,-2.8785,-2.8227,-2.8288,-2.8622,-2.9176,-2.9093,-2.9231,-2.9861,0.0,0.0,0.0,0.0,0.0,0.0,0.0,0.0,0.0,0.0,-3.1091,-3.1883,-3.2712,-3.3108,0.0,0.0,0.0,0.0,0.0,0.0,0.0,0.0,0.0,0.0,0.0,0.0,0.0,0.0,0.0,0.0,0.0,0.0,0.0,0.0,0.0,-3.2265,-3.2765,-3.3263,-3.4369,-3.7964,-4.0124,-4.1803,-4.3845,-4.4349,-4.4331,-4.4331,-4.3898,-4.2783,0.0,0.0,-3.905,-3.6961,-3.7038,-3.7464,-3.7464,-3.816,-3.8746,-3.8758,-3.9904,-4.1241,-4.2489,0.0,0.0,0.0,0.0,0.0,0.0,0.0,0.0,0.0,0.0,0.0,0.0,-5.1194,-5.119,-5.1211,-5.1211,-5.1225,-5.131,-5.131,-5.131,-5.1291,-5.067,-5.0354,-5.0256,-4.9651,-4.9232,0.0,0.0,0.0,0.0,-4.6366,-4.6002,-4.6002,-4.6042,-4.6071,-4.61,-4.6071,-4.6113,-4.6177,0.0,0.0,0.0,0.0,0.0,0.0,0.0,-2.8801,-2.823,-2.8297,-2.8362,-2.8396,-2.8415,-2.9298,-2.9885,-2.9904,0.0,0.0,0.0,0.0,0.0,0.0,0.0,0.0,0.0,0.0,-3.0188,-3.0912,-3.1787,-3.2182,-3.2123,-3.3006,0.0,0.0,0.0,0.0,0.0,0.0,0.0,0.0,0.0,0.0,0.0,0.0,0.0,0.0,0.0,0.0,0.0,0.0,0.0,0.0,0.0,-3.3197,-3.3347,-3.7035,-3.873,-4.0004,-4.269,-4.3413,-4.341,-4.341,-4.2123,-4.0603,0.0,0.0,-3.6709,-3.5878,-3.5723,-3.5723,-3.5723,-3.6381,-3.6953,-3.7029,-3.9143,-4.0828,-4.0907,0.0,0.0,0.0,0.0,0.0,0.0,0.0,0.0,0.0,0.0,0.0,0.0,0.0,-5.1192,-5.1206,-5.1211,-5.1225,-5.131,-5.131,-5.131,-5.131,-5.1291,-5.1244,-5.1194,-5.1169,0.0,0.0,0.0,0.0,0.0,-4.6366,-4.6002,-4.6002,-4.6002,-4.6037,-4.6095,-4.6032,-4.6037,-4.6093,0.0,0.0,0.0,0.0,0.0,0.0,0.0,-2.9055,-2.8951,-2.8926,-2.9089,-2.9214,-2.9214,-2.955,-2.9753,-2.9753,0.0,0.0,0.0,0.0,0.0,0.0,0.0,0.0,0.0,0.0,-3.0659,-3.0893,-3.172,-3.2434,-3.2987,-3.2668,-3.2687,-3.2968,0.0,0.0,0.0,0.0,0.0,0.0,0.0,0.0,0.0,0.0,0.0,0.0,0.0,0.0,0.0,0.0,0.0,0.0,0.0,0.0,0.0,-3.5576,-3.6764,-3.7961,-4.0132,-4.068,-4.061,-4.0715,-4.033,-3.9539,-3.8063,-3.7309,-3.6671,-3.5858,-3.5704,-3.5704,-3.5704,-3.6361,-3.7127,-3.7779,-3.9539,-4.1034,0.0,0.0,0.0,0.0,0.0,0.0,0.0,0.0,0.0,0.0,0.0,0.0,0.0,0.0,-5.1208,-5.1211,-5.1194,-5.121,-5.124,-5.1235,-5.122,-5.122,-5.1225,-5.1229,-5.1189,-5.1206,0.0,0.0,0.0,0.0,0.0,-4.6599,-4.6002,-4.6002,-4.6002,-4.6007,-4.6032,-4.6002,-4.6042,-4.6085,0.0,0.0,0.0,0.0,0.0,0.0,0.0,-2.9203,-2.9257,-2.92,-2.939,-2.9521,-2.9521,-2.9617,-2.9708,-2.9708,0.0,0.0,0.0,0.0,0.0,0.0,0.0,0.0,-2.97,-3.019,-3.0593,-3.0893,-3.14,-3.2086,-3.2893,-3.2048,-3.1936,-3.2414,-3.1579,-3.1823,0.0,0.0,0.0,0.0,0.0,0.0,-3.2801,0.0,0.0,0.0,0.0,0.0,0.0,0.0,0.0,0.0,0.0,0.0,0.0,0.0,-3.5537,-3.6427,-3.8395,-3.8865,-3.8826,-3.891,-3.8698,0.0,0.0,-3.6636,-3.6275,-3.58,-3.5704,-3.5781,-3.6091,-3.6555,-3.732,-3.8554,-4.0178,0.0,0.0,0.0,0.0,0.0,0.0,0.0,0.0,0.0,0.0,0.0,0.0,0.0,0.0,0.0,-5.1153,-5.1165,-5.1194,-5.1197,-5.1194,-5.1205,-5.1196,-5.1196,-5.1169,-5.1167,-5.1156,0.0,0.0,0.0,0.0,0.0,0.0,-4.7033,-4.6257,-4.5953,-4.5953,-4.5958,-4.5964,-4.5953,-4.5994,-4.6046,0.0,0.0,0.0,0.0,0.0,0.0,0.0,0.0,0.0,-2.92,-2.931,-2.9402,-2.9402,-2.9561,-2.9681,-2.9662,0.0,0.0,0.0,0.0,0.0,0.0,0.0,0.0,-2.9701,-2.9758,-3.0114,-3.0818,-3.0875,-3.1269,-3.1992,-3.1194,-3.0856,-3.0856,-3.0058,-3.0565,-3.2057,-3.2796,-3.3075,-3.2944,-3.2208,-3.1944,0.0,0.0,0.0,0.0,0.0,0.0,0.0,0.0,0.0,0.0,0.0,0.0,0.0,0.0,0.0,0.0,0.0,-3.7796,-3.7803,-3.781,0.0,0.0,-3.6691,-3.6112,0.0,-3.5687,-3.5679,-3.593,-3.6748,-3.6903,-3.7475,-3.9226,0.0,0.0,0.0,0.0,0.0,0.0,0.0,0.0,0.0,0.0,0.0,0.0,0.0,0.0,0.0,0.0,0.0,-5.1095,-5.1159,-5.1189,-5.1184,-5.1184,-5.1184,-5.1184,-5.113,-5.1101,-5.1095,0.0,0.0,0.0,0.0,0.0,0.0,-4.7461,-4.6629,-4.5886,-4.5886,-4.5887,-4.5893,-4.59,-4.5925,-4.5974,0.0,0.0,0.0,0.0,0.0,0.0,0.0,0.0,0.0,0.0,-2.9259,-2.9314,-2.9314,-2.9324,-2.9345,0.0,0.0,0.0,0.0,0.0,0.0,0.0,0.0,0.0,-2.9701,-3.0302,-3.0415,-2.9983,-3.0593,-3.1006,-3.1156,-3.0359,-3.0321,-3.0856,-3.0058,-3.0217,-3.1162,-3.1942,-3.2243,-3.2113,-3.1323,-3.1009,0.0,0.0,0.0,0.0,-3.2363,-3.3127,0.0,0.0,0.0,0.0,0.0,0.0,0.0,0.0,-3.4955,-3.5059,-3.5639,0.0,-3.5956,-3.5993,-3.586,-3.5713,0.0,-3.5579,-3.5483,-3.5604,-3.5622,-3.5885,-3.6737,-3.6903,-3.7475,0.0,0.0,0.0,0.0,0.0,0.0,0.0,0.0,0.0,0.0,0.0,0.0,0.0,0.0,0.0,0.0,0.0,0.0,-5.1095,-5.1121,-5.1127,-5.1115,-5.1115,-5.1115,-5.1115,-5.1108,-5.1101,-5.1095,0.0,0.0,0.0,0.0,0.0,-4.829,-4.6762,-4.5979,-4.5746,-4.5746,-4.5754,-4.5742,-4.5754,-4.5761,-4.5783,0.0,0.0,0.0,0.0,0.0,0.0,0.0,0.0,0.0,0.0,0.0,0.0,0.0,0.0,0.0,0.0,0.0,0.0,0.0,0.0,0.0,0.0,0.0,-2.9512,-2.9512,-2.9932,-2.995,-2.9512,-2.995,-3.0175,-3.0156,-2.9785,-2.9842,-3.0254,-3.0246,-3.0452,-3.0823,-3.1252,-3.1406,-3.1283,-3.0445,0.0,0.0,0.0,0.0,0.0,-3.2449,-3.3223,0.0,-3.4633,-3.4908,-3.4908,0.0,0.0,0.0,0.0,-3.4945,-3.4983,-3.5075,-3.5127,-3.5185,-3.5278,-3.53,-3.5315,-3.5348,-3.5343,-3.539,-3.5579,-3.5598,-3.5982,-3.7259,0.0,0.0,0.0,0.0,0.0,0.0,0.0,0.0,0.0,0.0,0.0,0.0,0.0,0.0,0.0,0.0,0.0,0.0,0.0,0.0,0.0,-5.1012,-5.1039,-5.1094,-5.1101,-5.1101,-5.1101,-5.106,-5.102,-5.0963,0.0,0.0,0.0,0.0,0.0,-4.7631,-4.6664,-4.6007,-4.5618,-4.5618,-4.5627,-4.5643,-4.5643,-4.566,-4.5657,0.0,0.0,0.0,0.0,0.0,0.0,0.0,0.0,0.0,0.0,0.0,0.0,0.0,0.0,0.0,0.0,0.0,0.0,0.0,0.0,0.0,0.0,-2.9262,-2.9293,-2.9304,-2.9304,-2.9304,-2.9304,-2.9304,-2.9304,-2.9304,-2.9414,-2.9472,-2.9491,-3.0309,-3.0618,-3.0569,-3.056,-3.0528,-3.0416,-2.969,0.0,0.0,0.0,0.0,0.0,0.0,0.0,0.0,-3.4641,-3.4907,-3.4908,-3.4908,0.0,0.0,0.0,0.0,0.0,-3.5066,-3.5038,-3.5029,-3.5164,-3.5189,-3.5204,-3.527,-3.5281,-3.5352,-3.5534,-3.5688,-3.6285,0.0,-3.8303,0.0,0.0,0.0,0.0,0.0,0.0,0.0,0.0,0.0,0.0,0.0,0.0,0.0,0.0,0.0,0.0,0.0,0.0,0.0,0.0,-5.0921,-5.0956,-5.108,-5.106,-5.106,-5.106,-5.0998,-5.0848,-5.0601,-5.0585,0.0,0.0,0.0,0.0,-4.6861,-4.6665,-4.6157,-4.5467,-4.5467,-4.5495,-4.555,-4.555,-4.5558,-4.5554,0.0,0.0,0.0,0.0,0.0,0.0,0.0,0.0,0.0,0.0,0.0,0.0,0.0,0.0,0.0,0.0,0.0,0.0,0.0,0.0,0.0,-2.8881,-2.9079,-2.9241,-2.9293,-2.9304,-2.9304,-2.9304,-2.9304,-2.9304,-2.9304,-2.9314,-2.9324,-2.9343,-2.9475,-2.9549,-2.9539,-2.952,-2.951,-2.9518,-2.9425,0.0,0.0,0.0,0.0,0.0,0.0,0.0,0.0,-3.4859,-3.4907,-3.4908,-3.4908,0.0,0.0,0.0,0.0,0.0,-3.5001,-3.5011,-3.5038,-3.5168,-3.5193,-3.5201,-3.5198,-3.5262,-3.5319,-3.5417,-3.6061,-3.6929,-3.7932,-3.8762,-3.983,0.0,0.0,0.0,0.0,0.0,0.0,0.0,0.0,0.0,0.0,0.0,0.0,0.0,0.0,0.0,0.0,0.0,0.0,0.0,0.0,-5.0906,-5.0941,-5.0941,-5.0941,-5.0941,-5.0869,-5.0441,-4.971,-4.9642,-4.9143,0.0,0.0,-4.702,-4.6676,-4.5928,-4.5495,-4.5319,-4.5319,-4.5348,-4.5359,-4.5359,-4.5359,-4.536,0.0,0.0,0.0,0.0,0.0,0.0,0.0,0.0,0.0,0.0,0.0,0.0,0.0,0.0,0.0,0.0,0.0,0.0,0.0,0.0,-2.8749,-2.8749,-2.8857,-2.8984,-2.9075,-2.9086,-2.9086,-2.9086,-2.9127,-2.9104,-2.903,-2.9108,-2.9155,-2.9209,-2.9723,-2.9916,-2.9883,-3.0463,-3.0649,-3.0613,0.0,0.0,0.0,0.0,0.0,0.0,0.0,0.0,0.0,0.0,-3.4868,-3.4898,-3.4898,0.0,0.0,0.0,0.0,0.0,-3.4992,-3.5001,-3.5143,-3.5715,-3.5512,-3.5196,-3.5201,-3.5597,-3.5978,-3.6073,-3.681,-3.7852,0.0,0.0,0.0,0.0,0.0,0.0,0.0,0.0,0.0,0.0,0.0,0.0,0.0,0.0,0.0,0.0,0.0,0.0,0.0,0.0,0.0,0.0,0.0,0.0,-5.0138,-4.9633,-4.9633,-5.0138,-5.0104,-4.9611,-4.8692,-4.8664,-4.8164,-4.7319,0.0,-4.6397,-4.5956,-4.5533,-4.5329,-4.5307,-4.5307,-4.5307,-4.5307,-4.5307,-4.5307,-4.5288,0.0,0.0,0.0,0.0,0.0,0.0,0.0,0.0,0.0,0.0,0.0,0.0,0.0,0.0,0.0,0.0,0.0,0.0,0.0,-2.8675,-2.8657,-2.8619,-2.8619,-2.8694,-2.8858,-2.887,-2.887,-2.8839,-2.8905,-2.887,-2.8773,-2.9088,-2.9248,-2.9358,-3.0286,-3.0655,-3.0609,-3.1489,-3.1778,-3.1716,0.0,0.0,0.0,0.0,0.0,0.0,0.0,0.0,0.0,0.0,0.0,0.0,0.0,0.0,0.0,-3.4908,-3.4908,-3.4917,-3.4955,-3.4992,-3.521,-3.6147,-3.5935,-3.559,-3.5995,-3.6612,-3.719,-3.7506,-3.8105,0.0,0.0,0.0,0.0,0.0,0.0,0.0,0.0,0.0,0.0,0.0,0.0,0.0,0.0,0.0,0.0,0.0,0.0,0.0,0.0,0.0,0.0,0.0,0.0,0.0,-4.9166,-4.8459,-4.8468,-4.9166,-4.9167,-4.8634,-4.7692,-4.7661,-4.7181,-4.6376,-4.6265,-4.5903,-4.5361,-4.5319,-4.5307,-4.5307,-4.5307,-4.5307,-4.5307,-4.5307,-4.5307,-4.5307,0.0,0.0,0.0,0.0,0.0,0.0,0.0,0.0,0.0,0.0,0.0,0.0,0.0,0.0,0.0,0.0,0.0,0.0,0.0,-2.8574,-2.8549,-2.8437,-2.8419,-2.851,-2.8706,-2.8773,-2.8773,-2.8706,-2.8718,-2.8706,-2.8724,-2.9545,-2.9929,-2.9978,-3.0919,-3.1336,-3.1348,-3.1596,-3.1721,-3.1703,-3.1857,0.0,0.0,0.0,0.0,0.0,0.0,0.0,0.0,0.0,0.0,0.0,0.0,0.0,-3.4907,-3.4898,-3.4908,-3.4908,-3.4917,-3.4945,-3.5201,-3.6092,-3.6309,-3.6734,-3.8372,-3.8816,-3.9144,-3.9966,-4.0233,-4.0342,0.0,0.0,0.0,0.0,0.0,0.0,0.0,0.0,0.0,0.0,0.0,0.0,0.0,0.0,0.0,0.0,0.0,0.0,0.0,0.0,0.0,0.0,0.0,0.0,-4.821,-4.8124,-4.8124,-4.8201,-4.8145,-4.7644,-4.679,-4.6659,-4.6167,-4.5413,-4.5383,-4.5364,-4.5317,-4.5307,-4.5307,-4.5307,-4.5307,-4.5307,-4.5307,-4.5307,-4.5307,-4.5307,0.0,0.0,0.0,0.0,0.0,0.0,0.0,0.0,0.0,0.0,0.0,0.0,0.0,0.0,0.0,0.0,0.0,0.0,0.0,-2.8562,-2.8536,-2.8411,-2.8445,-2.8458,-2.844,-2.86,-2.8662,-2.8637,-2.8637,-2.8662,-2.8712,-2.9499,-2.988,-2.9935,-3.1336,-3.1946,-3.1942,-3.2648,-3.2967,-3.3005,-3.3056,-3.3413,0.0,0.0,0.0,0.0,0.0,0.0,0.0,0.0,-3.4727,-3.4758,-3.4827,-3.4848,-3.4848,-3.4849,-3.4878,-3.4898,-3.4898,-3.4917,-3.541,-3.7424,-3.7928,-3.8137,-3.884,-3.9841,-4.0691,-4.1062,-4.1604,-4.1976,0.0,0.0,0.0,0.0,0.0,0.0,0.0,0.0,0.0,0.0,0.0,0.0,0.0,0.0,0.0,0.0,0.0,0.0,0.0,0.0,0.0,0.0,0.0,0.0,0.0,-4.6656,-4.6348,-4.6367,-4.6915,-4.6722,-4.5828,-4.5776,-4.5583,-4.5307,-4.5307,-4.5307,-4.5307,-4.5307,-4.5307,-4.5297,-4.5246,-4.5256,-4.5297,-4.5246,-4.5256,-4.5307,0.0,0.0,0.0,0.0,0.0,0.0,0.0,0.0,0.0,0.0,0.0,0.0,0.0,0.0,0.0,0.0,0.0,0.0,-2.8458,-2.8484,-2.8445,-2.8345,-2.838,-2.8367,-2.8259,-2.8393,-2.8484,-2.8536,-2.8562,-2.8714,-2.8993,-2.9768,-3.0261,-3.0577,-3.2032,-3.266,-3.2682,-3.3419,-3.3766,-3.3788,-3.3815,-3.3972,0.0,0.0,0.0,0.0,0.0,0.0,0.0,0.0,-3.4666,-3.4676,-3.4747,-3.4768,-3.4768,-3.4788,-3.4819,-3.4868,-3.4887,-3.4898,-3.5467,-3.7851,-3.8861,-3.9433,-4.0024,-4.1275,-4.2383,-4.2699,-4.3015,-4.3178,-4.2929,0.0,0.0,0.0,0.0,0.0,0.0,0.0,0.0,0.0,0.0,0.0,0.0,0.0,0.0,0.0,0.0,0.0,0.0,0.0,0.0,0.0,0.0,0.0,0.0,-4.5585,-4.5286,-4.5307,-4.5963,-4.5915,-4.5307,-4.5307,-4.5307,-4.5307,-4.5307,-4.5297,-4.5275,-4.5297,-4.5307,-4.5297,-4.5254,-4.5265,-4.5297,-4.5254,-4.5265,-4.5307,0.0,0.0,0.0,0.0,0.0,0.0,0.0,0.0,0.0,0.0,0.0,0.0,0.0,0.0,0.0,0.0,0.0,0.0,-2.8313,-2.83,-2.8259,-2.8196,-2.8196,-2.8196,-2.8213,-2.8231,-2.8282,-2.8411,-2.8489,-2.8886,-2.9633,-3.0424,-3.1258,-3.2137,-3.3074,-3.3534,-3.3605,-3.3739,-3.3807,-3.3788,-3.3868,-3.3895,-3.3908,0.0,0.0,0.0,0.0,0.0,0.0,0.0,-3.4602,-3.4612,-3.4676,-3.4687,-3.4708,-3.4778,-3.4798,-3.4809,-3.4877,-3.4916,-3.5333,-3.709,-3.8831,-4.0566,-4.2312,-4.3384,-4.4255,-4.5125,-4.4609,-4.3777,-4.2966,0.0,0.0,0.0,0.0,0.0,0.0,0.0,0.0,0.0,0.0,0.0,0.0,0.0,0.0,0.0,0.0,0.0,0.0,0.0,0.0,0.0,0.0,0.0,0.0,-4.5192,-4.5224,-4.5307,-4.5307,-4.5307,-4.5307,-4.5307,-4.5307,-4.5297,-4.5297,-4.5265,-4.5203,-4.5275,-4.5307,-4.5307,-4.5307,-4.5307,-4.5307,-4.5307,-4.5307,-4.5307,0.0,0.0,0.0,0.0,0.0,0.0,0.0,0.0,0.0,0.0,0.0,0.0,0.0,0.0,0.0,0.0,0.0,0.0,-2.8237,-2.8273,-2.8259,-2.8196,-2.825,-2.85,-2.903,-2.9551,-2.9562,-2.9019,-2.9661,-3.0055,-3.0255,-3.1073,-3.1571,-3.187,-3.2747,-3.3196,-3.3253,-3.3298,-3.3426,-3.3675,-3.3633,-3.3766,-3.3972,0.0,0.0,0.0,0.0,0.0,0.0,0.0,0.0,0.0,-3.4612,-3.4634,-3.4634,-3.4655,-3.4737,-3.4798,-3.4819,-3.5313,-3.6234,-3.7992,-3.9694,-4.1398,-4.316,-4.4253,-4.4991,-4.525,-4.5055,-4.4595,-4.3796,0.0,0.0,0.0,0.0,0.0,0.0,0.0,0.0,0.0,0.0,0.0,0.0,0.0,0.0,0.0,0.0,0.0,0.0,0.0,0.0,0.0,0.0,0.0,0.0,0.0,-4.5224,-4.5307,-4.5246,-4.5246,-4.5307,-4.5307,-4.5256,-4.5224,-4.5224,-4.5213,-4.5203,-4.5275,-4.5307,-4.5297,-4.5254,-4.5265,-4.5297,-4.5254,-4.5265,-4.5297,0.0,0.0,0.0,0.0,0.0,0.0,0.0,0.0,0.0,0.0,-3.0926,-3.0654,0.0,0.0,0.0,0.0,0.0,0.0,0.0,-2.8237,-2.8362,-2.8585,-2.8687,-2.9062,-2.9745,-3.0513,-3.0625,-3.0052,-3.0365,-3.0659,-3.0953,-3.1402,-3.1809,-3.2161,-3.2719,-3.3011,-3.3101,-3.3165,-3.3301,-3.3506,-3.3452,-3.3549,-3.378,0.0,0.0,0.0,0.0,0.0,0.0,0.0,0.0,0.0,-3.4602,-3.4612,-3.4612,-3.4612,-3.49,-3.5235,-3.5237,-3.5914,-3.6961,-3.8357,-4.0,-4.1819,-4.3898,0.0,0.0,0.0,-4.5254,-4.5061,0.0,0.0,0.0,0.0,0.0,0.0,0.0,0.0,0.0,0.0,0.0,0.0,0.0,0.0,0.0,0.0,0.0,0.0,0.0,0.0,0.0,0.0,0.0,0.0,0.0,0.0,0.0,-4.5265,-4.5254,-4.5224,-4.5213,-4.5213,-4.5203,-4.5192,-4.517,-4.517,-4.5192,-4.5213,-4.5243,-4.5265,-4.5233,-4.5203,-4.5233,-4.517,-4.5181,-4.5213,0.0,0.0,0.0,0.0,0.0,0.0,0.0,0.0,0.0,0.0,-2.9537,-2.9212,0.0,0.0,0.0,0.0,0.0,0.0,0.0,-2.8271,-2.8528,-2.9278,-2.9508,-2.9852,-3.0409,-3.119,-3.1516,-3.1316,-3.0838,-3.0965,-3.1675,-3.1613,-3.2002,-3.2774,-3.282,-3.293,-3.3055,-3.3183,-3.3292,-3.3349,-3.3292,-3.3322,-3.3408,-3.3601,0.0,0.0,0.0,0.0,0.0,0.0,0.0,0.0,-3.4591,-3.4583,-3.4583,-3.4602,-3.5213,-3.5901,-3.5907,-3.6651,-3.7632,-3.8412,-3.9962,0.0,-4.4517,-4.5181,-4.5286,-4.5297,0.0,0.0,0.0,0.0,0.0,0.0,0.0,0.0,0.0,0.0,0.0,0.0,0.0,0.0,0.0,0.0,0.0,0.0,0.0,0.0,0.0,0.0,0.0,0.0,0.0,0.0,0.0,0.0,-4.5136,0.0,-4.5246,-4.5203,-4.5091,-4.5103,-4.5136,-4.517,-4.5114,-4.5125,-4.517,-4.5114,-4.5136,-4.5192,-4.5181,-4.5148,-4.5103,-4.5103,-4.5103,-4.5103,0.0,0.0,0.0,0.0,0.0,0.0,0.0,0.0,0.0,0.0,0.0,0.0,0.0,0.0,0.0,0.0,0.0,0.0,0.0,-2.8788,-2.8735,-3.0092,-3.078,-3.1175,-3.1243,-3.1986,-3.2326,-3.2209,-3.2101,-3.2101,-3.2227,-3.221,-3.2316,-3.2491,-3.2558,-3.264,-3.2721,-3.2737,-3.285,-3.3011,-3.3057,-3.3178,-3.3339,-3.3545,-3.3698,0.0,0.0,0.0,0.0,0.0,0.0,0.0,-3.4484,-3.4517,-3.4528,-3.4572,-3.526,-3.5972,-3.591,-3.7112,0.0,-3.8566,-4.0412,-4.2709,-4.4526,-4.5057,-4.5159,-4.5203,0.0,0.0,0.0,0.0,0.0,0.0,0.0,0.0,0.0,0.0,0.0,0.0,0.0,0.0,0.0,0.0,0.0,0.0,0.0,0.0,0.0,0.0,0.0,0.0,0.0,0.0,-4.5103,-4.5103,-4.5114,0.0,-4.5136,-4.5061,-4.4943,-4.5114,-4.5103,-4.4955,-4.4991,-4.4991,-4.4955,-4.501,-4.5068,-4.5125,-4.5049,-4.508,-4.5103,-4.5103,-4.5103,-4.5103,0.0,0.0,0.0,0.0,0.0,0.0,0.0,0.0,0.0,0.0,0.0,0.0,0.0,0.0,0.0,0.0,0.0,0.0,0.0,0.0,-2.9284,-3.0847,-3.1631,-3.2022,-3.2039,-3.2346,-3.2489,-3.2507,-3.2507,-3.2456,-3.2406,-3.244,-3.2422,-3.2388,-3.2489,-3.2556,-3.2588,-3.2673,-3.2771,-3.2936,-3.3277,-3.3333,-3.3214,-3.3747,-3.3804,-3.3633,-3.3766,0.0,0.0,0.0,0.0,0.0,0.0,0.0,-3.4517,-3.4572,-3.5238,-3.6023,-3.6385,-3.7491,0.0,-3.9551,0.0,-4.2781,-4.4054,-4.4725,-4.5103,0.0,0.0,0.0,0.0,0.0,0.0,0.0,0.0,0.0,0.0,0.0,0.0,0.0,0.0,0.0,0.0,0.0,0.0,0.0,0.0,0.0,0.0,0.0,0.0,0.0,0.0,0.0,-4.5103,-4.508,-4.508,-4.5103,-4.508,-4.4979,-4.4865,-4.4955,-4.4943,-4.4846,-4.4883,-4.4883,-4.4846,-4.4883,-4.4919,-4.4943,-4.4907,-4.4938,-4.4955,-4.4955,-4.4986,-4.4991,0.0,0.0,0.0,0.0,0.0,0.0,0.0,0.0,0.0,0.0,0.0,0.0,0.0,0.0,0.0,0.0,0.0,0.0,0.0,0.0,0.0,-3.1405,-3.2135,-3.2523,-3.2573,-3.2473,-3.244,-3.2507,-3.2507,-3.2456,-3.2406,-3.2473,-3.2473,-3.2422,-3.2523,-3.2556,-3.2573,-3.2691,-3.2756,-3.2857,-3.3416,-3.3358,-3.3003,-3.3727,-3.3725,-3.3349,-3.3516,-3.3657,-3.3793,-3.3895,0.0,0.0,0.0,0.0,-3.4473,-3.455,-3.5221,-3.6085,-3.6885,-3.7852,-3.9039,-4.0776,-4.1808,0.0,-4.367,-4.4493,-4.5057,0.0,0.0,0.0,0.0,0.0,0.0,0.0,0.0,0.0,0.0,0.0,0.0,0.0,0.0,0.0,0.0,0.0,0.0,0.0,0.0,0.0,0.0,0.0,0.0,0.0,0.0,-4.4967,-4.5091,-4.5022,-4.5003,-4.5049,-4.4998,-4.4883,-4.477,-4.4745,-4.4745,-4.4776,-4.4789,-4.4789,-4.4776,-4.4776,-4.4757,-4.477,-4.4757,-4.477,-4.4796,-4.4796,-4.4833,-4.4895,0.0,0.0,0.0,0.0,0.0,0.0,0.0,0.0,0.0,0.0,-3.0181,0.0,0.0,0.0,0.0,0.0,0.0,0.0,0.0,0.0,0.0,-3.1326,-3.2084,-3.2489,-3.2506,-3.2507,-3.249,-3.2507,-3.2507,-3.2456,-3.2406,-3.2473,-3.2507,-3.249,-3.244,-3.2422,-3.2422,-3.244,-3.2457,-3.2457,-3.2545,-3.2629,-3.2673,-3.2778,-3.2907,-3.306,-3.3088,-3.3313,-3.3633,-3.3661,-3.3815,0.0,0.0,0.0,-3.4281,-3.4461,-3.5169,-3.6088,-3.6885,0.0,-3.9943,0.0,-4.2169,-4.2721,0.0,0.0,0.0,0.0,0.0,0.0,0.0,0.0,0.0,0.0,0.0,0.0,0.0,0.0,0.0,0.0,0.0,0.0,0.0,0.0,0.0,0.0,0.0,0.0,0.0,0.0,-4.4998,-4.4998,-4.4998,-4.501,-4.5003,-4.4943,-4.4907,-4.4938,-4.4796,-4.4738,-4.4712,-4.4592,-4.4565,-4.4632,-4.4699,-4.4685,-4.4632,-4.4632,-4.4659,-4.4712,-4.4646,-4.4699,-4.4796,-4.4796,-4.4833,-4.4895,0.0,0.0,0.0,0.0,0.0,0.0,0.0,0.0,0.0,0.0,0.0,-2.9475,0.0,0.0,0.0,0.0,0.0,0.0,0.0,0.0,0.0,-3.1895,-3.2279,-3.2507,-3.2507,-3.2456,-3.244,-3.244,-3.2473,-3.2456,-3.2388,-3.2524,-3.2506,-3.2457,-3.249,-3.249,-3.2474,-3.2474,-3.2474,-3.2492,-3.2879,-3.2826,-3.261,-3.3102,-3.308,-3.2786,-3.29,-3.3057,-3.3223,-3.3298,-3.3473,-3.3712,-3.3947,0.0,0.0,0.0,-3.4832,-3.5458,-3.6753,-3.8355,-3.9939,0.0,-4.1863,-4.2573,-4.3788,0.0,0.0,0.0,0.0,0.0,0.0,0.0,0.0,0.0,0.0,0.0,0.0,0.0,0.0,0.0,0.0,0.0,0.0,0.0,0.0,0.0,0.0,0.0,0.0,-4.4919,-4.4943,-4.4943,-4.4907,0.0,-4.4931,-4.4833,-4.4757,-4.4719,-4.4712,-4.4659,-4.4578,-4.4584,-4.4565,-4.4592,-4.4592,-4.4592,-4.4592,-4.4592,-4.4619,-4.4646,-4.4605,-4.4632,-4.4699,-4.4699,-4.4738,-4.4802,0.0,0.0,0.0,0.0,0.0,0.0,0.0,0.0,0.0,0.0,0.0,0.0,0.0,0.0,0.0,0.0,0.0,0.0,0.0,0.0,0.0,-3.2371,-3.2457,-3.2473,-3.2473,-3.2388,-3.2371,-3.2406,-3.2422,-3.2422,-3.2388,-3.2489,-3.2507,-3.2423,-3.254,-3.2539,-3.2473,-3.249,-3.249,-3.2526,-3.302,-3.2914,-3.2561,-3.3194,-3.3069,-3.2589,-3.2755,-3.2852,0.0,0.0,0.0,0.0,0.0,0.0,0.0,0.0,0.0,-3.5064,0.0,0.0,-3.9214,-4.0327,-4.1085,-4.1907,0.0,0.0,0.0,0.0,0.0,0.0,0.0,0.0,0.0,0.0,0.0,0.0,0.0,0.0,0.0,0.0,0.0,0.0,0.0,0.0,0.0,0.0,0.0,0.0,-4.4895,-4.4895,-4.4883,-4.4889,-4.484,-4.4827,-4.4846,-4.4764,-4.4659,-4.4584,-4.4646,-4.4605,-4.4501,-4.4551,-4.4565,-4.4565,-4.451,-4.4528,-4.4565,-4.4565,-4.4565,-4.4565,-4.4565,-4.4578,-4.4592,-4.4592,-4.4646,-4.4712,0.0,0.0,0.0,0.0,0.0,0.0,0.0,0.0,0.0,0.0,0.0,0.0,-3.1019,-3.1019,-3.0756,-3.0088,-3.0053,0.0,0.0,0.0,0.0,-3.2371,-3.2388,0.0,-3.2423,-3.2284,-3.2267,-3.2406,-3.2284,-3.2284,-3.2406,-3.2423,-3.2423,-3.2423,-3.254,-3.2523,-3.2405,-3.2473,-3.2456,-3.2406,-3.2441,-3.2441,-3.2406,-3.2458,-3.2492,-3.2524,-3.2524,0.0,0.0,0.0,0.0,0.0,0.0,0.0,0.0,0.0,0.0,0.0,0.0,-3.6438,0.0,-3.9312,-3.9787,0.0,0.0,0.0,0.0,0.0,0.0,0.0,0.0,0.0,0.0,0.0,0.0,0.0,0.0,0.0,0.0,0.0,0.0,0.0,0.0,0.0,0.0,0.0,0.0,0.0,-4.4895,-4.4895,-4.4858,-4.4815,-4.4796,-4.4757,-4.4712,-4.4712,-4.4632,-4.4515,-4.4565,-4.4565,-4.4501,-4.4501,-4.4515,-4.4515,-4.4501,-4.4501,-4.4515,-4.4515,-4.4515,-4.4515,-4.4515,-4.4537,-4.4592,-4.4592,-4.4646,-4.4712,0.0,0.0,0.0,0.0,0.0,0.0,0.0,0.0,0.0,0.0,0.0,0.0,0.0,-3.0492,-3.058,-3.0791,-3.1282,0.0,0.0,0.0,0.0,-3.2388,-3.2406,-3.2354,-3.2267,-3.2214,-3.2161,-3.209,-3.2108,-3.2144,-3.2214,-3.2336,-3.2406,-3.2388,-3.2507,-3.2506,-3.2456,-3.249,-3.249,-3.2456,-3.2405,-3.2406,-3.2476,-3.3071,-3.3282,0.0,0.0,0.0,0.0,0.0,0.0,0.0,0.0,0.0,0.0,0.0,0.0,0.0,0.0,0.0,0.0,-3.8296,-3.9046,-3.9921,0.0,0.0,0.0,0.0,0.0,0.0,0.0,0.0,0.0,0.0,0.0,0.0,0.0,0.0,0.0,0.0,0.0,0.0,0.0,0.0,0.0,0.0,0.0,0.0,-4.4852,-4.4852,-4.4815,-4.4751,-4.468,-4.4646,-4.4565,-4.4565,-4.4556,-4.4501,-4.451,-4.451,-4.4501,-4.4501,-4.4501,-4.4501,-4.4501,-4.451,-4.4565,-4.4565,-4.4565,-4.4565,-4.4565,-4.4551,-4.4542,-4.4542,-4.4537,-4.4565,0.0,0.0,0.0,0.0,0.0,0.0,0.0,0.0,0.0,-3.0864,0.0,0.0,0.0,0.0,-3.0971,-3.1461,-3.2004,-3.2319,-3.2301,-3.2319,-3.2336,-3.2336,-3.2336,-3.2284,-3.2197,-3.2179,-3.2108,-3.1966,-3.2055,-3.2108,-3.2126,-3.2319,-3.2406,-3.2388,-3.2457,-3.2456,-3.2456,-3.249,-3.249,-3.2456,-3.2405,-3.2546,-3.2844,0.0,0.0,0.0,0.0,0.0,0.0,0.0,0.0,0.0,0.0,0.0,0.0,0.0,0.0,0.0,-3.4564,0.0,0.0,0.0,0.0,-3.84,0.0,0.0,0.0,0.0,0.0,0.0,0.0,0.0,0.0,0.0,0.0,0.0,0.0,0.0,0.0,0.0,0.0,0.0,0.0,0.0,0.0,0.0,0.0,0.0,-4.4776,-4.4802,-4.4745,-4.4672,-4.4605,-4.4556,-4.4501,-4.4501,-4.4501,-4.4501,-4.4501,-4.4501,-4.4501,-4.4501,-4.4501,-4.4501,-4.4501,-4.4528,-4.4565,-4.4565,-4.4565,-4.4565,-4.4565,-4.4542,-4.4473,-4.4473,-4.4458,-4.443,0.0,0.0,0.0,0.0,0.0,0.0,0.0,0.0,-3.2197,-3.2197,0.0,0.0,0.0,0.0,0.0,-3.209,-3.2161,-3.2161,-3.2108,-3.2161,-3.2179,-3.2179,0.0,0.0,-3.2161,-3.2126,-3.209,-3.2073,-3.2073,-3.2126,-3.2197,-3.2319,-3.2388,-3.2388,-3.2388,-3.2406,-3.2388,-3.2473,-3.2456,-3.2406,0.0,-3.288,-3.3546,0.0,0.0,0.0,-3.5205,-3.4995,0.0,0.0,0.0,0.0,0.0,0.0,0.0,0.0,0.0,0.0,0.0,0.0,0.0,0.0,0.0,0.0,0.0,0.0,0.0,0.0,0.0,0.0,0.0,0.0,0.0,0.0,0.0,0.0,0.0,0.0,0.0,0.0,0.0,0.0,0.0,0.0,0.0,0.0,0.0,-4.4757,-4.4699,-4.4745,-4.4738,-4.4592,-4.4542,-4.4501,-4.4501,-4.4501,-4.4501,-4.4501,-4.4501,-4.4501,-4.4501,-4.4501,-4.4501,-4.4501,-4.4501,-4.4501,-4.4501,-4.4501,-4.4501,-4.4501,-4.4501,-4.4473,-4.4397,-4.4397,-4.4358,-4.43,0.0,0.0,0.0,0.0,0.0,0.0,-3.2214,-3.2161,-3.2126,0.0,0.0,0.0,-3.209,-3.209,-3.209,-3.209,-3.2108,-3.2055,-3.1893,-3.2054,-3.2001,-3.1709,-3.2019,-3.1984,-3.1562,-3.182,-3.1857,-3.167,-3.1709,-3.182,-3.1984,-3.202,-3.2126,-3.2249,-3.2249,-3.2319,-3.2406,-3.2422,0.0,-3.2458,-3.2967,-3.3669,0.0,0.0,0.0,0.0,0.0,-3.7694,-3.6751,0.0,-3.6043,-3.4163,0.0,0.0,0.0,0.0,0.0,0.0,-3.3135,0.0,0.0,0.0,0.0,0.0,0.0,0.0,0.0,0.0,0.0,0.0,0.0,0.0,0.0,0.0,0.0,0.0,0.0,0.0,0.0,0.0,0.0,0.0,0.0,0.0,0.0,0.0,0.0,-4.4619,-4.4551,-4.4482,-4.4411,-4.4368,-4.4397,-4.4426,-4.4426,-4.4426,-4.444,-4.4501,-4.444,-4.444,-4.4501,-4.4501,-4.4501,-4.4501,-4.4501,-4.4501,-4.4501,-4.4501,-4.4501,-4.4501,-4.4458,-4.4411,-4.4397,-4.4358,-4.4314,-4.43,0.0,0.0,0.0,0.0,0.0,0.0,-3.2037,-3.2019,-3.2019,0.0,0.0,0.0,-3.1965,-3.1965,-3.1965,-3.1965,-3.2001,-3.1965,-3.1818,-3.1947,-3.1912,-3.1673,-3.193,-3.1875,-3.143,-3.173,-3.171,-3.1288,-3.1579,-3.1728,-3.1747,-3.1912,-3.2055,-3.2161,-3.2179,-3.2232,-3.2319,-3.2388,0.0,0.0,-3.3318,0.0,0.0,-3.6885,-3.7879,0.0,0.0,0.0,-3.8367,-3.8584,-3.7212,0.0,0.0,0.0,0.0,0.0,0.0,0.0,0.0,0.0,0.0,0.0,0.0,0.0,0.0,-3.6379,0.0,0.0,0.0,0.0,0.0,0.0,0.0,0.0,0.0,0.0,0.0,0.0,0.0,0.0,0.0,0.0,0.0,0.0,0.0,0.0,-4.4619,-4.4565,-4.4501,-4.4373,-4.43,-4.43,-4.4344,-4.4373,-4.4373,-4.4373,-4.4387,-4.4416,-4.4387,-4.4383,-4.4473,-4.4473,-4.4468,-4.4501,-4.4501,-4.4487,-4.4473,-4.4473,-4.4468,-4.4501,-4.4426,-4.4383,-4.4358,-4.427,-4.4226,-4.4177,0.0,0.0,0.0,0.0,0.0,0.0,-3.1818,-3.1839,-3.1875,0.0,-3.18,-3.18,-3.18,-3.18,-3.18,-3.18,-3.1839,-3.1857,-3.1781,-3.182,-3.1839,-3.1785,-3.1821,-3.1711,-3.1485,-3.1674,-3.1524,-3.0935,-3.1524,-3.1691,-3.1483,-3.1857,-3.2055,-3.2073,-3.2144,0.0,-3.2197,0.0,0.0,-3.3775,-3.3757,-3.5235,0.0,0.0,-3.9014,0.0,-4.0275,-4.0008,-3.9793,-3.8913,-3.7575,0.0,0.0,0.0,0.0,0.0,-3.273,0.0,0.0,0.0,0.0,0.0,0.0,0.0,-3.4429,-3.5374,0.0,0.0,0.0,0.0,0.0,0.0,0.0,0.0,0.0,0.0,0.0,0.0,0.0,0.0,0.0,0.0,0.0,0.0,0.0,-4.4226,-4.4377,-4.4392,-4.4323,-4.4288,-4.427,-4.427,-4.4285,-4.4285,-4.4285,-4.4285,-4.4285,-4.43,-4.4285,-4.4329,-4.4383,-4.4383,-4.4411,-4.4487,-4.4487,-4.4426,-4.4383,-4.4368,-4.4397,-4.444,-4.4368,-4.431,-4.4255,-4.4184,-4.4089,-4.4005,0.0,0.0,0.0,0.0,0.0,0.0,0.0,-3.1818,-3.1801,-3.18,-3.18,-3.18,-3.18,-3.18,-3.18,-3.18,-3.1801,-3.1744,-3.1574,-3.1557,-3.1443,-3.1114,-3.1312,-3.1159,-3.0651,-3.0978,-3.0978,-3.0609,-3.0978,-3.1213,-3.1269,-3.156,-3.1764,-3.1873,-3.2037,-3.2144,0.0,0.0,0.0,-3.5336,-3.5354,0.0,-3.9121,-3.982,-4.0394,-4.0917,-4.1581,-4.137,-4.0631,0.0,-3.8766,-3.7718,0.0,0.0,0.0,0.0,0.0,0.0,0.0,0.0,0.0,0.0,0.0,0.0,-3.3221,-3.4449,0.0,0.0,0.0,0.0,0.0,0.0,0.0,0.0,0.0,0.0,0.0,0.0,0.0,0.0,0.0,0.0,0.0,0.0,-4.2132,-4.242,-4.2927,-4.3229,-4.3214,-4.3759,-4.4051,-4.4051,-4.4165,-4.4214,-4.4214,-4.4214,-4.4259,-4.43,-4.4244,-4.424,-4.4314,-4.4314,-4.4329,-4.4344,-4.4344,-4.4329,-4.4314,-4.4185,-4.417,-4.417,-4.4036,-4.4023,-4.4036,-4.3915,-4.3931,-4.4005,0.0,0.0,0.0,0.0,0.0,0.0,0.0,-3.1746,-3.1781,-3.1709,-3.1746,-3.18,-3.18,-3.18,-3.18,-3.18,-3.18,-3.1763,-3.1668,-3.1555,-3.1443,-3.1349,-3.1291,-3.1075,-3.0712,-3.0895,-3.0736,-3.0253,-3.0814,-3.0975,-3.076,-3.131,-3.1783,-3.2202,-3.2409,-3.2764,0.0,0.0,-3.4524,-3.6217,-3.5912,0.0,-4.0087,-4.0538,-4.099,-4.146,-4.1955,-4.1827,-4.1283,-4.0385,-3.9852,0.0,0.0,-3.6239,-3.5712,0.0,-3.3952,-3.353,0.0,0.0,0.0,-3.2589,0.0,0.0,0.0,-3.4197,-3.5475,0.0,0.0,0.0,0.0,0.0,0.0,0.0,0.0,0.0,0.0,0.0,0.0,0.0,0.0,0.0,0.0,0.0,-4.1357,-4.18,-4.2132,-4.2298,-4.2298,-4.2991,-4.3392,-4.3392,-4.3865,-4.4104,-4.4104,-4.4104,-4.4116,-4.4147,-4.4135,-4.415,-4.4259,-4.4259,-4.4274,-4.43,-4.43,-4.427,-4.424,-4.4177,-4.4082,-4.3989,-4.3862,-4.3812,-4.3828,-4.3701,-4.3701,-4.3765,-3.18,0.0,0.0,0.0,0.0,0.0,0.0,0.0,-3.1797,-3.1842,-3.1934,-3.2076,-3.2231,-3.2369,-3.2403,-3.2248,-3.2369,-3.2317,-3.2024,0.0,0.0,-3.1651,-3.131,-3.1052,-3.0814,-3.0834,-3.0634,-3.0163,-3.0887,-3.1041,-3.07,-3.1496,-3.2193,-3.2778,-3.3033,-3.355,0.0,0.0,0.0,-3.667,0.0,-3.7905,-4.0405,-4.0542,-4.1086,-4.1793,-4.1952,-4.1817,-4.1505,-4.0828,0.0,-4.0052,-3.8063,-3.7418,0.0,0.0,0.0,0.0,0.0,0.0,0.0,0.0,0.0,-3.2817,0.0,0.0,0.0,-3.5238,0.0,0.0,0.0,0.0,0.0,0.0,0.0,0.0,0.0,0.0,0.0,0.0,0.0,0.0,0.0,0.0,-4.0578,-4.1204,-4.1324,-4.1374,-4.1374,-4.218,-4.2687,-4.2752,-4.355,-4.3974,-4.4005,-4.4005,-4.4005,-4.4005,-4.4005,-4.4039,-4.4123,-4.4123,-4.4119,-4.4147,-4.4147,-4.4119,-4.4058,-4.4042,-4.3929,-4.3783,-4.3697,-4.3662,-4.3662,-4.3496,-4.348,-4.3532,-3.18,-3.18,0.0,0.0,0.0,0.0,0.0,0.0,-3.2041,-3.2678,-3.2764,-3.3041,-3.3768,-3.4404,0.0,-3.3906,0.0,0.0,-3.2869,0.0,-3.2066,-3.1128,0.0,0.0,-3.0124,-3.0231,-3.0473,-3.0814,-3.1133,-3.1555,-3.2079,-3.284,-3.3224,0.0,-3.3825,0.0,0.0,0.0,-3.5881,0.0,-3.7469,-3.8512,0.0,-4.0352,-4.0732,-4.1014,-4.174,-4.1545,-4.0887,0.0,-4.0203,-3.9628,0.0,-3.8649,0.0,0.0,0.0,0.0,0.0,0.0,0.0,0.0,-3.3495,0.0,0.0,0.0,-3.4001,-3.4001,0.0,-3.533,-3.533,0.0,0.0,0.0,0.0,0.0,0.0,0.0,0.0,0.0,0.0,0.0,0.0,0.0,0.0,-3.9242,-3.9834,-4.0194,-4.0194,-4.1473,-4.2316,-4.2614,-4.3393,-4.3883,-4.4005,-4.4005,-4.4005,-4.4005,-4.4005,-4.3945,-4.3853,-4.3853,-4.3753,-4.3582,-4.3582,-4.36,-4.3565,-4.3461,-4.339,-4.3373,-4.3479,-4.3565,-4.358,-4.3322,-4.3358,-4.3496,-3.1954,-3.18,-3.18,0.0,0.0,0.0,0.0,0.0,-3.2714,-3.349,-3.3517,-3.3599,0.0,0.0,0.0,0.0,0.0,-3.5476,0.0,0.0,-3.3549,0.0,0.0,0.0,0.0,-3.1589,-3.1559,-3.1635,-3.187,-3.204,-3.2143,-3.2735,-3.3233,0.0,-3.4143,0.0,-3.5797,0.0,-3.7147,0.0,0.0,0.0,0.0,-4.0229,-4.0834,-4.1317,-4.163,-4.1282,-4.0683,0.0,-4.0736,0.0,0.0,0.0,0.0,0.0,0.0,0.0,0.0,0.0,0.0,0.0,0.0,0.0,0.0,0.0,-3.4253,0.0,0.0,0.0,0.0,0.0,0.0,0.0,0.0,0.0,0.0,0.0,0.0,0.0,0.0,0.0,0.0,0.0,0.0,0.0,0.0,-3.9132,-3.9132,-4.0217,-4.1077,-4.1601,-4.2391,-4.3068,-4.3595,-4.3595,-4.3595,-4.3595,-4.3595,-4.3615,-4.3617,-4.3549,-4.3496,-4.3515,-4.3515,-4.3515,-4.3497,-4.3444,-4.3374,-4.3285,-4.3232,-4.325,-4.3286,-4.305,-4.3012,-4.3105,-3.2609,-3.2421,0.0,0.0,0.0,0.0,0.0,0.0,0.0,0.0,0.0,0.0,-3.4442,-3.5253,0.0,0.0,-3.653,-3.693,0.0,0.0,-3.5021,0.0,0.0,0.0,0.0,0.0,0.0,-3.2523,-3.2653,-3.2658,-3.2626,-3.3034,-3.3522,0.0,0.0,-3.5496,-3.665,0.0,0.0,-3.8346,-3.8816,-3.9176,-3.9524,-4.0231,-4.0955,-4.1604,-4.1604,-4.113,-4.0573,-4.1113,-4.0985,0.0,-4.0574,0.0,0.0,0.0,0.0,0.0,-3.6816,0.0,0.0,0.0,0.0,0.0,0.0,0.0,0.0,0.0,0.0,0.0,0.0,0.0,-3.274,0.0,0.0,0.0,0.0,0.0,0.0,0.0,0.0,0.0,0.0,0.0,0.0,0.0,-3.7823,0.0,-3.8348,-3.9183,-3.9986,-4.0769,-4.1572,-4.2392,-4.3249,-4.3285,-4.3285,-4.3286,-4.3339,-4.3356,-4.3375,-4.3303,-4.3303,-4.3339,-4.3339,-4.3339,-4.3339,-4.3322,-4.325,-4.3142,-4.2957,-4.2919,-4.2936,-4.2841,-4.2822,-4.2823,-3.4044,-3.4027,0.0,0.0,0.0,0.0,0.0,0.0,0.0,0.0,0.0,0.0,0.0,0.0,0.0,0.0,0.0,-3.8883,-3.7194,0.0,-3.6118,0.0,0.0,-3.3538,0.0,0.0,0.0,0.0,0.0,-3.3535,-3.4235,-3.4504,-3.4642,-3.4706,-3.5419,-3.5788,-3.5912,-3.7016,-3.753,-3.7599,-3.8468,-3.9395,-4.0294,0.0,-4.0955,-4.1604,-4.1604,0.0,0.0,-4.0537,-4.0567,0.0,0.0,0.0,0.0,0.0,0.0,0.0,0.0,0.0,0.0,-3.7304,0.0,0.0,0.0,0.0,-3.3706,0.0,0.0,0.0,0.0,-3.2591,-3.2639,-3.2773,0.0,0.0,0.0,0.0,0.0,0.0,0.0,0.0,0.0,0.0,0.0,0.0,-3.6911,0.0,-3.7982,-3.86,-3.9427,-4.0473,-4.1289,-4.2178,-4.3196,-4.3268,-4.3268,-4.3214,-4.3392,-4.3339,-4.3014,-4.3142,-4.3105,-4.292,-4.292,-4.292,-4.2901,-4.2842,-4.2822,-4.2803,-4.2668,-4.2609,-4.2629,-4.2745,-4.2842,-4.29,0.0,0.0,0.0,0.0,0.0,0.0,0.0,-3.4719,0.0,0.0,0.0,0.0,0.0,0.0,-3.8431,0.0,0.0,-3.987,-3.9375,-3.8714,0.0,0.0,0.0,-3.5845,0.0,0.0,0.0,0.0,0.0,0.0,-3.43,-3.43,-3.43,0.0,0.0,-3.5572,0.0,0.0,0.0,0.0,0.0,-3.9405,-3.9943,0.0,0.0,-4.1471,-4.1471,-4.0936,0.0,-4.0799,-4.0714,-4.0508,-4.1038,-4.0928,-4.0528,-4.057,-4.0067,0.0,0.0,0.0,-3.8239,-3.7992,0.0,0.0,0.0,0.0,0.0,0.0,0.0,0.0,0.0,0.0,-3.2606,-3.2608,-3.2739,0.0,0.0,0.0,0.0,0.0,0.0,0.0,0.0,0.0,0.0,-3.527,-3.6151,-3.6786,0.0,-3.781,-3.86,-3.9427,-4.0218,-4.1065,-4.1933,-4.2476,-4.2785,-4.2805,-4.2862,-4.2901,-4.292,-4.2749,-4.2689,-4.2689,-4.2552,-4.2492,-4.2492,-4.247,-4.2409,-4.2331,-4.2389,-4.2409,-4.2409,-4.2546,-4.2625,-4.2627,-3.591,0.0,0.0,0.0,0.0,0.0,0.0,0.0,0.0,0.0,-3.6608,0.0,-3.7797,0.0,-3.93,0.0,-4.0794,-4.1069,-4.0846,-4.012,0.0,-3.8623,-3.8037,0.0,0.0,0.0,0.0,0.0,0.0,-3.4448,-3.4374,0.0,0.0,0.0,0.0,-3.5314,-3.6078,0.0,-3.757,0.0,0.0,-3.9336,0.0,0.0,-4.0366,-4.0752,0.0,-4.0689,-4.0291,-4.0758,-4.0672,-4.0429,-4.1007,-4.0856,-4.0478,-4.0572,-4.0351,-4.0112,-4.0155,-3.9658,0.0,0.0,-3.8357,0.0,-3.7023,0.0,0.0,0.0,0.0,0.0,0.0,0.0,0.0,-3.254,-3.269,-3.2804,0.0,-3.2868,0.0,0.0,0.0,0.0,0.0,0.0,-3.3936,-3.4271,-3.5427,-3.6093,0.0,0.0,-3.799,-3.8419,-3.9474,-4.0422,-4.1228,-4.2072,-4.2506,-4.249,-4.253,-4.2591,-4.2689,-4.2492,-4.2432,-4.249,-4.243,-4.2369,-4.2308,-4.2308,-4.2225,-4.2103,-4.2163,-4.2202,-4.2222,-4.2405,-4.2503,-4.2503,0.0,0.0,0.0,0.0,-3.6335,0.0,0.0,0.0,-3.7104,0.0,-3.757,-3.8244,-3.9046,-3.9881,-4.0645,-4.1401,-4.2193,0.0,-4.1469,-4.1186,0.0,0.0,-3.8441,-3.7632,-3.6141,0.0,0.0,0.0,0.0,0.0,0.0,0.0,0.0,0.0,-3.4691,0.0,-3.5402,-3.5761,-3.6718,-3.7994,-3.9026,-3.9109,-3.8689,-3.9412,0.0,-3.951,-4.0151,-4.0375,-4.0375,-4.0375,-4.0375,-4.0417,-4.0417,-4.04,-4.0441,-4.0538,-4.0866,-4.1192,-4.1328,-4.0964,-4.0492,-4.0259,0.0,0.0,0.0,0.0,-3.7979,0.0,0.0,0.0,0.0,0.0,0.0,-3.2573,-3.2606,-3.2672,-3.2868,0.0,0.0,0.0,0.0,0.0,0.0,-3.29,-3.3221,-3.399,-3.474,-3.5151,0.0,0.0,0.0,-3.7541,-3.904,-4.0216,-4.1038,-4.1996,-4.2425,-4.2308,-4.2371,-4.2371,-4.2308,-4.2351,-4.2331,-4.2287,-4.247,-4.245,-4.2267,-4.2267,-4.2187,-4.2061,-4.2009,-4.1984,-4.2048,-4.2361,-4.2483,-4.2483,-3.5412,-3.5684,-3.5927,0.0,-3.6672,-3.7006,0.0,0.0,0.0,0.0,-3.8775,-3.938,-4.0771,-4.1145,-4.1562,-4.2313,-4.2396,0.0,0.0,0.0,0.0,-3.9644,-3.9785,-3.9159,-3.751,-3.7494,0.0,-3.5727,0.0,0.0,-3.4497,0.0,0.0,0.0,0.0,0.0,-3.4906,-3.5095,-3.5746,-3.6714,-3.7226,-3.7465,0.0,0.0,-3.82,-3.8479,-3.9657,-4.0062,-4.0045,-4.0129,-4.0246,-4.0337,-4.0337,-4.036,-4.04,-4.0424,-4.0611,-4.0784,-4.0919,-4.0452,-3.9926,-3.9966,-3.9309,-3.8666,0.0,0.0,0.0,0.0,0.0,0.0,0.0,0.0,0.0,0.0,-3.2556,0.0,0.0,0.0,0.0,0.0,0.0,0.0,-3.29,-3.29,-3.2989,-3.3203,-3.3937,-3.4366,0.0,0.0,0.0,-3.6684,-3.8255,-3.9431,-4.0198,-4.1629,-4.2328,-4.2308,-4.2328,-4.2328,-4.2287,-4.2124,-4.2019,-4.1998,-4.1892,-4.1845,-4.178,-4.178,-4.1758,-4.1736,-4.1819,-4.1923,-4.2026,-4.216,-4.2205,-4.2225,-3.5065,0.0,0.0,-3.5822,0.0,0.0,-3.7064,0.0,0.0,-3.954,-4.0187,0.0,-4.226,-4.2379,-4.2632,-4.3271,-4.3175,0.0,0.0,0.0,0.0,-4.0609,-4.0359,-3.9611,-3.8291,-3.8001,0.0,-3.5678,0.0,0.0,-3.4399,0.0,0.0,0.0,0.0,-3.4472,0.0,-3.5117,-3.5712,-3.6489,-3.6813,0.0,0.0,-3.772,-3.7981,-3.8221,-3.9083,-3.9408,-3.9425,-3.9582,-3.9661,-3.9738,-3.9833,-3.9893,-3.9935,-3.9986,-4.0137,-4.0311,-4.0458,-4.0295,-4.0081,-4.0004,-3.963,-3.9299,-3.9299,-3.9299,-3.9369,0.0,0.0,0.0,0.0,0.0,0.0,0.0,0.0,0.0,0.0,0.0,0.0,0.0,0.0,0.0,-3.2889,-3.287,-3.282,-3.277,-3.35,-3.382,0.0,0.0,0.0,-3.5829,-3.8057,-3.9467,-3.9895,-4.1444,-4.2207,-4.2225,-4.2121,-4.2079,-4.2079,-4.1931,-4.1827,-4.1762,-4.1758,-4.171,-4.1604,-4.167,-4.1648,-4.1604,-4.1692,-4.1754,-4.1858,-4.1931,-4.2019,-4.2124,0.0,0.0,0.0,0.0,0.0,0.0,0.0,-3.8523,0.0,-4.0434,0.0,-4.2726,-4.3487,-4.3572,-4.3732,-4.4133,0.0,-4.3784,-4.287,-4.2605,-4.2162,-4.1453,-4.0611,-3.9719,-3.8751,-3.8221,0.0,0.0,0.0,0.0,0.0,0.0,0.0,0.0,0.0,0.0,0.0,-3.5383,-3.599,0.0,-3.7118,-3.7295,-3.7376,-3.8116,-3.8391,-3.8436,-3.8532,-3.8655,-3.8805,-3.8942,-3.8969,-3.8996,-3.9191,-3.9245,-3.9272,-3.9405,-3.9616,-3.9833,-3.9969,-4.0229,-4.0385,-4.0121,-4.0138,-4.0213,-4.0213,-4.0213,-4.033,-4.068,-3.96,0.0,0.0,0.0,0.0,0.0,0.0,0.0,0.0,0.0,0.0,0.0,0.0,0.0,0.0,-3.2897,-3.2792,-3.2797,-3.3435,0.0,0.0,0.0,0.0,0.0,-3.8181,0.0,-3.9875,0.0,-4.21,-4.2082,-4.1888,-4.178,-4.178,-4.178,-4.1714,-4.1604,-4.1858,-4.1815,-4.1604,-4.1714,-4.1714,-4.1604,-4.1604,-4.1604,-4.1626,-4.1736,-4.1909,-4.2082,0.0,0.0,0.0,0.0,0.0,-3.7926,-3.9335,-4.0299,-4.1331,-4.2658,-4.3064,0.0,-4.4282,-4.4395,-4.4434,-4.4514,-4.4514,0.0,0.0,0.0,0.0,-4.1632,-4.1499,-4.0831,-3.9561,-3.9381,-3.8406,0.0,0.0,0.0,0.0,0.0,0.0,0.0,0.0,0.0,-3.4299,-3.4989,0.0,-3.5607,-3.6816,-3.7295,-3.7376,-3.8116,-3.8391,-3.8391,-3.8436,-3.8504,-3.8672,-3.8777,-3.8832,-3.8832,-3.8887,-3.8969,-3.905,-3.9094,-3.9228,-3.9432,-3.9563,-3.9642,-3.972,-3.9755,-3.9781,-3.9807,-3.9807,-3.9807,-3.9858,-4.0054,-3.95,-3.8632,-3.7438,0.0,0.0,0.0,0.0,0.0,0.0,0.0,0.0,0.0,0.0,0.0,0.0,0.0,0.0,0.0,0.0,0.0,0.0,0.0,0.0,0.0,0.0,0.0,0.0,0.0,0.0,-4.2009,-4.1862,-4.1736,-4.1626,-4.1626,-4.1626,-4.1604,-4.1648,-4.1648,-4.1604,-4.1626,-4.1626,-4.1604,-4.1604,-4.1604,-4.1626,-4.1736,-4.1823,-4.1866,0.0,0.0,0.0,0.0,0.0,0.0,0.0,-4.1538,0.0,-4.3308,-4.3775,-4.4164,-4.4564,-4.4615,-4.4514,-4.4372,-4.4184,-4.386,-4.3369,-4.3174,-4.2796,-4.2132,-4.1868,0.0,-4.003,-3.9729,-3.8537,-3.6334,0.0,0.0,0.0,0.0,0.0,0.0,0.0,-3.4767,0.0,0.0,0.0,-3.6886,-3.7193,-3.7522,-3.7922,-3.8262,-3.8391,-3.8391,-3.8391,-3.842,-3.8504,-3.8655,-3.8683,-3.8711,-3.8777,-3.886,-3.8914,-3.8969,-3.9067,-3.9175,-3.9352,-3.9448,-3.9501,-3.9484,-3.9547,-3.959,-3.959,-3.959,-3.9642,-3.9755,-3.9598,-3.9023,-3.7806,-3.6103,0.0,0.0,0.0,0.0,0.0,0.0,0.0,0.0,0.0,0.0,0.0,0.0,0.0,0.0,0.0,0.0,0.0,0.0,0.0,0.0,0.0,0.0,0.0,0.0,0.0,-4.1884,-4.1758,-4.1648,-4.1604,-4.1604,-4.1604,-4.1604,-4.1604,-4.1604,-4.1604,-4.1604,-4.1604,-4.1604,-4.1604,-4.1604,-4.1604,-4.167,-4.1692,-4.1732,0.0,-3.6999,0.0,0.0,-3.8665,0.0,0.0,-4.236,-4.3305,-4.3612,-4.4198,-4.457,-4.4485,-4.4485,-4.4372,-4.4023,-4.3743,-4.3459,-4.3127,-4.2836,-4.2649,-4.2602,-4.2099,-4.1407,-4.0591,-4.0,-3.8658,0.0,0.0,0.0,0.0,0.0,0.0,0.0,0.0,0.0,0.0,0.0,-3.661,-3.8132,-3.7684,-3.789,-3.8391,-3.8391,-3.8391,-3.8391,-3.8391,-3.8391,-3.8436,-3.8504,-3.856,-3.856,-3.8683,-3.8722,-3.8777,-3.886,-3.8958,-3.8996,-3.9175,-3.9325,-3.9379,-3.9325,-3.9379,-3.9475,-3.9475,-3.9475,-3.9501,-3.9642,-3.956,-3.9219,-3.836,-3.7108,0.0,0.0,0.0,0.0,0.0,0.0,0.0,0.0,0.0,0.0,0.0,0.0,0.0,0.0,0.0,0.0,0.0,0.0,0.0,0.0,0.0,0.0,-4.0704,0.0,-4.1797,0.0,-4.1648,-4.1582,-4.1515,-4.1582,-4.1582,-4.156,-4.1582,-4.1604,-4.1604,-4.1604,-4.1604,-4.1604,-4.1604,-4.1604,-4.1604,-4.1604,-4.1604,-4.1626,0.0,0.0,0.0,0.0,0.0,0.0,0.0,-4.2665,-4.3039,-4.4328,-4.4564,-4.4485,-4.4184,-4.4143,-4.3993,-4.3684,-4.3608,-4.3459,-4.3127,-4.3082,-4.2929,-4.2602,-4.2538,-4.2166,-4.1484,-4.0772,-3.9612,0.0,0.0,0.0,0.0,0.0,0.0,0.0,0.0,0.0,0.0,-3.6891,-3.7214,-3.7441,-3.8068,-3.8343,-3.8391,-3.8391,-3.8391,-3.8391,-3.8391,-3.8391,-3.8391,-3.8391,-3.842,-3.842,-3.842,-3.8504,-3.8616,-3.8616,-3.8711,-3.886,-3.8996,-3.9023,-3.9094,-3.9272,-3.9299,-3.9325,-3.9325,-3.9325,-3.9352,-3.9501,-3.9098,-3.8732,-3.8788,-3.7918,-3.7225,0.0,0.0,0.0,0.0,0.0,0.0,0.0,0.0,0.0,0.0,0.0,0.0,0.0,0.0,0.0,0.0,0.0,0.0,-3.7991,0.0,-3.9867,-4.0436,-4.1331,0.0,-4.1626,-4.1604,-4.1475,-4.1255,-4.1475,-4.1538,-4.1426,-4.1538,-4.1604,-4.1604,-4.1604,-4.1604,-4.1604,-4.1604,-4.1604,-4.1604,-4.1604,-4.1604,-4.1604,0.0,0.0,0.0,0.0,0.0,0.0,0.0,-4.2853,-4.3352,-4.3914,-4.4006,-4.3948,-4.3802,-4.3802,-4.3743,-4.3608,-4.3429,-4.3248,-4.3113,-4.2929,-4.2743,-4.2602,-4.2508,-4.2138,-4.1428,-4.1045,-3.9925,0.0,0.0,0.0,0.0,0.0,0.0,0.0,0.0,-3.6481,-3.7549,-3.736,-3.7566,-3.8003,-3.8278,-3.8391,-3.8391,-3.8391,-3.8391,-3.8391,-3.8391,-3.8391,-3.8391,-3.8391,-3.8391,-3.8391,-3.8391,-3.842,-3.8492,-3.8576,-3.8644,-3.8711,-3.8832,-3.8887,-3.8914,-3.9094,-3.9067,-3.9013,-3.9094,-3.9067,-3.9013,-3.9067,-3.8943,-3.8781,-3.8631,-3.8178,-3.7635,0.0,0.0,0.0,0.0,0.0,0.0,0.0,0.0,0.0,0.0,0.0,0.0,0.0,0.0,0.0,0.0,0.0,0.0,-3.7826,0.0,-3.9845,-4.1003,-4.138,-4.1538,-4.1493,-4.1408,-4.13,-4.1192,-4.13,-4.134,-4.1295,-4.1515,-4.156,-4.1493,-4.156,-4.1604,-4.1604,-4.1604,-4.1604,-4.1604,-4.1604,-4.1604,-4.1604,-4.1128,0.0,-4.1142,0.0,-4.1822,-4.2272,-4.2376,-4.2906,-4.3309,-4.3309,-4.3309,-4.3339,-4.3429,-4.3459,-4.3399,-4.3309,-4.3035,-4.2881,-4.2881,-4.2649,-4.2539,-4.2539,-4.2445,0.0,-4.1625,-4.1292,-4.0335,-3.8756,-3.7684,0.0,0.0,0.0,0.0,0.0,-3.6567,-3.7219,-3.8375,-3.7857,-3.7938,-3.8391,-3.8391,-3.8391,-3.8391,-3.8391,-3.8391,-3.8391,-3.8391,-3.8391,-3.8391,-3.8391,-3.8391,-3.8391,-3.8391,-3.8391,-3.842,-3.8504,-3.8532,-3.856,-3.8711,-3.8738,-3.8777,-3.8914,-3.8887,-3.8832,-3.8914,-3.886,-3.8805,-3.8805,-3.8887,-3.8848,-3.8576,-3.8441,-3.8074,0.0,0.0,0.0,0.0,0.0,0.0,0.0,0.0,-3.3,-3.2034,0.0,0.0,0.0,0.0,0.0,0.0,0.0,0.0,0.0,0.0,0.0,0.0,-4.1249,-4.1318,-4.1403,-4.134,-4.1272,-4.1157,-4.1157,-4.1163,-4.1209,-4.1408,-4.1453,-4.1403,-4.1493,-4.156,-4.1604,-4.1604,-4.1604,-4.1604,-4.1604,-4.1604,-4.1604,-4.257,-4.257,-4.2695,-4.3019,-4.282,-4.2711,-4.3035,-4.2836,-4.2602,-4.2602,-4.2602,-4.2743,-4.3082,-4.3113,-4.299,-4.2618,-4.2476,-4.2413,-4.2413,-4.2413,-4.2413,0.0,0.0,-4.2413,-4.2397,-4.1548,-4.0991,-4.0753,0.0,0.0,-3.7637,0.0,-3.6641,-3.8144,-3.7408,-3.7572,-3.8391,-3.8391,-3.8391,-3.8391,-3.8391,-3.8391,-3.8391,-3.8391,-3.8391,-3.8391,-3.8391,-3.8391,-3.8391,-3.8391,-3.8391,-3.8391,-3.8391,-3.8391,-3.8391,-3.8391,-3.8391,-3.842,-3.8576,-3.8588,-3.8644,-3.8777,-3.8805,-3.8805,-3.8805,-3.8805,-3.8805,-3.8805,-3.8805,-3.8805,-3.8788,-3.8788,-3.8788,-3.8772,0.0,0.0,0.0,0.0,0.0,0.0,-3.448,-3.3891,-3.2449,0.0,0.0,0.0,0.0,0.0,0.0,0.0,0.0,-3.7965,-3.8836,0.0,-4.0802,-4.0937,-4.1157,-4.1403,-4.1538,-4.142,-4.1093,-4.1093,-4.1146,-4.1209,-4.1192,-4.1295,-4.1403,-4.1403,-4.1493,-4.1604,-4.1604,-4.1604,-4.1604,-4.1604,-4.1604,-4.1604,-4.2602,-4.2602,-4.2634,-4.2743,-4.2665,-4.2634,-4.2743,-4.2602,-4.2476,-4.2476,-4.2333,-4.2365,-4.2602,-4.2711,-4.2711,0.0,-4.2476,-4.2413,0.0,-4.227,-4.2206,-4.2206,-4.2109,-4.2061,-4.2061,-4.166,-4.1181,-4.0673,0.0,0.0,0.0,-3.7239,-3.7358,-3.7876,-3.7853,-3.8012,-3.8266,-3.8379,-3.8391,-3.8391,-3.8391,-3.8391,-3.8391,-3.8391,-3.8391,-3.8391,-3.8391,-3.8391,-3.8391,-3.8391,-3.8391,-3.8391,-3.8391,-3.8391,-3.8391,-3.8391,-3.8391,-3.8408,-3.8448,-3.8448,-3.8504,-3.8644,-3.8572,-3.8544,-3.8628,-3.8572,-3.8544,-3.8628,-3.8655,-3.8683,-3.8777,-3.8805,-3.8805,-3.8805,0.0,0.0,0.0,0.0,0.0,0.0,0.0,-3.4766,0.0,-3.3745,0.0,0.0,0.0,0.0,0.0,0.0,0.0,0.0,-3.8414,0.0,-4.0468,-4.0493,-4.0583,-4.0655,-4.0614,-4.068,-4.0817,-4.1023,-4.1117,-4.1146,-4.118,-4.1203,-4.1192,-4.1249,-4.134,-4.1471,-4.1471,-4.1515,-4.1604,-4.1604,-4.1604,-4.1604,-4.2602,-4.2602,-4.2602,-4.2602,-4.2571,-4.2539,-4.2539,-4.2381,-4.2286,-4.2286,-4.2174,-4.2142,-4.227,-4.2365,0.0,-4.2508,-4.2381,0.0,-4.2238,-4.2093,-4.2029,-4.2029,-4.1947,-4.1898,-4.1898,0.0,0.0,-4.0972,-4.0261,-3.9345,-3.8239,-3.8359,-3.842,-3.8495,-3.8704,-3.8822,-3.8881,-3.9056,-3.9114,-3.9114,-3.9156,-3.9185,-3.9153,-3.891,-3.8796,-3.8764,-3.8489,-3.8391,-3.8391,-3.8391,-3.8391,-3.8391,-3.8391,-3.8391,-3.8391,-3.8391,-3.8391,-3.8391,-3.8391,-3.8391,-3.842,-3.8504,-3.8448,-3.842,-3.852,-3.8448,-3.842,-3.852,-3.8504,-3.856,-3.8628,-3.8655,-3.8655,-3.8655,0.0,-3.837,0.0,0.0,0.0,0.0,0.0,0.0,0.0,-3.4852,0.0,0.0,0.0,0.0,0.0,0.0,0.0,-3.6978,-3.8296,0.0,-4.0028,-4.0045,-4.0146,-4.0345,-4.0238,-4.0313,-4.0551,-4.0673,-4.0721,-4.0745,-4.0877,-4.0942,-4.0953,-4.1105,-4.1226,-4.1318,-4.1318,-4.1408,-4.1515,-4.1515,-4.156,-4.1604,-4.2602,-4.2602,0.0,0.0,-4.2476,0.0,-4.2381,-4.2222,-4.2077,-4.2077,-4.2077,-4.2077,-4.2077,-4.2077,-4.2142,-4.2349,0.0,0.0,0.0,-4.1898,-4.1866,-4.1866,-4.1866,0.0,-4.1866,-4.1703,-4.1588,-4.1588,-4.0972,-4.0324,-3.9645,-3.9598,-3.9691,-3.9848,-3.9831,-3.9861,-4.0015,-4.0214,-4.0305,-4.0305,-4.0453,-4.0496,-4.0415,-3.9813,-3.9586,-3.9489,-3.878,-3.8521,-3.8472,-3.8472,-3.844,-3.8391,-3.8391,-3.8391,-3.8391,-3.8391,-3.8391,-3.8391,-3.8391,-3.8391,-3.8391,-3.8391,-3.8391,-3.8391,-3.8391,-3.8391,-3.8391,-3.8391,-3.8391,-3.8391,-3.8391,-3.8391,-3.8391,-3.8391,-3.8391,-3.8391,-3.8391,0.0,0.0,0.0,0.0,0.0,0.0,-3.5817,-3.5422,0.0,0.0,0.0,0.0,0.0,-3.6383,-3.7658,-3.8428,-3.9061,-3.9532,-3.9558,-3.98,-4.0277,-4.0254,-4.0238,-4.0238,-4.0163,-4.0113,-4.0138,-4.0387,-4.0534,-4.0673,-4.0929,-4.1059,-4.114,-4.1163,-4.1232,-4.1358,-4.138,-4.1471,-4.1582,0.0,0.0,-4.2571,-4.2476,-4.2413,-4.2349,-4.2206,-4.2029,-4.1963,-4.1963,-4.1801,-4.1768,-4.1915,-4.1963,-4.1963,-4.2028,-4.1963,-4.1931,-4.1898,-4.1752,-4.167,-4.167,-4.167,-4.167,-4.167,-4.1621,-4.1588,-4.1588,-4.143,-4.1257,-4.1083,-4.0577,-4.034,-4.0388,-3.9975,-3.983,-3.9861,-4.0015,-4.0168,-4.0289,-4.0319,-4.0423,-4.048,-4.0318,-4.0254,-4.0237,-4.0059,-3.9654,-3.9246,-3.9246,-3.8861,-3.8391,-3.8391,-3.8391,-3.8391,-3.8391,-3.8391,-3.8391,-3.8391,-3.8391,-3.8391,-3.8391,-3.8391,-3.8391,-3.8391,-3.8391,-3.8391,-3.8391,-3.8391,-3.8391,-3.8391,-3.8391,-3.8391,-3.8391,-3.8391,-3.8391,-3.8391,0.0,0.0,0.0,-3.8003,-3.7906,-3.7906,-3.7744,-3.763,0.0,0.0,0.0,0.0,0.0,-3.7166,-3.7664,-3.8428,-3.8843,-3.898,-3.898,-3.9044,-3.9179,-3.947,-3.967,-3.9765,-3.9995,-4.0163,-4.0238,-4.0213,-4.0196,-4.0263,-4.0313,-4.0412,-4.0517,-4.0728,-4.0877,-4.096,-4.1186,-4.134,-4.1448,-4.227,-4.2302,-4.2333,-4.2286,-4.2222,-4.2141,-4.2045,-4.1882,-4.1752,-4.1752,-4.167,-4.1621,-4.1752,-4.1752,-4.1752,-4.1752,-4.1866,-4.1866,-4.1784,-4.167,-4.1588,-4.1588,-4.1588,-4.1588,-4.1588,-4.1588,-4.1588,-4.1588,-4.1588,-4.1588,-4.1573,-4.1225,-4.1051,-4.1035,-4.0753,-4.061,-4.0642,-4.0785,-4.0927,-4.1037,-4.1193,-4.13,-4.1344,-4.1112,-4.1012,-4.098,-4.061,-4.0254,-3.9975,-3.9975,-3.9687,-3.9298,-3.8991,-3.8893,-3.8829,-3.8489,-3.8391,-3.8391,-3.8391,-3.8391,-3.8391,-3.8391,-3.8391,-3.8391,-3.8391,-3.8391,-3.8391,-3.8391,-3.8391,-3.8391,-3.8391,-3.8391,-3.8391,-3.8391,-3.8391,-3.8391,-3.8391,-3.8391,0.0,-3.8391,-3.8391,-3.8391,-3.8391,-3.8391,-3.8391,-3.8391,0.0,0.0,-3.8375,-3.8019,-3.7864,-3.8013,-3.8416,-3.8655,-3.8711,-3.8777,-3.8805,-3.8805,-3.9007,-3.9152,-3.9259,-3.9435,-3.9582,-3.9713,-3.9764,-3.9841,-3.9935,-4.0062,-4.0138,-4.0238,-4.0453,-4.0534,-4.0597,-4.0789,-4.0977,-4.114,-4.2093,-4.2077,-4.2077,-4.2077,-4.198,-4.1898,-4.1866,-4.1703,-4.1588,-4.1588,-4.1588,-4.1588,-4.1588,-4.1588,-4.1588,-4.1588,-4.1752,-4.1784,-4.1621,-4.1588,-4.1588,-4.1588,-4.1588,-4.1588,-4.1588,-4.1588,-4.1588,-4.1588,-4.1588,-4.1588,-4.1588,-4.1588,-4.1588,-4.1588,-4.1588,-4.1588,-4.1621,-4.1784,-4.1866,-4.1931,-4.2206,-4.2349,-4.2317,-4.1861,-4.1727,-4.1646,-4.1031,-4.0739,-4.0658,-4.0658,-4.0623,-4.0429,-3.9891,-3.9697,-3.9596,-3.8979,-3.8691,-3.8594,-3.8424,-3.8391,-3.8391,-3.8391,-3.8391,-3.8391,-3.8391,-3.8391,-3.8391,-3.8391,-3.8391,-3.8391,-3.8391,-3.8391,-3.8391,-3.8391,-3.8391,-3.8391,-3.8391,0.0,-3.8391,-3.8391,-3.8391,-3.8391,-3.8391,-3.8391,-3.8391,-3.8391,-3.8391,0.0,0.0,-3.8391,-3.8391,-3.8391,-3.8391,-3.8448,-3.8576,-3.8683,-3.8722,-3.8722,-3.875,-3.8777,-3.8777,-3.8805,-3.886,-3.8996,-3.9222,-3.9408,-3.9582,-3.9816,-3.9944,-3.9944,-4.0138,-4.0213,-4.0255,-4.0387,-4.0549,-4.0731,-4.1931,-4.2029,-4.2045,-4.1963,-4.1898,-4.1833,-4.167,-4.1621,-4.1588,-4.1588,-4.1588,-4.1588,-4.1588,-4.1588,-4.1588,-4.1588,-4.1621,-4.1621,-4.1588,-4.1588,-4.1588,-4.1588,-4.1588,-4.1588,-4.1588,-4.1588,-4.1588,-4.1588,-4.1588,-4.1588,-4.1588,-4.1588,-4.1588,-4.1588,-4.1588,-4.1588,-4.1588,-4.1621,-4.1752,-4.1898,-4.1963,-4.2045,-4.2174,-4.2252,-4.2283,-4.2267,-4.2264,-4.1921,-4.1434,-4.1434,-4.1135,-4.0736,-4.0639,-4.0678,-4.0745,-4.0631,-4.0156,-3.9495,-3.8638,-3.8391,-3.8391,-3.8391,-3.8391,-3.8391,-3.8391,-3.8391,-3.8391,-3.8391,-3.8391,-3.8391,-3.8391,-3.8391,-3.8391,-3.8391,-3.8391,-3.8391,-3.8391,0.0,-3.8391,-3.8391,-3.8391,-3.8391,-3.8391,-3.8391,-3.8391,-3.8391,-3.8391,-3.8391,-3.8391,-3.8391,-3.8391,-3.8391,-3.8391,-3.8408,-3.842,-3.8448,-3.8448,-3.8448,-3.8588,-3.8616,-3.8644,-3.875,-3.8805,-3.8832,-3.8887,-3.8914,-3.8969,-3.9104,-3.9185,-3.9212,-3.9635,-3.9858,-3.9977,-4.0113,-4.0229,-4.0294,-4.1752,-4.1801,-4.1818,-4.1736,-4.1752,-4.1703,-4.1621,-4.1588,-4.1588,-4.1588,-4.1588,-4.1588,-4.1588,-4.1588,-4.1588,-4.1588,-4.1588,-4.1588,-4.1588,-4.1588,-4.1588,-4.1588,-4.1588,-4.1588,-4.1588,-4.1588,-4.1588,-4.1588,-4.1588,-4.1588,-4.1588,-4.1489,-4.1423,-4.1423,-4.1423,-4.1406,-4.1355,-4.1522,-4.1588,-4.1604,-4.1899,-4.2029,-4.2142,-4.2397,-4.2571,-4.2665,-4.2634,-4.2454,-4.2272,-4.2179,-4.2061,-4.1857,-4.1466,-4.1395,-4.1373,-4.0998,-4.0361,-3.9597,-3.8727,-3.8448,-3.8391,-3.8391,-3.8391,-3.8391,-3.8391,-3.8391,-3.8391,-3.8391,-3.8391,-3.8391,-3.8391,-3.8391,-3.8391,-3.8391,-3.8391,0.0,0.0,-3.8391,-3.8391,-3.8391,-3.8391,-3.8391,-3.8391,-3.8391,-3.8391,-3.8391,-3.8391,-3.8391,-3.8391,-3.8391,-3.8391,-3.8391,-3.8391,-3.8391,-3.8391,-3.8391,-3.8391,-3.8391,-3.8448,-3.8476,-3.8476,-3.856,-3.8628,-3.8683,-3.8683,-3.8722,-3.8805,-3.886,-3.8887,-3.8942,-3.9335,-3.9468,-3.9425,-3.9677,-3.9841,-3.9952,-4.1841,-4.1715,-4.1588,-4.1588,-4.1588,-4.1588,-4.1588,-4.1588,-4.1588,-4.1588,-4.1588,-4.1588,-4.1588,-4.1588,-4.1588,-4.1588,-4.1588,-4.1588,-4.1522,-4.1522,-4.1555,-4.1588,-4.1588,-4.1588,-4.1588,-4.1588,-4.1588,-4.1588,-4.1555,-4.1522,-4.1522,-4.1323,-4.1256,-4.1256,-4.1256,-4.1187,-4.1117,-4.1372,-4.139,-4.1305,-4.1703,-4.1883,-4.1948,-4.2238,-4.2476,-4.2571,-4.2508,-4.2571,-4.265,-4.2571,-4.2665,-4.274,-4.2217,-4.2069,-4.2015,-4.1493,-4.0665,-3.9801,-3.9016,-3.8622,-3.8391,-3.8391,-3.8391,-3.8391,-3.8391,-3.8391,-3.8391,-3.8391,-3.8391,-3.8391,-3.8391,-3.8391,-3.8391,-3.8391,0.0,0.0,0.0,-3.8391,-3.8391,-3.8391,-3.8391,-3.8391,-3.8391,-3.8391,-3.8391,-3.8391,-3.8391,-3.8391,-3.8391,-3.8391,-3.8391,-3.8391,-3.8391,-3.8391,-3.8391,-3.8391,-3.8391,-3.8391,-3.8391,-3.8391,-3.8391,-3.8391,-3.8464,-3.8532,-3.8532,-3.86,-3.8694,-3.8722,-3.875,-3.8777,-3.9067,-3.9148,-3.9148,-3.9325,-3.9511,-3.9668,-4.2616,-4.2062,-4.1588,-4.1588,-4.1588,-4.1588,-4.1588,-4.1588,-4.1588,-4.1588,-4.1588,-4.1588,-4.1588,-4.1588,-4.1588,-4.1588,-4.1588,-4.1522,-4.1307,-4.1323,-4.1423,-4.1588,-4.1588,-4.1588,-4.1588,-4.1588,-4.1588,-4.1588,-4.1423,-4.1323,-4.1323,-4.1187,-4.1102,-4.1102,-4.1102,-4.1117,-4.1117,-4.1117,-4.1135,-4.1117,-4.1169,-4.1254,-4.139,-4.1588,-4.1687,-4.172,-4.2045,-4.2077,-4.2028,-4.2334,-4.2508,-4.2665,-4.2772,-4.2894,-4.2984,-4.2935,-4.188,-4.0525,-3.9677,-3.8938,-3.8391,-3.8391,-3.8391,-3.8391,-3.8391,-3.8391,-3.8391,-3.8391,-3.8391,-3.8391,-3.8391,-3.8391,-3.8391,-3.8391,0.0,0.0,-3.8391,-3.8391,-3.8391,-3.8391,-3.8391,-3.8391,-3.8391,-3.8391,-3.8391,-3.8391,-3.8391,-3.8391,-3.8391,-3.8391,-3.8391,-3.8391,-3.8391,-3.8391,-3.8391,-3.8391,-3.8391,-3.8391,-3.8391,-3.8391,-3.8391,-3.8391,-3.8408,-3.8391,-3.8391,-3.842,-3.8448,-3.856,-3.8616,-3.8616,-3.8794,-3.9094,-3.9432,-3.9148,-3.9228,-3.9458,-4.2774,-4.2457,-4.2126,-4.1667,-4.1588,-4.1588,-4.1588,-4.1588,-4.1588,-4.1588,-4.1588,-4.1588,-4.1588,-4.1588,-4.1588,-4.1588,-4.1489,-4.139,-4.1323,-4.1205,-4.1254,-4.1423,-4.1423,-4.1423,-4.1423,-4.1423,-4.1357,-4.1288,-4.1221,-4.1187,-4.1153,-4.0984,-4.0916,-4.0916,-4.0916,-4.0848,-4.0746,-4.1,-4.1034,-4.0916,-4.1138,-4.1256,-4.1323,-4.1522,-4.1638,-4.1721,-4.1769,-4.1802,-4.1867,-4.2045,-4.2254,-4.2508,-4.2665,-4.2821,-4.2945,-4.2821,-4.2091,-4.1219,-4.0883,-3.9622,-3.8505,-3.8958,-3.8732,-3.8521,-3.8974,-3.8732,-3.8391,-3.8391,-3.8391,-3.8391,-3.8391,-3.8391,-3.8391,-3.8391,0.0,-3.8391,-3.8391,-3.8391,-3.8391,-3.8391,-3.8391,-3.8391,-3.8391,-3.8391,-3.8391,-3.8391,-3.8391,-3.8391,-3.8391,-3.8391,-3.8391,-3.8391,-3.8391,-3.8391,-3.8391,-3.8391,-3.8391,-3.8391,-3.8391,-3.8391,-3.8391,-3.8391,-3.8391,-3.8391,-3.8391,-3.8391,-3.8391,-3.8448,-3.8492,-3.8476,-3.8616,-3.8766,-3.8947,-3.8887,-3.8996,-3.9148,-4.3421,-4.2979,-4.2521,-4.2015,-4.1746,-4.1588,-4.1588,-4.1588,-4.1588,-4.1588,-4.1588,-4.1588,-4.1588,-4.1588,-4.1588,-4.1588,-4.1423,-4.129,-4.1239,-4.1018,-4.1018,-4.129,-4.1272,-4.1272,-4.129,-4.1272,-4.1187,-4.1117,-4.1034,-4.1,-4.1,-4.0799,-4.0696,-4.0696,-4.0696,-4.0627,-4.0524,-4.078,-4.0814,-4.073,-4.0969,-4.1088,-4.1156,-4.129,-4.1407,-4.1491,-4.1456,-4.144,-4.1524,-4.167,-4.1866,-4.2077,-4.2318,-4.2508,-4.2634,-4.2476,-4.1976,-4.1428,-4.1428,-4.0202,-3.904,-3.9671,-3.9428,-3.9185,-3.9687,-3.925,-3.8748,-3.8748,-3.8553,-3.8391,-3.8391,-3.8391,-3.8391,-3.8391,-3.8391,-3.8391,-3.8391,-3.8391,-3.8391,-3.8391,-3.8391,-3.8391,-3.8391,-3.8391,-3.8391,-3.8391,-3.8391,-3.8391,-3.8391,-3.8391,-3.8391,-3.8391,-3.8618,-3.8748,-3.8748,-3.8748,-3.8845,-3.9055,-3.9055,-3.9055,-3.9039,-3.8829,-3.8748,-3.8732,-3.8489,-3.8391,-3.8391,-3.8391,-3.8379,-3.8351,-3.842,-3.8532,-3.8616,-3.8655,-3.8805,-3.8969,-4.4717,-4.3627,-4.2695,-4.2695,-4.2078,-4.1588,-4.1588,-4.1588,-4.1588,-4.1588,-4.1588,-4.1588,-4.1588,-4.1588,-4.1588,-4.1588,-4.1423,-4.1239,-4.1102,-4.0712,-4.073,-4.129,-4.1153,-4.1169,-4.129,-4.1169,-4.1117,-4.1083,-4.0882,-4.0799,-4.0799,-4.0593,-4.0489,-4.0489,-4.0489,-4.0489,-4.0489,-4.0489,-4.0489,-4.0489,-4.0489,-4.0627,-4.0799,-4.0799,-4.0799,-4.0833,-4.1034,-4.095,-4.0867,-4.1189,-4.129,-4.1357,-4.1767,-4.198,-4.2109,-4.2109,-4.1645,-4.1117,-4.1117,-4.0574,-4.0123,-4.0407,-4.0496,-4.0496,-4.0496,-4.0008,-3.9522,-3.9522,-3.891,-3.8408,-3.8408,-3.8391,-3.8391,-3.8391,-3.8391,-3.8391,-3.8391,-3.8391,-3.8391,-3.8391,-3.8391,-3.8391,-3.8391,-3.8391,-3.8391,-3.8391,-3.8391,-3.8391,-3.8391,-3.8391,-3.8391,-3.8391,-3.9104,-3.9505,-3.9522,-3.9522,-3.9862,-4.0496,-4.0496,-4.0496,-4.0464,-3.9829,-3.9505,-3.9473,-3.8732,-3.8408,-3.8391,-3.8391,-3.8323,-3.8209,-3.8209,-3.8347,-3.8583,-3.8448,-3.8655,-3.8942,-4.4812,-4.399,-4.3232,-4.2774,-4.2078,-4.1588,-4.1588,-4.1588,-4.1588,-4.1588,-4.1588,-4.1588,-4.1588,-4.1489,-4.139,-4.139,-4.1122,-4.0867,-4.0712,-4.0574,-4.0627,-4.0935,-4.0901,-4.0901,-4.0953,-4.0901,-4.0814,-4.0677,-4.0627,-4.0593,-4.0593,-4.0524,-4.0489,-4.0489,-4.0489,-4.0489,-4.0489,-4.0489,-4.0489,-4.0489,-4.0489,-4.0524,-4.0593,-4.0593,-4.0593,-4.0593,-4.0677,-4.0643,-4.0627,-4.0867,-4.1021,-4.1239,-4.1735,-4.1931,-4.198,-4.2093,-4.1965,-4.1805,-4.1805,-4.1661,-4.1405,-4.111,-4.0704,-4.0538,-4.1144,-4.0737,-4.0189,-4.0189,-3.9638,-3.9153,-3.9153,-3.8748,-3.8391,-3.8391,-3.8391,-3.8391,-3.8391,-3.8391,-3.8391,-3.8391,-3.8391,-3.8391,-3.8391,-3.8391,-3.8391,-3.8391,-3.8391,-3.8391,-3.8391,-3.8391,-3.8391,-3.8391,-3.9104,-3.9748,-4.0189,-4.0189,-4.0286,-4.0496,-4.0496,-4.0496,-4.048,-4.0286,-3.993,-3.9505,-3.9279,-3.8861,-3.8391,-3.8391,-3.8323,-3.8209,-3.8209,-3.8164,-3.8091,-3.8062,-3.816,-3.8371,-4.5238,-4.4369,-4.3564,-4.3169,-4.2268,-4.1588,-4.1588,-4.1588,-4.1588,-4.1588,-4.1588,-4.1588,-4.1588,-4.1423,-4.129,-4.129,-4.0987,-4.073,-4.0524,-4.0489,-4.0558,-4.0662,-4.0696,-4.073,-4.0799,-4.073,-4.0627,-4.0489,-4.0489,-4.0489,-4.0489,-4.0489,-4.0489,-4.0489,-4.0489,-4.0489,-4.0489,-4.0489,-4.0489,-4.0489,-4.0489,-4.0489,-4.0489,-4.0489,-4.0489,-4.0489,-4.0489,-4.0489,-4.0524,-4.0627,-4.0799,-4.1037,-4.1355,-4.1537,-4.1603,-4.1686,-4.1703,-4.1703,-4.1785,-4.1785,-4.1739,-4.1566,-4.1276,-4.116,-4.1765,-4.1344,-4.0857,-4.0917,-4.0397,-3.991,-3.991,-3.9525,-3.9136,-3.8877,-3.8829,-3.8732,-3.844,-3.8391,-3.8391,-3.8391,-3.8391,-3.8391,-3.8391,-3.8391,-3.8521,-3.8796,-3.8829,-3.8942,-3.9217,-3.9217,-3.9217,-3.9217,-3.9959,-4.0542,-4.0948,-4.1193,-4.1338,-4.1338,-4.1338,-4.1308,-4.1231,-4.1017,-4.0515,-3.9793,-3.9502,-3.8969,-3.8307,-3.8221,-3.8107,-3.7992,-3.7992,-3.7934,-3.7817,-3.7817,-3.7918,-3.8046,-4.5765,-4.4603,-4.3671,-4.3608,-4.2505,-4.1588,-4.1588,-4.1588,-4.1588,-4.1588,-4.1588,-4.1588,-4.1588,-4.1423,-4.129,-4.129,-4.0953,-4.0696,-4.0524,-4.0489,-4.0489,-4.0489,-4.0489,-4.0593,-4.0765,-4.0593,-4.0489,-4.0489,-4.0489,-4.0489,-4.0489,-4.0489,-4.0489,-4.0489,-4.0489,-4.0489,-4.0489,-4.0489,-4.0489,-4.0489,-4.0489,-4.0489,-4.0489,-4.0489,-4.0489,-4.0489,-4.0489,-4.0489,-4.0489,-4.0489,-4.0627,-4.0765,-4.0799,-4.0916,-4.1068,-4.1034,-4.1068,-4.1135,-4.1205,-4.1241,-4.1357,-4.1767,-4.1947,-4.2077,-4.2318,-4.1835,-4.143,-4.1601,-4.1065,-4.0564,-4.0564,-4.0515,-4.0256,-3.9671,-3.9573,-3.9347,-3.8683,-3.8557,-3.8529,-3.8529,-3.8529,-3.85,-3.85,-3.85,-3.8775,-3.9496,-3.9544,-3.9803,-4.0464,-4.0496,-4.0496,-4.0496,-4.1223,-4.1596,-4.1596,-4.2278,-4.2602,-4.2602,-4.2602,-4.2539,-4.2397,-4.1892,-4.1198,-4.0323,-3.9597,-3.8888,-3.8261,-3.7995,-3.7817,-3.77,-3.77,-3.77,-3.7671,-3.7671,-3.7759,-3.7905,-4.5065,-4.429,-4.3513,-4.3011,-4.2173,-4.1588,-4.1588,-4.1588,-4.1588,-4.1588,-4.1588,-4.1588,-4.1588,-4.1321,-4.1135,-4.1135,-4.078,-4.0558,-4.0489,-4.0489,-4.0489,-4.0489,-4.0489,-4.047,-4.0401,-4.047,-4.0489,-4.0489,-4.0489,-4.0489,-4.0489,-4.0489,-4.0489,-4.0489,-4.0489,-4.0489,-4.0489,-4.0489,-4.0489,-4.0489,-4.0489,-4.0489,-4.0489,-4.0489,-4.0489,-4.0489,-4.0489,-4.0489,-4.0489,-4.0489,-4.0524,-4.0593,-4.0765,-4.0833,-4.0833,-4.0681,-4.0833,-4.1034,-4.0734,-4.0885,-4.1203,-4.1372,-4.1456,-4.1588,-4.2045,-4.2062,-4.1949,-4.1981,-4.1436,-4.0955,-4.0955,-4.0506,-4.0103,-4.0126,-4.0139,-4.0105,-4.0059,-3.9822,-3.9642,-3.9642,-3.943,-3.9246,-3.9246,-3.9246,-3.9432,-3.9866,-3.9882,-4.0051,-4.048,-4.0496,-4.0496,-4.0496,-4.1223,-4.1596,-4.1596,-4.2278,-4.2602,-4.2602,-4.2602,-4.2539,-4.2413,-4.2283,-4.1738,-4.0908,-4.0155,-3.945,-3.8793,-3.8158,-3.7817,-3.77,-3.77,-3.7658,-3.7524,-3.7524,-3.7569,-3.7628,-4.4609,-4.4039,-4.35,-4.2805,-4.2078,-4.1588,-4.1588,-4.1588,-4.1588,-4.1588,-4.1522,-4.1456,-4.1456,-4.1171,-4.0916,-4.0814,-4.0608,-4.0489,-4.0489,-4.0489,-4.0455,-4.0401,-4.047,-4.0436,-4.0312,-4.0366,-4.0401,-4.0401,-4.0401,-4.0436,-4.0489,-4.0489,-4.0489,-4.0489,-4.0489,-4.0489,-4.0489,-4.0489,-4.0489,-4.0489,-4.0489,-4.0489,-4.0489,-4.0489,-4.0489,-4.0489,-4.0489,-4.0489,-4.0489,-4.0489,-4.0489,-4.0524,-4.0627,-4.0558,-4.0401,-4.0281,-4.0281,-4.0266,-4.0161,-4.0281,-4.0489,-4.0836,-4.0938,-4.1107,-4.1834,-4.1996,-4.2029,-4.2077,-4.1821,-4.1581,-4.1581,-4.1246,-4.0926,-4.0729,-4.0681,-4.0583,-4.0291,-4.0014,-3.986,-3.986,-3.9659,-3.9487,-3.9487,-3.9409,-3.9566,-4.0056,-4.0103,-4.0325,-4.0848,-4.0974,-4.0974,-4.0864,-4.1262,-4.1486,-4.1597,-4.1741,-4.1932,-4.2109,-4.219,-4.2061,-4.1785,-4.1964,-4.1549,-4.069,-4.0148,-3.9508,-3.879,-3.8016,-3.7671,-3.7583,-3.7583,-3.7569,-3.751,-3.751,-3.7539,-3.7628,-4.4128,-4.3698,-4.3349,-4.2579,-4.1966,-4.1588,-4.1555,-4.1555,-4.1555,-4.1538,-4.1357,-4.1272,-4.1272,-4.1003,-4.073,-4.0524,-4.0489,-4.0489,-4.0489,-4.0489,-4.0436,-4.0312,-4.0436,-4.0401,-4.0191,-4.0242,-4.0277,-4.0331,-4.0296,-4.0366,-4.0489,-4.0489,-4.0489,-4.0489,-4.0489,-4.0489,-4.0489,-4.0489,-4.0489,-4.0489,-4.0489,-4.0489,-4.0489,-4.0489,-4.0489,-4.0489,-4.0489,-4.0489,-4.0489,-4.0489,-4.0489,-4.0489,-4.0489,-4.0261,-3.9996,-3.9925,-3.9646,-3.9415,-3.9523,-3.961,-3.9753,-4.025,-4.0339,-4.0597,-4.1472,-4.1719,-4.1817,-4.1948,-4.1948,-4.1916,-4.1916,-4.1916,-4.174,-4.1135,-4.1087,-4.0912,-4.0244,-3.9976,-3.9835,-3.9835,-3.9676,-3.9579,-3.9579,-3.9419,-3.9573,-4.0216,-4.0264,-4.0532,-4.1209,-4.1407,-4.1407,-4.1241,-4.1241,-4.1341,-4.1507,-4.1158,-4.1142,-4.1407,-4.1475,-4.1358,-4.107,-4.1323,-4.1058,-4.0296,-3.9803,-3.9234,-3.8601,-3.7766,-3.7421,-3.7421,-3.748,-3.751,-3.751,-3.751,-3.7599,-3.773,-4.3076,-4.2983,-4.2778,-4.1531,-4.1453,-4.1555,-4.1357,-4.1357,-4.1305,-4.1169,-4.1135,-4.1135,-4.1135,-4.0916,-4.073,-4.0524,-4.0489,-4.0489,-4.0489,-4.0489,-4.0436,-4.0312,-4.0436,-4.0281,-3.9788,-3.996,-4.0172,-4.0455,-4.0366,-4.0366,-4.0489,-4.0489,-4.0489,-4.0489,-4.0489,-4.0489,-4.0489,-4.0489,-4.0489,-4.0489,-4.0489,-4.0489,-4.0489,-4.0489,-4.0489,-4.0489,-4.0489,-4.0489,-4.0489,-4.0489,-4.0489,-4.0489,-4.0489,-4.0261,-3.9925,-3.9574,-3.9451,-3.9328,-3.9002,-3.9199,-3.9487,-3.9753,-3.9824,-3.995,-4.0562,-4.1039,-4.139,-4.1423,-4.1323,-4.1239,-4.1239,-4.1239,-4.114,-4.0878,-4.1082,-4.1184,-4.0892,-4.0608,-4.0371,-4.0371,-4.0109,-3.9932,-3.9932,-3.9897,-4.0052,-4.0442,-4.0476,-4.0644,-4.1008,-4.1075,-4.1075,-4.1042,-4.1042,-4.1042,-4.1075,-4.1042,-4.0873,-4.065,-4.0478,-4.0562,-4.0833,-4.0901,-4.0752,-4.0393,-3.9195,-3.8625,-3.8456,-3.7468,-3.7076,-3.709,-3.7391,-3.751,-3.751,-3.751,-3.7642,-3.7847,-4.2515,-4.2473,-4.2344,-4.0997,-4.0901,-4.1093,-4.1364,-4.1202,-4.1127,-4.1429,-4.1149,-4.0916,-4.0916,-4.073,-4.0593,-4.0489,-4.0489,-4.0489,-4.0489,-4.0489,-4.0401,-4.0137,-4.0296,-4.0191,-3.9717,-3.9803,-3.9945,-4.0226,-4.0172,-4.0242,-4.0401,-4.0455,-4.0489,-4.0489,-4.0489,-4.0489,-4.0489,-4.0296,-4.0331,-4.0455,-4.0056,-4.0036,-4.0207,-3.995,-3.9879,-3.9879,-3.9879,-4.0036,-4.0191,-3.995,-3.9879,-3.9879,-3.9879,-3.9631,-3.9271,-3.9126,-3.8907,-3.8671,-3.8523,-3.8598,-3.8782,-3.9126,-3.9199,-3.9343,-3.9793,-4.0305,-4.0734,-4.0836,-4.0885,-4.0851,-4.0646,-4.0681,-4.073,-4.0662,-4.0765,-4.0817,-4.0734,-4.0493,-4.0285,-4.0246,-3.998,-3.9839,-3.9839,-3.9625,-3.9574,-3.9722,-3.9809,-3.995,-4.0111,-4.0335,-4.0405,-4.0285,-4.0285,-4.032,-4.0439,-4.0231,-4.0161,-4.0211,-3.9895,-3.9895,-4.0176,-4.0296,-4.0296,-4.0165,-3.9008,-3.8508,-3.84,-3.7218,-3.6724,-3.6754,-3.6892,-3.7105,-3.7359,-3.7524,-3.773,-3.7876]},{"header":{"parameterUnit":"m.s-1","parameterCategory":1,"la1":30.6,"la2":28.766,"lo1":-90.7593,"lo2":-88.6598,"dy":0.0162,"dx":0.0183,"nx":116,"ny":114,"refTime":"2023-05-03T18:00:00:Z","depth":0,"parameterNumber":3,"parameterNumberName":"V-component_of_WINDS"},"data":[0.0,0.0,0.0,0.0,0.0,0.0,0.0,0.0,0.0,0.0,0.0,0.0,0.0,0.0,0.0,0.0,0.0,0.0,0.0,0.0,0.0,0.0,0.0,0.0,0.0,0.0,0.0,0.0,0.0,0.0,0.0,0.0,0.0,0.0,0.0,0.0,0.0,0.0,0.0,0.0,0.0,0.0,0.0,0.0,0.0,0.0,0.0,0.0,0.0,0.0,0.0,0.0,0.0,0.0,0.0,0.0,0.0,0.0,0.0,0.0,0.0,0.0,0.0,0.0,0.0,0.0,0.0,0.0,0.0,0.0,0.0,0.0,0.0,0.0,0.0,0.0,0.0,0.0,0.0,0.0,0.0,0.0,0.0,0.0,0.0,0.0,0.0,0.0,0.0,0.0,0.0,0.0,0.0,0.0,0.0,0.0,0.0,0.0,0.0,0.0,0.0,0.0,0.0,0.0,0.0,0.0,0.0,0.0,0.0,0.0,0.0,0.0,0.0,0.0,0.0,0.0,0.0,0.0,0.0,0.0,0.0,0.0,0.0,0.0,0.0,0.0,0.0,0.0,0.0,0.0,0.0,0.0,0.0,0.0,0.0,0.0,0.0,0.0,0.0,0.0,0.0,0.0,0.0,0.0,0.0,0.0,0.0,0.0,0.0,0.0,0.0,0.0,0.0,0.0,0.0,0.0,0.0,0.0,0.0,0.0,0.0,0.0,0.0,0.0,0.0,0.0,0.0,0.0,0.0,0.0,0.0,0.0,0.0,0.0,0.0,0.0,0.0,0.0,0.0,0.0,0.0,0.0,0.0,0.0,0.0,0.0,0.0,0.0,0.0,0.0,0.0,0.0,0.0,0.0,0.0,0.0,0.0,0.0,0.0,0.0,0.0,0.0,0.0,0.0,0.0,0.0,0.0,0.0,0.0,0.0,0.0,0.0,0.0,0.0,0.0,0.0,0.0,0.0,0.0,0.0,0.0,0.0,0.0,0.0,0.0,0.0,0.0,0.0,0.0,0.0,0.0,0.0,0.0,0.0,0.0,0.0,0.0,0.0,0.0,0.0,0.0,0.0,0.0,0.0,0.0,0.0,0.0,0.0,0.0,0.0,0.0,0.0,0.0,0.0,0.0,0.0,0.0,0.0,0.0,0.0,0.0,0.0,0.0,0.0,0.0,0.0,0.0,0.0,0.0,0.0,0.0,0.0,0.0,0.0,0.0,0.0,0.0,0.0,0.0,0.0,0.0,0.0,0.0,0.0,0.0,0.0,0.0,0.0,0.0,0.0,0.0,0.0,0.0,0.0,0.0,0.0,0.0,0.0,0.0,0.0,0.0,0.0,0.0,0.0,0.0,0.0,0.0,0.0,0.0,0.0,0.0,0.0,0.0,0.0,0.0,0.0,0.0,0.0,0.0,0.0,0.0,0.0,0.0,0.0,0.0,0.0,0.0,0.0,0.0,0.0,0.0,0.0,0.0,0.0,0.0,0.0,0.0,0.0,0.0,0.0,0.0,0.0,0.0,0.0,0.0,0.0,0.0,0.0,0.0,0.0,0.0,0.0,0.0,0.0,0.0,0.0,0.0,0.0,0.0,0.0,0.0,0.0,0.0,0.0,0.0,0.0,0.0,0.0,0.0,0.0,0.0,0.0,0.0,0.0,0.0,0.0,0.0,0.0,0.0,0.0,0.0,0.0,0.0,0.0,0.0,0.0,0.0,0.0,0.0,0.0,0.0,0.0,0.0,0.0,0.0,0.0,0.0,0.0,0.0,0.0,0.0,0.0,0.0,0.0,0.0,0.0,0.0,0.0,0.0,0.0,0.0,0.0,0.0,0.0,0.0,0.0,0.0,0.0,0.0,0.0,0.0,0.0,0.0,0.0,0.0,0.0,0.0,0.0,0.0,0.0,0.0,0.0,0.0,0.0,0.0,0.0,0.0,0.0,0.0,0.0,0.0,0.0,0.0,0.0,0.0,0.0,0.0,0.0,0.0,0.0,0.0,0.0,0.0,0.0,0.0,0.0,0.0,0.0,0.0,0.0,0.0,0.0,0.0,0.0,0.0,0.0,0.0,0.0,0.0,0.0,0.0,0.0,0.0,0.0,0.0,0.0,0.0,0.0,0.0,0.0,0.0,0.0,0.0,0.0,0.0,0.0,0.0,0.0,0.0,0.0,0.0,0.0,0.0,0.0,0.0,0.0,0.0,0.0,0.0,0.0,0.0,0.0,0.0,0.0,0.0,0.0,0.0,0.0,0.0,0.0,0.0,0.0,0.0,0.0,0.0,0.0,0.0,0.0,0.0,0.0,0.0,0.0,0.0,0.0,0.0,0.0,0.0,0.0,0.0,0.0,0.0,0.0,0.0,0.0,0.0,0.0,0.0,0.0,0.0,0.0,0.0,0.0,0.0,0.0,0.0,0.0,0.0,0.0,0.0,0.0,0.0,0.0,0.0,0.0,0.0,0.0,0.0,0.0,0.0,0.0,0.0,0.0,0.0,0.0,0.0,0.0,0.0,0.0,0.0,0.0,0.0,0.0,0.0,0.0,0.0,0.0,0.0,0.0,0.0,0.0,0.0,0.0,0.0,0.0,0.0,0.0,0.0,0.0,0.0,0.0,0.0,0.0,0.0,0.0,0.0,0.0,0.0,0.0,0.0,0.0,0.0,0.0,0.0,0.0,0.0,0.0,0.0,0.0,0.0,0.0,0.0,0.0,0.0,0.0,0.0,0.0,0.0,0.0,0.0,0.0,0.0,0.0,0.0,0.0,0.0,0.0,0.0,0.0,0.0,0.0,0.0,0.0,0.0,0.0,0.0,0.0,0.0,0.0,0.0,0.0,0.0,0.0,0.0,0.0,0.0,0.0,0.0,0.0,0.0,0.0,0.0,0.0,0.0,0.0,0.0,0.0,0.0,0.0,0.0,0.0,0.0,0.0,0.0,0.0,0.0,0.0,0.0,0.0,0.0,0.0,0.0,0.0,0.0,0.0,0.0,0.0,0.0,0.0,0.0,0.0,0.0,0.0,0.0,0.0,0.0,0.0,0.0,0.0,0.0,0.0,0.0,0.0,0.0,0.0,0.0,0.0,0.0,0.0,0.0,0.0,0.0,0.0,0.0,0.0,0.0,0.0,0.0,0.0,0.0,0.0,0.0,0.0,0.0,0.0,0.0,0.0,0.0,0.0,0.0,0.0,0.0,0.0,0.0,0.0,0.0,0.0,0.0,0.0,0.0,0.0,0.0,0.0,0.0,0.0,0.0,0.0,0.0,0.0,0.0,0.0,0.0,0.0,0.0,0.0,0.0,0.0,0.0,0.0,0.0,0.0,0.0,0.0,0.0,0.0,0.0,0.0,0.0,0.0,0.0,0.0,0.0,0.0,0.0,0.0,0.0,0.0,0.0,0.0,0.0,0.0,0.0,0.0,0.0,0.0,0.0,0.0,0.0,0.0,0.0,0.0,0.0,0.0,0.0,0.0,0.0,0.0,0.0,0.0,0.0,0.0,0.0,0.0,0.0,0.0,0.0,0.0,0.0,0.0,0.0,0.0,0.0,0.0,0.0,0.0,0.0,0.0,0.0,0.0,0.0,0.0,0.0,0.0,0.0,0.0,0.0,0.0,0.0,0.0,0.0,0.0,0.0,0.0,0.0,0.0,0.0,0.0,0.0,0.0,0.0,0.0,0.0,0.0,0.0,0.0,0.0,0.0,0.0,0.0,0.0,0.0,0.0,0.0,0.0,0.0,0.0,0.0,0.0,0.0,0.0,0.0,0.0,0.0,0.0,0.0,0.0,0.0,0.0,0.0,0.0,0.0,0.0,0.0,0.0,0.0,0.0,0.0,0.0,0.0,0.0,0.0,0.0,0.0,0.0,0.0,0.0,0.0,0.0,0.0,0.0,0.0,0.0,0.0,0.0,0.0,0.0,0.0,0.0,0.0,0.0,0.0,0.0,0.0,0.0,0.0,0.0,0.0,0.0,0.0,0.0,0.0,0.0,0.0,0.0,0.0,0.0,0.0,0.0,0.0,0.0,0.0,0.0,0.0,0.0,0.0,0.0,0.0,0.0,0.0,0.0,0.0,0.0,0.0,0.0,0.0,0.0,0.0,0.0,0.0,0.0,0.0,0.0,0.0,0.0,0.0,0.0,0.0,0.0,0.0,0.0,0.0,0.0,0.0,0.0,0.0,0.0,0.0,0.0,0.0,0.0,0.0,0.0,0.0,0.0,0.0,0.0,0.0,0.0,0.0,0.0,0.0,0.0,0.0,0.0,0.0,0.0,0.0,0.0,0.0,0.0,0.0,0.0,0.0,0.0,0.0,0.0,0.0,0.0,0.0,0.0,0.0,0.0,0.0,0.0,0.0,0.0,0.0,0.0,0.0,0.0,0.0,0.0,0.0,0.0,0.0,0.0,0.0,0.0,0.0,0.0,0.0,0.0,0.0,0.0,0.0,0.0,0.0,0.0,0.0,0.0,0.0,0.0,0.0,0.0,0.0,0.0,0.0,0.0,0.0,0.0,0.0,0.0,0.0,0.0,0.0,0.0,0.0,0.0,0.0,0.0,0.0,0.0,0.0,0.0,0.0,0.0,0.0,0.0,0.0,0.0,0.0,0.0,0.0,0.0,0.0,0.0,0.0,0.0,0.0,0.0,0.0,0.0,0.0,0.0,0.0,0.0,0.0,0.0,0.0,0.0,0.0,0.0,0.0,0.0,0.0,0.0,0.0,0.0,0.0,0.0,0.0,0.0,0.0,0.0,0.0,0.0,0.0,0.0,0.0,0.0,0.0,0.0,0.0,0.0,0.0,0.0,0.0,0.0,0.0,0.0,0.0,0.0,0.0,0.0,0.0,0.0,0.0,0.0,0.0,0.0,0.0,0.0,0.0,0.0,0.0,0.0,0.0,0.0,0.0,0.0,0.0,0.0,0.0,0.0,0.0,0.0,0.0,0.0,0.0,0.0,0.0,0.0,0.0,0.0,0.0,0.0,0.0,0.0,0.0,0.0,0.0,0.0,0.0,0.0,0.0,0.0,0.0,0.0,0.0,0.0,0.0,0.0,0.0,0.0,0.0,0.0,0.0,0.0,0.0,0.0,0.0,0.0,0.0,0.0,0.0,0.0,0.0,0.0,0.0,0.0,0.0,0.0,0.0,0.0,0.0,0.0,0.0,0.0,0.0,0.0,0.0,0.0,0.0,0.0,0.0,0.0,0.0,0.0,0.0,0.0,0.0,0.0,0.0,0.0,0.0,0.0,0.0,0.0,0.0,0.0,0.0,0.0,0.0,0.0,0.0,0.0,0.0,0.0,0.0,0.0,0.0,0.0,0.0,0.0,0.0,0.0,0.0,0.0,0.0,0.0,0.0,0.0,0.0,0.0,0.0,0.0,0.0,0.0,0.0,0.0,0.0,0.0,0.0,0.0,0.0,0.0,0.0,0.0,0.0,0.0,0.0,0.0,0.0,0.0,0.0,0.0,0.0,0.0,0.0,0.0,0.0,0.0,0.0,0.0,0.0,0.0,0.0,0.0,0.0,0.0,0.0,0.0,0.0,0.0,0.0,0.0,0.0,0.0,0.0,0.0,0.0,0.0,0.0,0.0,0.0,0.0,0.0,0.0,0.0,0.0,0.0,0.0,0.0,0.0,0.0,0.0,0.0,0.0,0.0,0.0,0.0,0.0,0.0,0.0,0.0,0.0,0.0,0.0,0.0,0.0,0.0,0.0,0.0,0.0,0.0,0.0,0.0,0.0,0.0,0.0,0.0,0.0,0.0,0.0,0.0,0.0,0.0,0.0,0.0,0.0,0.0,0.0,0.0,0.0,0.0,0.0,0.0,0.0,0.0,0.0,0.0,0.0,0.0,0.0,0.0,0.0,0.0,0.0,0.0,0.0,0.0,0.0,0.0,0.0,0.0,0.0,0.0,0.0,0.0,0.0,0.0,0.0,0.0,0.0,0.0,0.0,0.0,0.0,0.0,0.0,0.0,0.0,0.0,0.0,0.0,0.0,0.0,0.0,0.0,0.0,0.0,0.0,0.0,0.0,0.0,0.0,0.0,0.0,0.0,0.0,0.0,0.0,0.0,0.0,0.0,0.0,0.0,0.0,0.0,0.0,0.0,0.1434,0.0,0.0,0.0,0.0,0.0,0.0,0.0,0.0,0.0,0.0,0.0,0.0,0.0,0.0,0.0,0.0,0.0,0.0,0.0,0.0,0.0,0.0,0.0,0.0,0.0,0.0,0.0,0.0,0.0,0.0,0.0,0.0,0.0,0.0,0.0,0.0,0.0,0.0,0.7596,0.7961,0.7932,0.7623,0.8238,0.8394,0.8144,0.0,0.0,0.0,0.0,0.0,0.0,0.0,0.0,0.0,0.0,0.0,0.0,0.0,0.0,0.0,0.0,0.0,0.0,0.0,0.0,0.0,0.0,0.0,0.0,0.0,0.0,0.0,0.0,0.0,0.0,0.0,0.0,0.0,0.0,0.0,0.0,0.0,0.0,0.0,0.0,0.0,0.0,0.0,0.0,0.0,0.0,0.0,0.0,0.0,0.0,0.0,0.0,0.0,0.0,0.0,0.0,0.0,0.0,0.0,0.0,0.0,0.0,0.0,0.0,0.0,0.0,0.0,0.0,0.0,0.0,0.0,0.1412,0.0,0.0,0.0,0.0,0.0,0.0,0.0,0.0,0.0,0.0,0.0,0.0,0.0,0.0,0.0,0.0,0.0,0.0,0.0,0.0,0.0,0.0,0.0,0.0,0.4761,0.4731,0.486,0.4922,0.0,0.0,0.0,0.0,0.0,0.0,0.0,0.6651,0.6992,0.7381,0.7484,0.7459,0.7402,0.7974,0.796,0.7456,0.8521,0.0,0.0,0.0,0.0,0.0,0.0,0.0,0.0,0.0,0.0,0.0,0.0,0.0,0.0,0.0,0.0,0.0,0.0,0.0,0.0,0.0,0.0,0.0,0.0,0.0,0.0,0.0,0.0,0.0,0.0,0.0,0.0,0.0,0.0,0.0,0.0,0.0,0.0,0.0,0.0,0.0,0.0,0.0,0.0,0.0,0.0,0.0,0.0,0.0,0.0,0.0,0.0,0.0,0.0,0.0,0.0,0.0,0.0,0.0,0.0,0.0,0.0,0.0,0.0,0.0701,0.0739,0.0552,0.0653,0.0958,0.1139,0.1187,0.1107,0.0,0.0,0.0,0.0,0.0,0.0,0.0,0.0,0.0,0.0,0.0,0.0,0.0,0.0,0.0,0.0,0.0,0.0,0.0,0.0,0.0,0.0,0.4495,0.4561,0.4367,0.4812,0.4998,0.4836,0.0,0.0,0.0,0.0,0.0,0.6214,0.6383,0.6626,0.6988,0.6818,0.6556,0.6219,0.6651,0.6631,0.6309,0.81,0.859,0.8068,0.0,0.0,0.0,0.0,0.0,0.0,0.0,0.0,0.0,0.0,0.0,0.0,0.0,0.0,0.0,0.0,0.0,0.0,0.0,0.0,0.0,0.0,0.0,0.0,0.0,0.0,0.0,0.0,0.0,0.0,0.0,0.0,0.0,0.0,0.0,0.0,0.0,0.0,0.0,0.0,0.0,0.252,0.2397,0.0,0.0,0.0,0.0,0.0,0.0,0.0,0.0,0.0,0.0,0.0,0.0,0.0,0.0,0.0583,0.0447,0.0377,0.0377,0.0192,0.0117,0.0117,0.0266,0.0338,0.0412,0.0803,0.0,0.1109,0.1206,0.0,0.0,0.0,0.0,0.0,0.0,0.0,0.0,0.0,0.0,0.0,0.0,0.0,0.0,0.0,0.0,0.0,0.0,0.0,0.0,0.0,0.4456,0.4495,0.4429,0.4769,0.4954,0.4916,0.5182,0.0,0.0,0.0,0.562,0.5848,0.5851,0.591,0.612,0.6152,0.605,0.5905,0.676,0.6889,0.6464,0.7854,0.8133,0.7521,0.7943,0.0,0.0,0.0,0.0,0.0,0.0,0.0,0.0,0.0,0.0,0.0,0.0,0.0,0.0,0.0,0.0,0.0,0.0,0.0,0.0,0.0,0.0,0.0,0.0,0.0,0.0,0.0,0.0,0.0,0.0,0.0,0.0,0.0,0.0,0.0,0.0,0.0,0.0,0.0,0.2373,0.1941,0.2262,0.2101,0.2042,0.0,0.0,0.0,0.0,0.0,0.0,0.0,0.0,0.0,0.0856,0.0642,0.0421,0.0233,0.0159,0.0121,0.0121,0.0041,0.0041,0.0163,0.0162,0.0317,0.0618,0.0573,0.0776,0.1161,0.1178,0.125,0.1371,0.0,0.0,0.0,0.0,0.0,0.0992,0.0,0.0,0.0,0.0,0.0,0.0,0.0,0.0,0.0,0.0,0.0,0.0,0.4344,0.4415,0.4483,0.455,0.478,0.4929,0.501,0.5136,0.5279,0.5402,0.5359,0.5359,0.5484,0.5366,0.5342,0.5362,0.5639,0.5744,0.5722,0.6723,0.6905,0.6494,0.7319,0.7509,0.7219,0.7694,0.7908,0.7942,0.0,0.0,0.0,0.0,0.0,0.0,0.0,0.0,0.0,0.0,0.0,0.0,0.0,0.0,0.0,0.0,0.0,0.0,0.0,0.0,0.0,0.0,0.0,0.0,0.0,0.0,0.0,0.0,0.0,0.0,0.0,0.0,0.0,0.0,0.0,0.0,0.0,0.2042,0.1646,0.2012,0.1855,0.1732,0.0,0.0,0.0,0.0,0.0,0.0,0.0632,0.0752,0.0726,0.0506,0.0317,0.0161,0.0,0.0,0.0,0.0,0.0042,0.0167,0.0292,0.0208,0.0367,0.0713,0.0476,0.0621,0.1048,0.1043,0.1182,0.1383,0.1391,0.1416,0.1486,0.1405,0.1211,0.0954,0.0,0.0,0.0,0.0,0.0,0.0,0.0,0.0,0.0,0.0,0.0,0.4293,0.4463,0.4397,0.4432,0.4679,0.4831,0.4929,0.501,0.5001,0.5145,0.5402,0.5223,0.512,0.512,0.5126,0.5092,0.5038,0.5401,0.5565,0.5444,0.5865,0.5951,0.5752,0.6207,0.6767,0.7413,0.7613,0.781,0.7972,0.7686,0.0,0.0,0.0,0.0,0.0,0.0,0.0,0.0,0.0,0.0,0.0,0.0,0.0,0.0,0.0,0.0,0.0,0.0,0.0,0.0,0.0,0.0,0.0,0.0,0.0,0.0,0.0,0.0,0.0,0.0,0.0,0.0,0.0,0.0,0.0,0.0,0.0,0.0,0.1684,0.15,0.0,0.0,0.0,0.0,0.1674,0.1143,0.0626,0.0157,0.0082,-0.0167,-0.0586,-0.021,0.0,0.0,0.0,0.0,0.0,0.0206,0.0285,0.0326,0.0478,0.0478,0.0325,0.0528,0.0608,0.0644,0.0825,0.1092,0.1386,0.1383,0.1528,0.1669,0.1486,0.1401,0.1329,0.0,0.0,0.0,0.0,0.0,0.0,0.0,0.0,0.44,0.4694,0.4435,0.4234,0.4303,0.4362,0.4472,0.458,0.4688,0.4795,0.4862,0.4668,0.4675,0.4928,0.4837,0.4769,0.4763,0.4649,0.4613,0.4689,0.4996,0.5187,0.5272,0.582,0.6034,0.595,0.6251,0.6616,0.7132,0.7676,0.8047,0.8254,0.8411,0.836,0.0,0.0,0.0,0.0,0.0,0.0,0.0,0.0,0.0,0.0,0.0,0.0,0.0,0.0,0.0,0.0,0.0,0.0,0.0,0.0,0.0,0.0,0.0,0.0,0.0,0.0,0.0,0.0,0.0,0.0,0.0,0.0,0.0,0.0,0.0,0.0,0.0,0.1295,0.1001,0.0,0.0,0.0803,0.0578,-0.0039,-0.004,-0.0246,-0.0821,-0.0625,-0.0505,-0.0505,-0.0476,-0.0307,0.0,0.0,0.0,0.0,0.0091,0.009,0.0089,0.0176,0.026,0.0298,0.0255,0.0464,0.0872,0.081,0.0985,0.134,0.134,0.1365,0.1381,0.1294,0.1276,0.1258,0.0,0.0,0.0,0.0,0.0,0.0,0.0,0.0,0.4298,0.4613,0.4288,0.4052,0.4196,0.4254,0.4318,0.447,0.4501,0.4522,0.4633,0.4402,0.4388,0.4688,0.4643,0.4561,0.4506,0.4349,0.4348,0.4483,0.4741,0.5,0.5259,0.5598,0.5769,0.5861,0.6077,0.6383,0.6777,0.7611,0.8115,0.8408,0.8773,0.8676,0.8299,0.0,0.0,0.0,0.0,0.0,0.0,0.0,0.0,0.0,0.0,0.0,0.0,0.0,0.0,0.0,0.0,0.0,0.0,0.0,0.0,0.0,0.0,0.0,0.0,0.0,0.0,0.0,0.0,0.0,0.0,0.0,0.0,0.0,0.0,0.0,0.0852,0.071,0.0497,0.0235,-0.008,0.0121,0.0,-0.0699,-0.0505,-0.0683,-0.1289,-0.1117,-0.0995,-0.1055,-0.0807,-0.0546,-0.0275,-0.0094,0.0,0.0,0.0047,0.0094,0.0092,0.0276,0.0316,0.0308,0.0264,0.0478,0.0894,0.0767,0.0916,0.1287,0.1317,0.1254,0.1227,0.1227,0.1252,0.1234,0.0,0.0,0.0,0.0,0.0,0.0,0.0,0.4194,0.4039,0.4365,0.3948,0.3748,0.4134,0.3979,0.3958,0.4384,0.4233,0.4148,0.4305,0.421,0.4321,0.4659,0.4627,0.4509,0.4307,0.4221,0.4288,0.4521,0.4659,0.4928,0.5377,0.5102,0.5144,0.5416,0.5589,0.5941,0.6473,0.7408,0.7971,0.8357,0.8613,0.8605,0.8401,0.0,0.0,0.0,0.0,0.0,0.0,0.0,0.0,0.0,0.0,0.0,0.0,0.0,0.0,0.0,0.0,0.0,0.0,0.0,0.0,0.0,0.0,0.0,0.0,0.0,0.0,0.0,0.0,0.0,0.0,0.0,0.0,0.0,0.1059,0.1045,0.0765,-0.0039,-0.004,-0.0206,-0.0674,-0.0295,0.0,-0.0042,-0.0258,-0.0659,-0.1165,-0.1345,-0.169,-0.2231,-0.1261,-0.0748,-0.081,-0.0239,0.0,0.0,0.0187,0.0278,0.0324,0.0772,0.072,0.0315,0.0584,0.0666,0.0698,0.0697,0.0946,0.1304,0.1316,0.1286,0.1299,0.1298,0.1297,0.1296,0.0,0.0,0.0,0.0,0.0,0.0,0.0,0.4367,0.427,0.4501,0.4179,0.3946,0.404,0.4016,0.4116,0.4384,0.4233,0.4217,0.4417,0.396,0.3772,0.3883,0.4017,0.4134,0.4219,0.4226,0.4361,0.4727,0.4728,0.4876,0.517,0.5046,0.5055,0.5099,0.5188,0.563,0.6428,0.7051,0.784,0.8742,0.9019,0.9026,0.885,0.0,0.0,0.0,0.0,0.0,0.0,0.0,0.0,0.0,0.0,0.0,0.0,0.0,0.0,0.0,0.0,0.0,0.0,0.0,0.0,0.0,0.0,0.0,0.0,0.0,0.0,0.0,0.0,0.0,0.0,0.0,0.0,0.0118,0.0463,0.0232,-0.0118,-0.0494,-0.0374,-0.0381,-0.0659,-0.0435,-0.0347,-0.0484,-0.0576,-0.0847,-0.13,-0.1391,-0.1487,-0.1641,-0.1013,-0.0654,-0.0524,0.0,0.0196,0.0,0.0049,0.0098,0.0097,0.0192,0.019,0.0094,0.0139,0.0366,0.0682,0.0716,0.0966,0.1376,0.1304,0.1289,0.132,0.1299,0.1316,0.1296,0.0,0.0,0.0,0.0,0.0,0.0,0.0,0.4386,0.4191,0.4391,0.4142,0.397,0.3946,0.3908,0.388,0.3995,0.3802,0.375,0.395,0.3743,0.3668,0.373,0.3917,0.4068,0.4178,0.4205,0.4328,0.4608,0.4591,0.4704,0.4988,0.4878,0.4869,0.4956,0.4917,0.535,0.6068,0.6786,0.7686,0.864,0.9183,0.9269,0.9148,0.9232,0.9086,0.877,0.8459,0.8138,0.7809,0.7258,0.0,0.0,0.0,0.0,0.0,0.0,0.0,0.0,0.0,0.0,0.0,0.0,0.0,0.0,0.0,0.0,0.0,0.0,0.0,0.0,0.0,0.0,0.0,0.0,0.0334,-0.0337,-0.0171,-0.0376,-0.058,-0.0681,-0.0607,-0.0619,-0.068,-0.0499,-0.0455,-0.0552,-0.0552,-0.0786,-0.1305,-0.148,-0.1577,-0.1509,-0.1184,-0.0815,-0.0391,0.0,0.015,0.0,0.0,0.0,0.0,0.0099,0.0098,0.0,0.0095,0.033,0.0561,0.0687,0.0948,0.0,0.0,0.0,0.0,0.0,0.1302,0.1316,0.0,0.0,0.0,0.0,0.0,0.0,0.0,0.4303,0.402,0.4205,0.4069,0.3939,0.3949,0.3707,0.3526,0.3565,0.3287,0.3144,0.3218,0.3604,0.3834,0.3873,0.4057,0.4194,0.4212,0.4227,0.4228,0.4314,0.435,0.4535,0.4824,0.4675,0.4711,0.4942,0.4813,0.5099,0.5698,0.6685,0.7555,0.8372,0.9187,0.9465,0.9393,0.9572,0.9422,0.901,0.859,0.8199,0.7822,0.7098,0.0,0.0,0.0,0.0,0.0,0.0,0.0,0.0,0.0,0.0,0.0,0.0,0.0,0.0,0.0,0.0,0.0,0.0,0.0,0.0,0.0,0.0,0.0,0.0,-0.0044,-0.0538,-0.071,-0.0776,-0.0838,-0.0748,-0.0772,-0.0743,-0.0696,-0.0519,-0.0381,-0.0381,-0.0381,-0.0625,-0.1076,0.0,0.0,0.0,0.0,-0.1037,-0.0352,-0.005,0.005,0.0,0.0051,0.0051,0.0,0.0253,0.025,0.0049,0.0344,0.0486,0.0525,0.0749,0.0973,0.1199,0.1329,0.1378,0.1311,0.1311,0.1292,0.0,0.0,0.0,0.0,0.0,0.0,0.0,0.0,0.4478,0.428,0.4418,0.4313,0.4206,0.4148,0.3902,0.3802,0.396,0.3546,0.3313,0.3435,0.3676,0.3804,0.382,0.3901,0.4026,0.4212,0.424,0.4318,0.4364,0.438,0.461,0.4967,0.4705,0.4856,0.528,0.4836,0.5346,0.6561,0.6817,0.7702,0.8975,0.9403,0.968,0.9876,0.9919,0.9743,0.9436,0.9192,0.8484,0.762,0.7187,0.6523,0.5813,0.5665,0.544,0.0,0.0,0.0,0.0,0.0,0.0,0.0,0.0,0.0,0.0,0.0,0.0,0.0,0.0,0.0,0.0,0.0,0.0,0.0,0.0402,-0.0414,-0.0847,-0.0238,-0.0718,-0.1098,-0.1033,-0.0708,-0.0569,-0.0758,-0.0571,-0.0381,-0.0381,-0.0381,-0.043,-0.0527,-0.086,0.0,-0.0578,-0.0384,-0.0242,-0.0099,0.0395,0.0448,0.0,0.0,0.0,0.0,0.0253,0.0353,0.0351,0.0593,0.098,0.1365,0.1386,0.1503,0.1662,0.1485,0.1408,0.1382,0.1382,0.1364,0.1298,0.0,0.0,0.0,0.0,0.0,0.0,0.0,0.4897,0.4618,0.4778,0.4627,0.4467,0.4399,0.4199,0.3984,0.3844,0.3465,0.3343,0.3526,0.3716,0.3825,0.3891,0.3987,0.4099,0.4232,0.4277,0.432,0.4367,0.4459,0.462,0.4808,0.4709,0.485,0.509,0.4947,0.5473,0.6549,0.6901,0.7749,0.89,0.9358,0.9654,0.982,0.9951,0.9907,0.9719,0.9143,0.8533,0.7835,0.7079,0.6442,0.588,0.5655,0.5557,0.5436,0.0,0.0,0.0,0.0,0.0,0.0,0.0,0.0,0.0,0.0,0.0,0.0,0.0,0.0,0.2117,0.0,0.0,0.0181,0.0,-0.0474,-0.068,-0.0245,-0.0545,-0.0788,-0.0766,-0.0534,-0.044,-0.0581,-0.0244,-0.0049,-0.0196,-0.0098,0.0,0.0,-0.0245,-0.0098,0.0638,0.0343,0.0394,0.0797,0.0797,0.0651,0.0404,0.0556,0.0505,0.0404,0.0556,0.0606,0.0606,0.09,0.1146,0.1442,0.1708,0.1914,0.2017,0.1884,0.1799,0.181,0.181,0.1743,0.1712,0.0,0.0,0.0,0.0,0.0,0.0,0.0,0.5326,0.497,0.5129,0.4959,0.4766,0.4673,0.4432,0.4094,0.3569,0.3432,0.3397,0.356,0.3703,0.3844,0.3986,0.4106,0.4193,0.4297,0.43,0.43,0.43,0.4465,0.4594,0.4645,0.4708,0.4833,0.4928,0.505,0.5595,0.6452,0.7038,0.7816,0.8697,0.9268,0.9531,0.9646,0.9907,0.9951,0.9816,0.8943,0.843,0.7986,0.6938,0.631,0.5943,0.5713,0.5666,0.5623,0.5153,0.5235,0.0,0.0,0.0,0.0,0.0,0.0,0.0,0.0,0.0,0.3897,0.3657,0.2528,0.1549,0.1487,0.062,-0.0139,-0.038,-0.0438,-0.0447,-0.0353,-0.0354,-0.03,-0.0097,-0.0198,-0.0201,-0.0099,0.025,0.0454,0.0303,0.0454,0.0555,0.0606,0.0403,0.0655,0.1664,0.1058,0.1009,0.1667,0.1262,0.096,0.0859,0.0859,0.0859,0.0808,0.0859,0.0859,0.0909,0.1263,0.1414,0.1463,0.1988,0.2295,0.2395,0.2356,0.2359,0.236,0.2251,0.2176,0.2099,0.0,0.0,0.0,0.0,0.0,0.0,0.0,0.0,0.5309,0.5298,0.5262,0.5151,0.4895,0.454,0.4037,0.3397,0.3638,0.3734,0.352,0.3709,0.3844,0.3986,0.4002,0.4128,0.4295,0.43,0.43,0.43,0.44,0.4545,0.478,0.4649,0.4888,0.5317,0.5303,0.5813,0.6785,0.7306,0.8049,0.882,0.9389,0.9581,0.9646,0.9907,0.9864,0.9579,0.8931,0.8229,0.7465,0.668,0.6207,0.5849,0.5527,0.5538,0.5637,0.5289,0.5216,0.5199,0.5031,0.4886,0.4828,0.4766,0.4607,0.4407,0.0,0.0,0.3796,0.3418,0.2496,0.168,0.1474,0.0421,-0.0387,-0.0382,-0.059,-0.0605,-0.0101,-0.0253,-0.005,0.0902,0.0604,0.0504,0.0955,0.0857,0.0959,0.1412,0.121,0.121,0.1462,0.121,0.1361,0.1917,0.1865,0.1865,0.1967,0.1917,0.1615,0.1162,0.1162,0.101,0.0808,0.1061,0.1162,0.1212,0.1918,0.227,0.232,0.282,0.2886,0.2689,0.2927,0.2987,0.2922,0.2411,0.2195,0.2191,0.0,0.0,0.0,0.0,0.0,0.0,0.0,0.0,0.0,0.5645,0.5487,0.5307,0.5135,0.4686,0.4321,0.4073,0.3855,0.3729,0.3785,0.3779,0.3844,0.3986,0.4087,0.4173,0.4295,0.43,0.43,0.43,0.4344,0.4436,0.4577,0.4577,0.4715,0.495,0.5374,0.5855,0.6481,0.7162,0.7813,0.848,0.8981,0.9301,0.9462,0.969,0.9691,0.9548,0.8989,0.8457,0.0,0.7014,0.6402,0.5897,0.5638,0.5538,0.5471,0.5265,0.5186,0.5138,0.4933,0.4753,0.0,0.0,0.4699,0.4608,0.4499,0.4389,0.4166,0.3669,0.2913,0.2159,0.1583,0.0815,0.0196,0.0,-0.0248,-0.0202,0.0202,0.0253,0.0656,0.1563,0.1614,0.1513,0.1462,0.1614,0.1716,0.1613,0.1681,0.1845,0.2102,0.2071,0.2229,0.2719,0.2615,0.2499,0.2472,0.232,0.2018,0.1667,0.1667,0.1516,0.1263,0.1364,0.1616,0.1918,0.2422,0.2725,0.2876,0.313,0.3115,0.2989,0.3054,0.3124,0.3087,0.2781,0.2649,0.2644,0.0,0.0,0.0,0.0,0.0,0.0,0.0,0.0,0.0,0.0,0.5756,0.5533,0.5269,0.49,0.4659,0.46,0.4093,0.382,0.3996,0.3829,0.3808,0.395,0.4063,0.4151,0.4263,0.4265,0.4275,0.43,0.4365,0.4352,0.4398,0.4604,0.4731,0.4729,0.5611,0.6161,0.6482,0.7257,0.7871,0.8424,0.8863,0.9174,0.941,0.9554,0.9602,0.9545,0.8961,0.8543,0.8174,0.7211,0.66,0.6138,0.5776,0.5601,0.5496,0.5282,0.5199,0.5146,0.4947,0.0,0.0,0.482,0.4716,0.4637,0.4732,0.4646,0.4401,0.3905,0.3254,0.2589,0.1861,0.1216,0.0692,0.0295,0.01,0.0101,0.0455,0.0657,0.1161,0.2218,0.252,0.252,0.2268,0.2471,0.2476,0.2183,0.2315,0.2547,0.2717,0.2804,0.2967,0.3295,0.3173,0.3041,0.295,0.2732,0.2473,0.2223,0.2122,0.202,0.1818,0.1818,0.2019,0.2422,0.2674,0.2927,0.3079,0.318,0.318,0.3176,0.3133,0.3116,0.3103,0.3046,0.3044,0.3022,0.0,0.0,0.0,0.0,0.0,0.0,0.0,0.0,0.0,0.0,0.0,0.0,0.0,0.5093,0.496,0.4625,0.4338,0.4142,0.3996,0.3765,0.3712,0.3895,0.3906,0.3991,0.4216,0.422,0.4218,0.43,0.4302,0.4304,0.4304,0.4795,0.4975,0.502,0.6225,0.689,0.7102,0.7852,0.8428,0.8911,0.9174,0.9432,0.9584,0.9596,0.9602,0.9508,0.8698,0.8354,0.8127,0.6991,0.6638,0.6541,0.5846,0.5724,0.5796,0.5404,0.5255,0.5186,0.5186,0.0,0.4996,0.5003,0.468,0.4455,0.4594,0.4502,0.428,0.3892,0.3435,0.2923,0.2389,0.1475,0.0803,0.0788,0.0349,0.0202,0.0707,0.0808,0.1413,0.2972,0.3173,0.3376,0.0,0.3481,0.3304,0.3619,0.3422,0.3295,0.3353,0.3358,0.3358,0.341,0.3558,0.3576,0.3267,0.3209,0.3029,0.2775,0.2522,0.2371,0.2371,0.2371,0.2371,0.2422,0.2674,0.2826,0.2826,0.3079,0.318,0.318,0.3179,0.3177,0.3169,0.3108,0.3097,0.3086,0.0,0.0,0.0,0.0,0.0,0.0,0.0,0.0,0.0,0.0,0.0,0.0,0.0,0.0,0.0,0.0,0.4535,0.4235,0.4203,0.3921,0.3798,0.3889,0.3899,0.3957,0.4079,0.4081,0.4095,0.4081,0.4081,0.4327,0.4695,0.4869,0.5122,0.5497,0.621,0.6656,0.6918,0.7342,0.7904,0.8455,0.859,0.8875,0.9183,0.9186,0.9192,0.9155,0.0,0.8509,0.8276,0.7596,0.7057,0.6553,0.6148,0.5783,0.5452,0.5303,0.5294,0.5341,0.5331,0.0,0.5365,0.5298,0.5109,0.4955,0.4894,0.4877,0.4718,0.422,0.4002,0.3669,0.2966,0.2405,0.1927,0.157,0.1246,0.111,0.1312,0.1614,0.2219,0.3073,0.3527,0.0,0.0,0.0,0.0,0.3473,0.3445,0.3447,0.3467,0.3506,0.351,0.3469,0.3554,0.3505,0.3322,0.3301,0.3117,0.2775,0.2725,0.2674,0.2674,0.2826,0.2826,0.2674,0.2927,0.3079,0.3079,0.318,0.318,0.318,0.318,0.318,0.3177,0.3157,0.3187,0.3155,0.0,0.0,0.0,0.0,0.0,0.0,0.0,0.0,0.0,0.0,0.0,0.0,0.0,0.0,0.0,0.0,0.0,0.4515,0.4605,0.4194,0.4052,0.4327,0.4256,0.4323,0.4544,0.4545,0.4539,0.4573,0.4369,0.4529,0.5062,0.5062,0.5355,0.5811,0.6418,0.6767,0.6937,0.7307,0.7808,0.8296,0.841,0.8657,0.8989,0.8833,0.8845,0.0,0.867,0.8574,0.8455,0.806,0.7447,0.6837,0.6482,0.5932,0.5434,0.527,0.5285,0.5368,0.5292,0.5407,0.5539,0.5465,0.5358,0.5291,0.5184,0.5165,0.5052,0.4551,0.4462,0.4215,0.3531,0.3071,0.2676,0.2252,0.1931,0.1751,0.1864,0.2269,0.2774,0.3426,0.3802,0.0,0.0,0.0,0.0,0.3384,0.3454,0.3506,0.3527,0.3567,0.357,0.353,0.3507,0.3461,0.3384,0.3342,0.3239,0.3079,0.3079,0.3079,0.3079,0.3381,0.3331,0.3079,0.3281,0.3332,0.3332,0.323,0.318,0.318,0.318,0.318,0.318,0.318,0.318,0.3167,0.0,0.0,0.0,0.0,0.0,0.0,0.0,0.0,0.0,0.0,0.0,0.0,0.0,0.0,0.0,0.0,0.0,0.0,0.519,0.4613,0.4493,0.5075,0.4916,0.4996,0.5482,0.5464,0.5505,0.557,0.4999,0.4921,0.5341,0.5383,0.5634,0.6054,0.6757,0.7087,0.7128,0.7689,0.8094,0.8404,0.8586,0.8786,0.8891,0.8538,0.851,0.8661,0.8467,0.8524,0.8613,0.8264,0.7809,0.7282,0.6765,0.6185,0.5635,0.5343,0.5297,0.5278,0.5158,0.5337,0.5545,0.5545,0.5417,0.5363,0.5514,0.541,0.522,0.4781,0.4698,0.4547,0.0,0.0,0.2968,0.2786,0.2306,0.2075,0.2414,0.2674,0.3128,0.0,0.0,0.0,0.0,0.0,0.0,0.3556,0.0,0.3526,0.3585,0.3587,0.3587,0.3587,0.3531,0.35,0.3496,0.338,0.3447,0.3641,0.3638,0.3635,0.3635,0.3883,0.3883,0.3635,0.3635,0.3636,0.3586,0.3332,0.323,0.318,0.318,0.318,0.318,0.318,0.318,0.3172,0.0,0.0,0.0,0.0,0.0,0.0,0.0,0.0,0.0,0.0,0.0,0.0,0.0,0.0,0.0,0.0,0.0,0.0,0.5424,0.5127,0.4979,0.5111,0.4916,0.4915,0.5179,0.5159,0.5156,0.5239,0.5055,0.5255,0.5736,0.5774,0.6064,0.6606,0.6802,0.696,0.7105,0.7169,0.7491,0.7934,0.7857,0.7997,0.8307,0.8203,0.8292,0.8472,0.842,0.8434,0.8491,0.8531,0.7921,0.6921,0.577,0.5359,0.5218,0.5126,0.5172,0.5319,0.5377,0.565,0.5849,0.5849,0.5966,0.5986,0.5817,0.5754,0.5574,0.5042,0.4973,0.49,0.0,0.0,0.0,0.3606,0.3176,0.0,0.2976,0.323,0.0,0.3932,0.0,0.4534,0.4644,0.4371,0.0,0.0,0.3841,0.3571,0.3587,0.3587,0.3587,0.3587,0.3572,0.3542,0.3497,0.3588,0.3724,0.3965,0.4114,0.4189,0.4187,0.4288,0.4135,0.3883,0.3883,0.3784,0.3586,0.3534,0.3383,0.318,0.318,0.318,0.318,0.318,0.318,0.3179,0.0,0.0,0.0,0.0,0.0,0.0,0.0,0.0,0.0,0.0,0.0,0.0,0.0,0.0,0.0,0.0,0.0,0.0,0.0,0.5714,0.5586,0.5804,0.5594,0.5633,0.5946,0.5868,0.5902,0.6033,0.5574,0.5659,0.6213,0.5922,0.6083,0.6581,0.6581,0.6656,0.6757,0.6956,0.724,0.0,0.0,0.7908,0.8106,0.8015,0.8136,0.8392,0.8297,0.8254,0.8212,0.7801,0.0,0.6319,0.5196,0.4963,0.5048,0.4928,0.0,0.5227,0.5181,0.5497,0.5839,0.5839,0.6057,0.6255,0.6053,0.5952,0.5755,0.5317,0.5221,0.0,0.4778,0.0,0.0,0.0,0.0,0.0,0.3228,0.3533,0.3846,0.0,0.4409,0.0,0.4889,0.4593,0.4491,0.0,0.4035,0.3643,0.3757,0.3643,0.3587,0.3587,0.3587,0.3557,0.3497,0.359,0.379,0.4093,0.4206,0.432,0.4388,0.4537,0.4437,0.4185,0.0,0.4034,0.3784,0.3635,0.3433,0.318,0.318,0.318,0.318,0.318,0.318,0.318,0.0,0.0,0.0,0.0,0.0,0.0,0.0,0.0,0.0,0.0,0.0,0.0,0.0,0.0,0.0,0.0,0.0,0.0,0.0,0.0,0.6218,0.6675,0.6491,0.6596,0.6991,0.6977,0.7033,0.7267,0.6368,0.6219,0.6669,0.6154,0.6079,0.6341,0.6341,0.6345,0.6345,0.6906,0.7165,0.7261,0.7826,0.8091,0.8096,0.0,0.8096,0.8373,0.8155,0.8078,0.7832,0.6702,0.6128,0.5766,0.489,0.4805,0.5007,0.4732,0.4866,0.5031,0.4864,0.5186,0.5586,0.5586,0.5965,0.6255,0.6116,0.6005,0.5828,0.557,0.0,0.53,0.4878,0.461,0.4316,0.3908,0.0,0.3458,0.3222,0.3632,0.4008,0.4176,0.4467,0.4817,0.5164,0.4818,0.4648,0.4931,0.4203,0.3811,0.398,0.3757,0.3643,0.3587,0.3587,0.3563,0.351,0.3555,0.3762,0.411,0.4152,0.4261,0.4437,0.4686,0.4686,0.4438,0.0,0.0,0.4033,0.3784,0.3534,0.323,0.323,0.323,0.318,0.318,0.318,0.318,0.0,0.0,0.0,0.0,0.0,0.0,0.0,0.0,0.0,0.0,0.7493,0.7456,0.0,0.0,0.0,0.0,0.0,0.0,0.0,0.0,0.0,0.6708,0.6513,0.6591,0.6979,0.7116,0.726,0.7523,0.7347,0.7244,0.719,0.7086,0.6886,0.6639,0.6639,0.6539,0.6409,0.6672,0.6996,0.7315,0.7692,0.7968,0.811,0.8263,0.0,0.0,0.8155,0.7902,0.7434,0.6353,0.5946,0.5729,0.4619,0.4467,0.469,0.4643,0.4722,0.4866,0.483,0.5186,0.5586,0.5586,0.5972,0.635,0.6135,0.607,0.0,0.0,0.5445,0.5341,0.4865,0.4829,0.4626,0.3966,0.0,0.0,0.0,0.0,0.3739,0.0,0.0,0.0,0.0,0.0,0.0,0.0,0.0,0.0,0.4038,0.398,0.3813,0.3587,0.3587,0.3582,0.3572,0.3743,0.3949,0.4187,0.4334,0.4517,0.4736,0.4784,0.4784,0.4736,0.0,0.0,0.4338,0.4288,0.3987,0.3534,0.3534,0.3383,0.318,0.318,0.318,0.318,0.0,0.0,0.0,0.0,0.0,0.0,0.0,0.0,0.7877,0.7602,0.7487,0.7466,0.7512,0.7489,0.0,0.0,0.0,0.0,0.0,0.0,0.0,0.0,0.6852,0.692,0.7095,0.728,0.7463,0.7707,0.0,0.7518,0.7416,0.7344,0.7126,0.6811,0.6811,0.6734,0.6693,0.6995,0.7239,0.746,0.8021,0.8339,0.8425,0.0,0.0,0.0,0.0,0.792,0.7392,0.665,0.6177,0.5685,0.4677,0.4457,0.461,0.4657,0.4615,0.4585,0.4585,0.4987,0.5388,0.5388,0.5887,0.6309,0.6059,0.0,0.0,0.0,0.5458,0.5431,0.5153,0.5046,0.0,0.0,0.0,0.0,0.0,0.0,0.0,0.0,0.0,0.0,0.0,0.0,0.0,0.0,0.0,0.0,0.4258,0.3979,0.3757,0.3587,0.3757,0.3757,0.3587,0.3838,0.4065,0.4265,0.4295,0.4529,0.4904,0.4857,0.4784,0.4784,0.0,0.0,0.4388,0.4388,0.4187,0.3784,0.3635,0.3534,0.3383,0.323,0.318,0.318,0.0,0.0,0.0,0.0,0.0,0.0,0.0,0.8117,0.7983,0.7652,0.7497,0.7462,0.7473,0.7455,0.7441,0.0,0.0,0.0,0.0,0.0,0.0,0.0,0.0,0.0,0.0,0.0,0.0,0.0,0.7893,0.0,0.0,0.0,0.0,0.0,0.7214,0.722,0.719,0.7608,0.7727,0.0,0.0,0.883,0.0,0.0,0.0,0.0,0.0,0.8052,0.7557,0.7126,0.6544,0.587,0.519,0.4822,0.4665,0.4769,0.4649,0.4493,0.4477,0.4889,0.529,0.529,0.5822,0.6306,0.5947,0.5847,0.0,0.0,0.5429,0.5424,0.5323,0.5255,0.5058,0.0,0.4423,0.0,0.0,0.0,0.0,0.0,0.0,0.0,0.0,0.0,0.0,0.0,0.0,0.0,0.0,0.3977,0.3643,0.3587,0.3813,0.3813,0.3587,0.3813,0.4003,0.4209,0.4152,0.4402,0.4946,0.4822,0.478,0.4863,0.0,0.0,0.0,0.4487,0.4336,0.4085,0.3836,0.3687,0.3586,0.3383,0.323,0.318,0.0,0.0,0.0,0.0,0.0,0.0,0.0,0.8412,0.8188,0.7663,0.7596,0.7539,0.7423,0.7308,0.7289,0.0,0.0,0.0,0.0,0.0,0.0,0.0,0.0,0.0,0.0,0.0,0.0,0.0,0.0,0.0,0.0,0.0,0.0,0.0,0.0,0.0,0.8091,0.8448,0.0,0.0,0.0,0.0,0.0,0.0,0.0,0.0,0.0,0.8264,0.7938,0.7371,0.0,0.6588,0.6466,0.5644,0.4807,0.5027,0.0,0.0,0.4794,0.5135,0.5586,0.5586,0.5963,0.6189,0.5831,0.0,0.5472,0.5271,0.5219,0.5175,0.505,0.5291,0.5234,0.4539,0.4561,0.4435,0.0,0.0,0.0,0.0,0.0,0.0,0.0,0.0,0.0,0.0,0.0,0.0,0.0,0.4147,0.3868,0.3587,0.3643,0.3643,0.3587,0.3643,0.3724,0.3935,0.3929,0.4213,0.4722,0.4714,0.4825,0.4959,0.0,0.0,0.0,0.4784,0.4587,0.4338,0.4338,0.4038,0.3586,0.3584,0.3433,0.318,0.0,0.0,0.0,0.0,0.0,0.0,0.0,0.9117,0.8943,0.8601,0.8213,0.7981,0.8048,0.7635,0.7361,0.0,0.0,0.0,0.0,0.0,0.0,0.0,0.0,0.0,0.0,0.0,0.0,0.8654,0.0,0.0,0.0,0.0,0.0,0.0,0.0,0.0,0.0,0.0,0.0,0.0,0.0,0.0,0.0,0.0,0.0,0.0,0.0,0.0,0.808,0.0,0.0,0.0,0.7105,0.6572,0.0,0.0,0.5146,0.472,0.4561,0.4903,0.5297,0.5297,0.5809,0.6157,0.5677,0.0,0.5526,0.5252,0.5246,0.5311,0.5238,0.5384,0.5421,0.5117,0.5115,0.0,0.4501,0.0,0.0,0.0,0.0,0.0,0.0,0.0,0.0,0.0,0.0,0.0,0.0,0.4482,0.4258,0.4145,0.4145,0.4035,0.3868,0.3868,0.3855,0.3941,0.4065,0.4354,0.4753,0.4864,0.4982,0.5051,0.0,0.0,0.0,0.4857,0.4736,0.4636,0.4487,0.4288,0.4038,0.3885,0.3684,0.3433,0.0,0.0,0.0,0.0,0.0,0.9336,0.9432,0.9368,0.9249,0.907,0.8547,0.8241,0.8366,0.7863,0.7492,0.7549,0.0,0.0,0.0,0.0,0.0,0.0,0.0,0.0,0.0,0.0,0.8404,0.8767,0.8918,0.9026,0.0,0.0,0.0,0.0,0.0,0.0,0.0,0.0,0.0,0.0,0.0,0.0,0.0,0.0,0.0,0.0,0.0,0.0,0.0,0.0,0.0,0.7412,0.7677,0.7336,0.672,0.6013,0.5416,0.4902,0.456,0.4808,0.5149,0.5149,0.5633,0.6013,0.0,0.0,0.5488,0.5195,0.5205,0.5265,0.5265,0.5363,0.5402,0.5318,0.5298,0.5155,0.4747,0.0,0.0,0.0,0.0,0.0,0.0,0.0,0.0,0.0,0.0,0.0,0.0,0.4873,0.4704,0.448,0.448,0.4313,0.3982,0.3982,0.3982,0.398,0.4155,0.4405,0.4839,0.5,0.5066,0.0,0.0,0.0,0.0,0.4873,0.4784,0.4784,0.4585,0.4487,0.4388,0.4284,0.4034,0.3736,0.0,0.0,0.0,0.0,0.0,0.0,0.0,0.8874,0.8867,0.8719,0.8367,0.8109,0.8114,0.785,0.7694,0.7699,0.0,0.0,0.0,0.0,0.0,0.0,0.0,0.0,0.0,0.0,0.8301,0.89,0.8965,0.9076,0.9211,0.9464,0.0,0.0,0.0,0.0,0.0,0.0,0.0,0.0,0.0,0.0,0.0,0.0,0.0,0.0,0.0,0.0,0.0,0.0,0.0,0.0,0.0,0.797,0.7317,0.6364,0.5918,0.5578,0.5053,0.509,0.5282,0.5282,0.5499,0.5661,0.0,0.0,0.5159,0.5042,0.5021,0.5021,0.5021,0.5113,0.5111,0.4834,0.4936,0.4832,0.43,0.0,0.0,0.0,0.0,0.0,0.0,0.0,0.0,0.0,0.0,0.0,0.0,0.0,0.5098,0.4536,0.448,0.4313,0.3982,0.3982,0.3982,0.3982,0.398,0.4314,0.4873,0.4927,0.0,0.0,0.0,0.0,0.0,0.4873,0.4784,0.4784,0.4784,0.4636,0.4438,0.4686,0.4433,0.4033,0.0,0.0,0.0,0.0,0.0,0.0,0.0,0.9616,0.9372,0.9573,0.8998,0.8584,0.8584,0.8264,0.8042,0.8042,0.0,0.0,0.0,0.0,0.0,0.0,0.0,0.0,0.0,0.0,0.8719,0.8895,0.9058,0.9262,0.9459,0.9367,0.9373,0.9453,0.0,0.0,0.0,0.0,0.0,0.0,0.0,0.0,0.0,0.0,0.0,0.0,0.0,0.0,0.0,0.0,0.0,0.0,0.0,0.0,0.0,0.7157,0.6772,0.6395,0.5506,0.5536,0.5753,0.527,0.5354,0.5513,0.5349,0.5243,0.5154,0.504,0.5018,0.5018,0.5018,0.511,0.5135,0.4974,0.5074,0.5084,0.0,0.0,0.0,0.0,0.0,0.0,0.0,0.0,0.0,0.0,0.0,0.0,0.0,0.0,0.5326,0.51,0.4873,0.4706,0.4596,0.4426,0.4369,0.4369,0.4538,0.4707,0.4929,0.5156,0.0,0.0,0.0,0.0,0.0,0.4898,0.4784,0.4784,0.4784,0.4734,0.4686,0.4784,0.4585,0.4336,0.0,0.0,0.0,0.0,0.0,0.0,0.0,0.9913,0.9754,0.9983,0.9408,0.899,0.899,0.8528,0.8204,0.8204,0.0,0.0,0.0,0.0,0.0,0.0,0.0,0.0,0.8306,0.8585,0.8809,0.8895,0.9041,0.92,0.9432,0.919,0.9157,0.9333,0.9055,0.9125,0.0,0.0,0.0,0.0,0.0,0.0,0.9677,0.0,0.0,0.0,0.0,0.0,0.0,0.0,0.0,0.0,0.0,0.0,0.0,0.0,0.7635,0.7287,0.6167,0.6069,0.6193,0.5772,0.574,0.0,0.0,0.5394,0.53,0.5031,0.5018,0.5029,0.5072,0.5137,0.5162,0.5076,0.5156,0.0,0.0,0.0,0.0,0.0,0.0,0.0,0.0,0.0,0.0,0.0,0.0,0.0,0.0,0.0,0.5659,0.5547,0.5268,0.5043,0.4873,0.4761,0.4648,0.4648,0.4927,0.5152,0.5264,0.0,0.0,0.0,0.0,0.0,0.0,0.5411,0.5321,0.5236,0.5236,0.5186,0.5135,0.5236,0.5037,0.4738,0.0,0.0,0.0,0.0,0.0,0.0,0.0,0.0,0.0,0.9983,0.9594,0.9306,0.9306,0.8721,0.8301,0.8296,0.0,0.0,0.0,0.0,0.0,0.0,0.0,0.0,0.8517,0.8533,0.8635,0.8873,0.889,0.9003,0.9174,0.8981,0.8884,0.8884,0.8619,0.8764,0.923,0.9832,1.0191,1.0348,0.9886,0.9614,0.0,0.0,0.0,0.0,0.0,0.0,0.0,0.0,0.0,0.0,0.0,0.0,0.0,0.0,0.0,0.0,0.0,0.6664,0.6623,0.6582,0.0,0.0,0.5934,0.572,0.0,0.5135,0.5054,0.509,0.5165,0.5186,0.5183,0.5208,0.0,0.0,0.0,0.0,0.0,0.0,0.0,0.0,0.0,0.0,0.0,0.0,0.0,0.0,0.0,0.0,0.0,0.5822,0.5603,0.5324,0.4985,0.4985,0.4985,0.4985,0.5318,0.5596,0.5822,0.0,0.0,0.0,0.0,0.0,0.0,0.6248,0.6139,0.6092,0.6092,0.5939,0.5737,0.5992,0.5792,0.5391,0.0,0.0,0.0,0.0,0.0,0.0,0.0,0.0,0.0,0.0,0.9684,0.9454,0.9454,0.9422,0.9358,0.0,0.0,0.0,0.0,0.0,0.0,0.0,0.0,0.0,0.8517,0.8689,0.8721,0.8597,0.8809,0.8927,0.8971,0.8705,0.8694,0.8884,0.8619,0.8772,0.923,0.9689,0.9973,1.0125,0.9839,0.9666,0.0,0.0,0.0,0.0,0.8407,0.8336,0.0,0.0,0.0,0.0,0.0,0.0,0.0,0.0,0.8513,0.8498,0.7901,0.0,0.6948,0.6428,0.6283,0.6217,0.0,0.6074,0.5938,0.5559,0.5443,0.5403,0.5245,0.5186,0.5183,0.0,0.0,0.0,0.0,0.0,0.0,0.0,0.0,0.0,0.0,0.0,0.0,0.0,0.0,0.0,0.0,0.0,0.0,0.6161,0.6107,0.6051,0.5993,0.5993,0.5993,0.5993,0.6049,0.6105,0.6161,0.0,0.0,0.0,0.0,0.0,0.6679,0.6468,0.6564,0.6939,0.6939,0.6889,0.6836,0.6889,0.6839,0.6689,0.0,0.0,0.0,0.0,0.0,0.0,0.0,0.0,0.0,0.0,0.0,0.0,0.0,0.0,0.0,0.0,0.0,0.0,0.0,0.0,0.0,0.0,0.0,0.8952,0.8952,0.9115,0.9121,0.8952,0.9121,0.9189,0.9184,0.8858,0.8804,0.8926,0.8744,0.8876,0.9203,0.9406,0.9639,0.9901,0.9636,0.0,0.0,0.0,0.0,0.0,0.8619,0.8592,0.0,0.8755,0.8784,0.8703,0.0,0.0,0.0,0.0,0.8551,0.8479,0.8178,0.7949,0.7599,0.7057,0.6942,0.6865,0.6591,0.6511,0.636,0.5715,0.5598,0.5538,0.5319,0.0,0.0,0.0,0.0,0.0,0.0,0.0,0.0,0.0,0.0,0.0,0.0,0.0,0.0,0.0,0.0,0.0,0.0,0.0,0.0,0.0,0.6659,0.6606,0.633,0.6274,0.6274,0.6274,0.6439,0.6604,0.6879,0.0,0.0,0.0,0.0,0.0,0.7278,0.7391,0.7544,0.7736,0.7736,0.7686,0.7587,0.7587,0.7487,0.7385,0.0,0.0,0.0,0.0,0.0,0.0,0.0,0.0,0.0,0.0,0.0,0.0,0.0,0.0,0.0,0.0,0.0,0.0,0.0,0.0,0.0,0.0,0.9614,0.9518,0.9486,0.9486,0.9486,0.9486,0.9486,0.9486,0.9486,0.9204,0.9081,0.9087,0.9014,0.907,0.9236,0.9197,0.937,0.9663,0.9432,0.0,0.0,0.0,0.0,0.0,0.0,0.0,0.0,0.8959,0.8865,0.8703,0.8703,0.0,0.0,0.0,0.0,0.0,0.8217,0.825,0.8289,0.7876,0.7761,0.7603,0.7096,0.6938,0.6672,0.5867,0.5652,0.5625,0.0,0.5468,0.0,0.0,0.0,0.0,0.0,0.0,0.0,0.0,0.0,0.0,0.0,0.0,0.0,0.0,0.0,0.0,0.0,0.0,0.0,0.0,0.7043,0.6935,0.6442,0.6439,0.6439,0.6439,0.6771,0.7146,0.7619,0.7729,0.0,0.0,0.0,0.0,0.8,0.8438,0.8607,0.8581,0.8581,0.8432,0.8237,0.8237,0.8084,0.7879,0.0,0.0,0.0,0.0,0.0,0.0,0.0,0.0,0.0,0.0,0.0,0.0,0.0,0.0,0.0,0.0,0.0,0.0,0.0,0.0,0.0,1.087,1.0155,0.9678,0.9518,0.9486,0.9486,0.9486,0.9486,0.9486,0.9486,0.9454,0.9422,0.9428,0.94,0.9423,0.9456,0.945,0.9482,0.952,0.949,0.0,0.0,0.0,0.0,0.0,0.0,0.0,0.0,0.8975,0.8865,0.8703,0.8703,0.0,0.0,0.0,0.0,0.0,0.8403,0.8365,0.825,0.7676,0.7561,0.7522,0.7442,0.7134,0.6745,0.6205,0.5913,0.5808,0.5965,0.5707,0.5686,0.0,0.0,0.0,0.0,0.0,0.0,0.0,0.0,0.0,0.0,0.0,0.0,0.0,0.0,0.0,0.0,0.0,0.0,0.0,0.0,0.7154,0.7046,0.7046,0.7046,0.7046,0.7546,0.7764,0.7762,0.8307,0.8444,0.0,0.0,0.845,0.8809,0.8772,0.905,0.9426,0.9426,0.9381,0.9331,0.9331,0.9331,0.9229,0.0,0.0,0.0,0.0,0.0,0.0,0.0,0.0,0.0,0.0,0.0,0.0,0.0,0.0,0.0,0.0,0.0,0.0,0.0,0.0,1.1216,1.1216,1.0825,1.0478,1.0225,1.0193,1.0193,1.0193,1.0136,1.0199,1.0351,1.0129,0.9932,0.9773,0.9837,0.9937,1.0035,0.9898,0.9959,1.0132,0.0,0.0,0.0,0.0,0.0,0.0,0.0,0.0,0.0,0.0,0.9018,0.8822,0.8742,0.0,0.0,0.0,0.0,0.0,0.8441,0.8403,0.8315,0.7918,0.7751,0.7642,0.7522,0.7445,0.7238,0.6645,0.6408,0.6334,0.0,0.0,0.0,0.0,0.0,0.0,0.0,0.0,0.0,0.0,0.0,0.0,0.0,0.0,0.0,0.0,0.0,0.0,0.0,0.0,0.0,0.0,0.0,0.0,0.7549,0.775,0.775,0.7549,0.7768,0.8135,0.8641,0.891,0.8927,0.877,0.0,0.9019,0.8933,0.916,0.9377,0.9579,0.9579,0.9579,0.9579,0.9579,0.9579,0.9575,0.0,0.0,0.0,0.0,0.0,0.0,0.0,0.0,0.0,0.0,0.0,0.0,0.0,0.0,0.0,0.0,0.0,0.0,0.0,1.1404,1.1397,1.149,1.149,1.1303,1.0933,1.0902,1.0902,1.0926,1.0807,1.0902,1.1153,1.0876,1.0609,1.036,1.0428,1.0556,1.0689,1.0345,1.0402,1.0651,0.0,0.0,0.0,0.0,0.0,0.0,0.0,0.0,0.0,0.0,0.0,0.0,0.0,0.0,0.0,0.8703,0.8703,0.8665,0.8513,0.8441,0.8372,0.8221,0.8008,0.7849,0.7733,0.774,0.7651,0.7163,0.6933,0.0,0.0,0.0,0.0,0.0,0.0,0.0,0.0,0.0,0.0,0.0,0.0,0.0,0.0,0.0,0.0,0.0,0.0,0.0,0.0,0.0,0.0,0.0,0.0,0.0,0.7952,0.8272,0.822,0.7952,0.8062,0.8521,0.9216,0.9372,0.9385,0.9225,0.9676,0.9496,0.9023,0.9426,0.9579,0.9579,0.9579,0.9579,0.9579,0.9579,0.9579,0.9579,0.0,0.0,0.0,0.0,0.0,0.0,0.0,0.0,0.0,0.0,0.0,0.0,0.0,0.0,0.0,0.0,0.0,0.0,0.0,1.1654,1.1716,1.2034,1.2027,1.1809,1.1272,1.1153,1.1153,1.1272,1.124,1.1272,1.1279,1.1378,1.1414,1.1395,1.133,1.1328,1.1294,1.0764,1.0575,1.0569,1.0159,0.0,0.0,0.0,0.0,0.0,0.0,0.0,0.0,0.0,0.0,0.0,0.0,0.0,0.8946,0.8742,0.8703,0.8703,0.8665,0.8551,0.841,0.8374,0.8216,0.8102,0.82,0.7985,0.7742,0.7814,0.7457,0.7295,0.0,0.0,0.0,0.0,0.0,0.0,0.0,0.0,0.0,0.0,0.0,0.0,0.0,0.0,0.0,0.0,0.0,0.0,0.0,0.0,0.0,0.0,0.0,0.0,0.8338,0.8377,0.8377,0.8391,0.8923,0.9153,0.9042,0.9599,0.976,0.9549,0.9595,0.9591,0.9529,0.9579,0.9579,0.9579,0.9579,0.9579,0.9579,0.9579,0.9579,0.9579,0.0,0.0,0.0,0.0,0.0,0.0,0.0,0.0,0.0,0.0,0.0,0.0,0.0,0.0,0.0,0.0,0.0,0.0,0.0,1.1685,1.1747,1.2096,1.1965,1.1934,1.1926,1.1591,1.1435,1.1498,1.1498,1.1435,1.131,1.1657,1.1808,1.1829,1.2107,1.2263,1.2381,1.2004,1.1755,1.1647,1.1503,1.1058,0.0,0.0,0.0,0.0,0.0,0.0,0.0,0.0,0.9549,0.9435,0.9251,0.9175,0.9175,0.9094,0.898,0.8903,0.8903,0.8746,0.8624,0.8683,0.8669,0.8542,0.8344,0.8332,0.8371,0.8308,0.8087,0.8017,0.0,0.0,0.0,0.0,0.0,0.0,0.0,0.0,0.0,0.0,0.0,0.0,0.0,0.0,0.0,0.0,0.0,0.0,0.0,0.0,0.0,0.0,0.0,0.0,0.0,0.9016,0.9167,0.917,0.9119,0.9188,0.9376,0.9626,0.9689,0.9579,0.9579,0.9579,0.9579,0.9579,0.9579,0.9628,0.9772,0.9723,0.9628,0.9772,0.9723,0.9579,0.0,0.0,0.0,0.0,0.0,0.0,0.0,0.0,0.0,0.0,0.0,0.0,0.0,0.0,0.0,0.0,0.0,0.0,1.1934,1.1872,1.1965,1.2251,1.212,1.2151,1.2398,1.2089,1.1872,1.1747,1.1685,1.1674,1.1714,1.214,1.238,1.2432,1.2739,1.2906,1.2956,1.262,1.2415,1.2298,1.2224,1.1781,0.0,0.0,0.0,0.0,0.0,0.0,0.0,0.0,0.9695,0.9657,0.9473,0.9397,0.9397,0.9322,0.9208,0.9099,0.9022,0.8903,0.8802,0.8913,0.8972,0.8923,0.869,0.882,0.8961,0.8881,0.88,0.8687,0.8636,0.0,0.0,0.0,0.0,0.0,0.0,0.0,0.0,0.0,0.0,0.0,0.0,0.0,0.0,0.0,0.0,0.0,0.0,0.0,0.0,0.0,0.0,0.0,0.0,0.9585,0.9677,0.9579,0.9299,0.9341,0.9579,0.9579,0.9579,0.9579,0.9579,0.9628,0.9727,0.9628,0.9579,0.9628,0.9826,0.9776,0.9628,0.9826,0.9776,0.9579,0.0,0.0,0.0,0.0,0.0,0.0,0.0,0.0,0.0,0.0,0.0,0.0,0.0,0.0,0.0,0.0,0.0,0.0,1.2274,1.2305,1.2398,1.259,1.259,1.259,1.2598,1.2606,1.2444,1.2096,1.191,1.2076,1.2617,1.2953,1.3188,1.3312,1.3237,1.3083,1.29,1.2489,1.2305,1.2298,1.2077,1.2003,1.1966,0.0,0.0,0.0,0.0,0.0,0.0,0.0,0.9922,0.9884,0.9657,0.962,0.9544,0.9359,0.9284,0.9246,0.9061,0.8989,0.9014,0.899,0.9099,0.9226,0.938,0.942,0.9457,0.9592,0.9482,0.9355,0.9133,0.0,0.0,0.0,0.0,0.0,0.0,0.0,0.0,0.0,0.0,0.0,0.0,0.0,0.0,0.0,0.0,0.0,0.0,0.0,0.0,0.0,0.0,0.0,0.0,1.0019,0.9871,0.9579,0.9579,0.9579,0.9579,0.9579,0.9579,0.9628,0.9628,0.9776,0.9969,0.9727,0.9579,0.9579,0.9579,0.9579,0.9579,0.9579,0.9579,0.9579,0.0,0.0,0.0,0.0,0.0,0.0,0.0,0.0,0.0,0.0,0.0,0.0,0.0,0.0,0.0,0.0,0.0,0.0,1.2498,1.2367,1.2398,1.259,1.2467,1.2578,1.2925,1.3196,1.3123,1.2806,1.2897,1.3068,1.3391,1.3713,1.3892,1.394,1.4027,1.392,1.3731,1.3622,1.3251,1.2716,1.2826,1.2415,1.1781,0.0,0.0,0.0,0.0,0.0,0.0,0.0,0.0,0.0,0.9884,0.9809,0.9809,0.9733,0.9511,0.9284,0.9208,0.9092,0.9034,0.9165,0.9438,0.97,0.9618,0.9558,0.9563,0.9567,0.9731,0.9733,0.9359,0.0,0.0,0.0,0.0,0.0,0.0,0.0,0.0,0.0,0.0,0.0,0.0,0.0,0.0,0.0,0.0,0.0,0.0,0.0,0.0,0.0,0.0,0.0,0.0,0.0,0.9871,0.9579,0.9772,0.9772,0.9579,0.9579,0.9723,0.9871,0.9871,0.992,0.9969,0.9727,0.9579,0.9628,0.9826,0.9776,0.9628,0.9826,0.9776,0.9628,0.0,0.0,0.0,0.0,0.0,0.0,0.0,0.0,0.0,0.0,1.3367,1.321,0.0,0.0,0.0,0.0,0.0,0.0,0.0,1.2498,1.2553,1.2914,1.2735,1.2901,1.3477,1.3865,1.3997,1.3934,1.3718,1.3731,1.3984,1.4269,1.4412,1.4487,1.4482,1.4353,1.4093,1.3992,1.3666,1.3156,1.3346,1.3046,1.2378,0.0,0.0,0.0,0.0,0.0,0.0,0.0,0.0,0.0,0.9922,0.9884,0.9884,0.9884,0.9802,0.9689,0.9607,0.9497,0.943,0.9563,0.9834,1.004,0.9984,0.0,0.0,0.0,0.9826,0.9887,0.0,0.0,0.0,0.0,0.0,0.0,0.0,0.0,0.0,0.0,0.0,0.0,0.0,0.0,0.0,0.0,0.0,0.0,0.0,0.0,0.0,0.0,0.0,0.0,0.0,0.0,0.0,0.9776,0.9826,0.9871,0.992,0.992,0.9969,1.0019,1.0117,1.0117,1.0019,0.992,0.9875,0.9776,0.9924,0.9969,0.9924,1.0117,1.0068,0.992,0.0,0.0,0.0,0.0,0.0,0.0,0.0,0.0,0.0,0.0,1.3035,1.3044,0.0,0.0,0.0,0.0,0.0,0.0,0.0,1.2661,1.2851,1.342,1.3292,1.3526,1.4139,1.4544,1.4906,1.5232,1.4421,1.4193,1.4519,1.4699,1.4881,1.4979,1.4784,1.4489,1.4201,1.4,1.379,1.3601,1.379,1.3717,1.3455,1.2856,0.0,0.0,0.0,0.0,0.0,0.0,0.0,0.0,0.996,0.9916,0.9916,0.9922,1.0056,1.021,1.0042,0.9992,0.9952,0.9979,1.0149,0.0,1.0431,1.0068,0.9677,0.9628,0.0,0.0,0.0,0.0,0.0,0.0,0.0,0.0,0.0,0.0,0.0,0.0,0.0,0.0,0.0,0.0,0.0,0.0,0.0,0.0,0.0,0.0,0.0,0.0,0.0,0.0,0.0,0.0,1.0265,0.0,0.9772,0.9969,1.0462,1.0413,1.0265,1.0117,1.0364,1.0314,1.0117,1.0364,1.0265,1.0019,1.0068,1.0216,1.0413,1.0413,1.0413,1.0413,0.0,0.0,0.0,0.0,0.0,0.0,0.0,0.0,0.0,0.0,0.0,0.0,0.0,0.0,0.0,0.0,0.0,0.0,0.0,1.3082,1.3057,1.3753,1.3987,1.4249,1.4569,1.4915,1.5203,1.5449,1.5268,1.5268,1.5501,1.5536,1.5587,1.5584,1.5399,1.5177,1.4955,1.4919,1.4669,1.4353,1.4245,1.3912,1.347,1.3003,1.2599,0.0,0.0,0.0,0.0,0.0,0.0,0.0,1.0255,1.0143,1.0105,0.9954,0.982,0.9807,0.9959,0.9857,0.0,0.9929,1.0123,1.0352,1.0895,1.0609,1.0167,0.9969,0.0,0.0,0.0,0.0,0.0,0.0,0.0,0.0,0.0,0.0,0.0,0.0,0.0,0.0,0.0,0.0,0.0,0.0,0.0,0.0,0.0,0.0,0.0,0.0,0.0,0.0,1.0413,1.0413,1.0364,0.0,1.0265,1.0507,1.0998,1.0364,1.0413,1.0949,1.0801,1.0801,1.0949,1.0806,1.056,1.0314,1.0556,1.0511,1.0413,1.0413,1.0413,1.0413,0.0,0.0,0.0,0.0,0.0,0.0,0.0,0.0,0.0,0.0,0.0,0.0,0.0,0.0,0.0,0.0,0.0,0.0,0.0,0.0,1.35,1.4262,1.4708,1.4932,1.494,1.5298,1.5497,1.5505,1.5505,1.5611,1.5805,1.5691,1.5726,1.5797,1.5497,1.5311,1.5196,1.5106,1.4892,1.4621,1.4816,1.4494,1.3928,1.3763,1.3358,1.2826,1.2415,0.0,0.0,0.0,0.0,0.0,0.0,0.0,1.0143,0.9954,0.9897,0.999,1.0219,1.0177,0.0,1.0413,0.0,1.0468,1.0933,1.0738,1.0413,0.0,0.0,0.0,0.0,0.0,0.0,0.0,0.0,0.0,0.0,0.0,0.0,0.0,0.0,0.0,0.0,0.0,0.0,0.0,0.0,0.0,0.0,0.0,0.0,0.0,0.0,0.0,1.0413,1.0511,1.0511,1.0413,1.0511,1.085,1.1394,1.0949,1.0998,1.1389,1.1243,1.1243,1.1389,1.1243,1.1096,1.0998,1.1145,1.11,1.0949,1.0949,1.0904,1.0801,0.0,0.0,0.0,0.0,0.0,0.0,0.0,0.0,0.0,0.0,0.0,0.0,0.0,0.0,0.0,0.0,0.0,0.0,0.0,0.0,0.0,1.4728,1.5242,1.5426,1.5275,1.5576,1.5691,1.5505,1.5505,1.5611,1.5805,1.5576,1.5576,1.5726,1.5426,1.5311,1.5275,1.5114,1.4971,1.4844,1.5361,1.5158,1.4565,1.4665,1.4272,1.3601,1.3076,1.2709,1.2342,1.2003,0.0,0.0,0.0,0.0,1.0293,1.003,1.01,1.0347,1.0533,1.0631,1.0735,1.0973,1.0812,0.0,1.0939,1.0784,1.0609,0.0,0.0,0.0,0.0,0.0,0.0,0.0,0.0,0.0,0.0,0.0,0.0,0.0,0.0,0.0,0.0,0.0,0.0,0.0,0.0,0.0,0.0,0.0,0.0,0.0,0.0,1.09,1.0462,1.0757,1.0752,1.0556,1.0855,1.1243,1.1683,1.178,1.178,1.1736,1.1688,1.1688,1.1736,1.1736,1.1731,1.1683,1.1731,1.1683,1.1585,1.1585,1.1438,1.1194,0.0,0.0,0.0,0.0,0.0,0.0,0.0,0.0,0.0,0.0,1.4073,0.0,0.0,0.0,0.0,0.0,0.0,0.0,0.0,0.0,0.0,1.4942,1.5303,1.5497,1.5461,1.5505,1.5541,1.5505,1.5505,1.5611,1.5805,1.5576,1.5505,1.5541,1.5691,1.5726,1.5726,1.5691,1.5655,1.5655,1.5742,1.5476,1.5106,1.5111,1.478,1.4289,1.4173,1.3586,1.2826,1.2753,1.2224,0.0,0.0,0.0,1.085,1.0331,1.0209,1.0263,1.0533,0.0,1.0983,0.0,1.1053,1.0949,0.0,0.0,0.0,0.0,0.0,0.0,0.0,0.0,0.0,0.0,0.0,0.0,0.0,0.0,0.0,0.0,0.0,0.0,0.0,0.0,0.0,0.0,0.0,0.0,0.0,0.0,1.0855,1.0855,1.0855,1.0806,1.0752,1.0998,1.1145,1.11,1.1585,1.1883,1.198,1.2419,1.2516,1.2273,1.2029,1.2078,1.2273,1.2273,1.2175,1.198,1.2224,1.2029,1.1585,1.1585,1.1438,1.1194,0.0,0.0,0.0,0.0,0.0,0.0,0.0,0.0,0.0,0.0,0.0,1.4059,0.0,0.0,0.0,0.0,0.0,0.0,0.0,0.0,0.0,1.5427,1.5483,1.5505,1.5505,1.5611,1.5691,1.5691,1.5576,1.5611,1.5797,1.547,1.5461,1.5655,1.5541,1.5541,1.562,1.562,1.562,1.5672,1.5948,1.5789,1.538,1.548,1.525,1.4812,1.4605,1.4245,1.3804,1.3622,1.3185,1.2562,1.1855,0.0,0.0,0.0,1.0111,1.0125,1.0495,1.0862,1.1217,0.0,1.1217,1.1208,1.1579,0.0,0.0,0.0,0.0,0.0,0.0,0.0,0.0,0.0,0.0,0.0,0.0,0.0,0.0,0.0,0.0,0.0,0.0,0.0,0.0,0.0,0.0,0.0,0.0,1.1096,1.0998,1.0998,1.1145,0.0,1.1047,1.1438,1.1731,1.1878,1.198,1.2175,1.2467,1.2521,1.2516,1.2419,1.2419,1.2419,1.2419,1.2419,1.2322,1.2224,1.237,1.2273,1.2029,1.2029,1.1883,1.1639,0.0,0.0,0.0,0.0,0.0,0.0,0.0,0.0,0.0,0.0,0.0,0.0,0.0,0.0,0.0,0.0,0.0,0.0,0.0,0.0,0.0,1.5788,1.5655,1.5576,1.5576,1.5753,1.5832,1.5805,1.5682,1.5682,1.5797,1.5497,1.5505,1.577,1.539,1.5346,1.5576,1.5541,1.5541,1.5601,1.6016,1.592,1.5574,1.5744,1.5596,1.524,1.4927,1.4713,0.0,0.0,0.0,0.0,0.0,0.0,0.0,0.0,0.0,1.0428,0.0,0.0,1.1198,1.1279,1.1249,1.1278,0.0,0.0,0.0,0.0,0.0,0.0,0.0,0.0,0.0,0.0,0.0,0.0,0.0,0.0,0.0,0.0,0.0,0.0,0.0,0.0,0.0,0.0,0.0,0.0,1.1194,1.1194,1.1243,1.1296,1.1492,1.1541,1.1389,1.1785,1.2175,1.2521,1.2224,1.237,1.2813,1.2565,1.2516,1.2516,1.271,1.2716,1.2516,1.2516,1.2516,1.2516,1.2516,1.2467,1.2419,1.2419,1.2224,1.198,0.0,0.0,0.0,0.0,0.0,0.0,0.0,0.0,0.0,0.0,0.0,0.0,1.5129,1.5129,1.5,1.4675,1.4658,0.0,0.0,0.0,0.0,1.5788,1.5797,0.0,1.577,1.5964,1.6,1.5805,1.5964,1.5964,1.5805,1.577,1.577,1.577,1.539,1.5426,1.5761,1.5576,1.5611,1.5805,1.5822,1.5822,1.5805,1.5787,1.5672,1.547,1.547,0.0,0.0,0.0,0.0,0.0,0.0,0.0,0.0,0.0,0.0,0.0,0.0,1.088,0.0,1.0995,1.1034,0.0,0.0,0.0,0.0,0.0,0.0,0.0,0.0,0.0,0.0,0.0,0.0,0.0,0.0,0.0,0.0,0.0,0.0,0.0,0.0,0.0,0.0,0.0,0.0,0.0,1.1194,1.1194,1.134,1.159,1.1585,1.1731,1.198,1.198,1.2273,1.2764,1.2516,1.2516,1.2813,1.2813,1.2764,1.2764,1.2813,1.2813,1.2764,1.2764,1.2764,1.2764,1.2764,1.2613,1.2419,1.2419,1.2224,1.198,0.0,0.0,0.0,0.0,0.0,0.0,0.0,0.0,0.0,0.0,0.0,0.0,0.0,1.4872,1.4915,1.5018,1.5257,0.0,0.0,0.0,0.0,1.5797,1.5805,1.5867,1.6,1.6061,1.6167,1.6307,1.6272,1.6202,1.6105,1.5903,1.5805,1.5797,1.5505,1.5461,1.5611,1.5541,1.5541,1.5611,1.5761,1.5805,1.5796,1.573,1.5786,0.0,0.0,0.0,0.0,0.0,0.0,0.0,0.0,0.0,0.0,0.0,0.0,0.0,0.0,0.0,0.0,1.1617,1.1566,1.1494,0.0,0.0,0.0,0.0,0.0,0.0,0.0,0.0,0.0,0.0,0.0,0.0,0.0,0.0,0.0,0.0,0.0,0.0,0.0,0.0,0.0,0.0,0.0,0.0,1.1443,1.1443,1.159,1.1834,1.2024,1.2224,1.2516,1.2516,1.2619,1.2813,1.271,1.271,1.2813,1.2813,1.2813,1.2813,1.2813,1.271,1.2516,1.2516,1.2516,1.2516,1.2516,1.2565,1.2667,1.2667,1.2613,1.2516,0.0,0.0,0.0,0.0,0.0,0.0,0.0,0.0,0.0,1.5179,0.0,0.0,0.0,0.0,1.5315,1.5558,1.5782,1.5938,1.5973,1.5938,1.5903,1.5903,1.5903,1.5964,1.6096,1.6132,1.6272,1.6508,1.6377,1.6272,1.6237,1.5938,1.5805,1.5797,1.5655,1.5611,1.5611,1.5541,1.5541,1.5611,1.5761,1.5874,1.5975,0.0,0.0,0.0,0.0,0.0,0.0,0.0,0.0,0.0,0.0,0.0,0.0,0.0,0.0,0.0,1.2623,0.0,0.0,0.0,0.0,1.1878,0.0,0.0,0.0,0.0,0.0,0.0,0.0,0.0,0.0,0.0,0.0,0.0,0.0,0.0,0.0,0.0,0.0,0.0,0.0,0.0,0.0,0.0,0.0,0.0,1.1736,1.1639,1.178,1.2127,1.237,1.2619,1.2813,1.2813,1.2813,1.2813,1.2813,1.2813,1.2813,1.2813,1.2813,1.2813,1.2813,1.2716,1.2516,1.2516,1.2516,1.2516,1.2516,1.2667,1.291,1.291,1.2958,1.3055,0.0,0.0,0.0,0.0,0.0,0.0,0.0,0.0,1.6096,1.6096,0.0,0.0,0.0,0.0,0.0,1.6307,1.6167,1.6167,1.6316,1.6167,1.6132,1.6132,0.0,0.0,1.6167,1.6237,1.6307,1.6342,1.6342,1.6237,1.6096,1.5894,1.5841,1.5797,1.5797,1.5805,1.5797,1.5576,1.5611,1.5805,0.0,1.6081,1.6407,0.0,0.0,0.0,1.6745,1.6505,0.0,0.0,0.0,0.0,0.0,0.0,0.0,0.0,0.0,0.0,0.0,0.0,0.0,0.0,0.0,0.0,0.0,0.0,0.0,0.0,0.0,0.0,0.0,0.0,0.0,0.0,0.0,0.0,0.0,0.0,0.0,0.0,0.0,0.0,0.0,0.0,0.0,0.0,0.0,1.1731,1.2029,1.178,1.1883,1.2419,1.2667,1.2813,1.2813,1.2813,1.2813,1.2813,1.2813,1.2813,1.2813,1.2813,1.2813,1.2813,1.2813,1.2813,1.2813,1.2813,1.2813,1.2813,1.2813,1.291,1.3098,1.3098,1.3298,1.3491,0.0,0.0,0.0,0.0,0.0,0.0,1.6061,1.6167,1.6237,0.0,0.0,0.0,1.6307,1.6307,1.6307,1.6307,1.6272,1.6377,1.6691,1.6421,1.6482,1.7038,1.6447,1.6473,1.7226,1.6786,1.6716,1.7151,1.7038,1.6786,1.6473,1.6403,1.6237,1.6035,1.6035,1.5938,1.5805,1.5726,0.0,1.5831,1.6124,1.6467,0.0,0.0,0.0,0.0,0.0,1.7277,1.6991,0.0,1.6473,1.5885,0.0,0.0,0.0,0.0,0.0,0.0,1.4065,0.0,0.0,0.0,0.0,0.0,0.0,0.0,0.0,0.0,0.0,0.0,0.0,0.0,0.0,0.0,0.0,0.0,0.0,0.0,0.0,0.0,0.0,0.0,0.0,0.0,0.0,0.0,0.0,1.2322,1.2565,1.2807,1.305,1.3195,1.3098,1.3001,1.3001,1.3001,1.2953,1.2813,1.2953,1.2953,1.2813,1.2813,1.2813,1.2813,1.2813,1.2813,1.2813,1.2813,1.2813,1.2813,1.2958,1.305,1.3098,1.3298,1.3443,1.3491,0.0,0.0,0.0,0.0,0.0,0.0,1.6412,1.6447,1.6447,0.0,0.0,0.0,1.6551,1.6551,1.6551,1.6551,1.6482,1.6551,1.6874,1.6586,1.6612,1.7063,1.6577,1.6682,1.7467,1.6915,1.6994,1.7837,1.7235,1.6959,1.6925,1.6612,1.6377,1.6167,1.6132,1.6026,1.5938,1.5841,0.0,0.0,1.6295,0.0,0.0,1.7396,1.7714,0.0,0.0,0.0,1.7637,1.7584,1.7155,0.0,0.0,0.0,0.0,0.0,0.0,0.0,0.0,0.0,0.0,0.0,0.0,0.0,0.0,1.3061,0.0,0.0,0.0,0.0,0.0,0.0,0.0,0.0,0.0,0.0,0.0,0.0,0.0,0.0,0.0,0.0,0.0,0.0,0.0,0.0,1.2322,1.2516,1.2813,1.3249,1.3491,1.3491,1.3346,1.3249,1.3249,1.3249,1.3201,1.3104,1.3201,1.3147,1.291,1.291,1.2856,1.2813,1.2813,1.2861,1.291,1.291,1.2856,1.2813,1.3001,1.3147,1.3298,1.3588,1.3732,1.3823,0.0,0.0,0.0,0.0,0.0,0.0,1.6874,1.6751,1.6682,0.0,1.6908,1.6908,1.6908,1.6908,1.6908,1.6908,1.6751,1.6716,1.6943,1.6786,1.6751,1.6811,1.6742,1.695,1.7407,1.7019,1.7295,1.8405,1.7295,1.7028,1.7451,1.6716,1.6377,1.6342,1.6202,0.0,1.6096,0.0,0.0,1.6428,1.651,1.7043,0.0,0.0,1.8192,0.0,1.8301,1.818,1.8135,1.7991,1.7672,0.0,0.0,0.0,0.0,0.0,1.5262,0.0,0.0,0.0,0.0,0.0,0.0,0.0,1.3259,1.3358,0.0,0.0,0.0,0.0,0.0,0.0,0.0,0.0,0.0,0.0,0.0,0.0,0.0,0.0,0.0,0.0,0.0,0.0,0.0,1.2421,1.2463,1.2624,1.2866,1.3329,1.3588,1.3588,1.3539,1.3539,1.3539,1.3539,1.3539,1.3491,1.3539,1.3394,1.3147,1.3147,1.305,1.2861,1.2861,1.3001,1.3147,1.3195,1.3098,1.2953,1.3195,1.3389,1.3636,1.3931,1.4166,1.4298,0.0,0.0,0.0,0.0,0.0,0.0,0.0,1.6874,1.6864,1.6908,1.6908,1.6908,1.6908,1.6908,1.6908,1.6908,1.6864,1.7012,1.7367,1.7358,1.7564,1.81,1.7716,1.7944,1.8875,1.8293,1.8293,1.8942,1.8293,1.793,1.7872,1.727,1.6934,1.6769,1.6412,1.6202,0.0,0.0,0.0,1.7282,1.7291,0.0,1.8607,1.8727,1.8836,1.8917,1.8731,1.8582,1.8463,0.0,1.8077,1.7689,0.0,0.0,0.0,0.0,0.0,0.0,0.0,0.0,0.0,0.0,0.0,0.0,1.4359,1.4667,0.0,0.0,0.0,0.0,0.0,0.0,0.0,0.0,0.0,0.0,0.0,0.0,0.0,0.0,0.0,0.0,0.0,0.0,1.2831,1.2414,1.2971,1.332,1.3367,1.385,1.4154,1.4154,1.3925,1.3835,1.3835,1.3835,1.369,1.3491,1.3738,1.3684,1.3443,1.3443,1.3394,1.3346,1.3346,1.3394,1.3443,1.3667,1.3715,1.3715,1.4202,1.4304,1.4202,1.4694,1.4646,1.4298,0.0,0.0,0.0,0.0,0.0,0.0,0.0,1.6968,1.6943,1.7038,1.6968,1.6908,1.6908,1.6908,1.6908,1.6908,1.6908,1.6978,1.7194,1.7401,1.7564,1.7691,1.7794,1.8168,1.8774,1.8472,1.8697,1.9506,1.8607,1.8337,1.862,1.7759,1.7392,1.7439,1.7051,1.692,0.0,0.0,1.7119,1.8057,1.7661,0.0,1.9121,1.9173,1.9223,1.9278,1.9231,1.9227,1.9196,1.8993,1.8796,0.0,0.0,1.748,1.7178,0.0,1.6286,1.6173,0.0,0.0,0.0,1.524,0.0,0.0,0.0,1.5003,1.515,0.0,0.0,0.0,0.0,0.0,0.0,0.0,0.0,0.0,0.0,0.0,0.0,0.0,0.0,0.0,0.0,0.0,1.2694,1.258,1.3032,1.3286,1.3286,1.3813,1.4099,1.4099,1.4094,1.4118,1.4118,1.4118,1.4016,1.3919,1.4022,1.3973,1.369,1.369,1.3642,1.3491,1.3491,1.3588,1.3684,1.3823,1.4058,1.4346,1.4729,1.4819,1.4771,1.5261,1.5261,1.5016,1.6908,0.0,0.0,0.0,0.0,0.0,0.0,0.0,1.6996,1.7244,1.7114,1.7055,1.7138,1.7211,1.7229,1.7147,1.7211,1.7183,1.7027,0.0,0.0,1.7185,1.7759,1.8245,1.8607,1.8573,1.905,2.0106,1.8974,1.8836,1.9605,1.8414,1.7983,1.8216,1.7749,1.7651,0.0,0.0,0.0,1.8634,0.0,1.8385,1.9272,1.9392,1.9432,1.9488,1.9563,1.9666,1.9686,1.9474,0.0,1.9104,1.8462,1.8048,0.0,0.0,0.0,0.0,0.0,0.0,0.0,0.0,0.0,1.5259,0.0,0.0,0.0,1.4958,0.0,0.0,0.0,0.0,0.0,0.0,0.0,0.0,0.0,0.0,0.0,0.0,0.0,0.0,0.0,0.0,1.2503,1.2794,1.3129,1.3294,1.3294,1.3909,1.4179,1.4046,1.4308,1.4394,1.4298,1.4298,1.4298,1.4298,1.4298,1.4256,1.4124,1.4124,1.407,1.3919,1.3919,1.407,1.4262,1.431,1.4592,1.5022,1.5153,1.5194,1.5194,1.5778,1.5879,1.5737,1.6908,1.6908,0.0,0.0,0.0,0.0,0.0,0.0,1.7037,1.7421,1.7467,1.7568,1.7908,1.8293,0.0,1.7981,0.0,0.0,1.7477,0.0,1.805,1.8154,0.0,0.0,1.9704,1.9539,1.9884,2.0784,2.0266,2.0297,2.0783,1.9635,1.9134,0.0,1.8175,0.0,0.0,0.0,1.8332,0.0,1.8784,1.8835,0.0,1.9247,1.9265,1.9125,1.9464,1.9373,1.912,0.0,1.9014,1.8584,0.0,1.8642,0.0,0.0,0.0,0.0,0.0,0.0,0.0,0.0,1.6111,0.0,0.0,0.0,1.563,1.5585,0.0,1.5869,1.5869,0.0,0.0,0.0,0.0,0.0,0.0,0.0,0.0,0.0,0.0,0.0,0.0,0.0,0.0,1.3273,1.3716,1.3987,1.3987,1.4941,1.5193,1.4518,1.4836,1.479,1.4298,1.4298,1.4298,1.4298,1.4298,1.4544,1.4939,1.4939,1.5172,1.554,1.554,1.5547,1.5588,1.5818,1.5954,1.6001,1.5825,1.5588,1.5486,1.6251,1.6211,1.5778,1.7035,1.6908,1.6908,0.0,0.0,0.0,0.0,0.0,1.7394,1.7807,1.7962,1.81,0.0,0.0,0.0,0.0,0.0,1.9062,0.0,0.0,1.9078,0.0,0.0,0.0,0.0,2.0173,2.0543,2.1138,2.0746,2.0807,2.1326,2.0405,2.0117,0.0,1.9416,0.0,1.9537,0.0,1.9286,0.0,0.0,0.0,0.0,1.9458,1.9641,1.9763,1.9968,1.9746,1.9459,0.0,1.9485,0.0,0.0,0.0,0.0,0.0,0.0,0.0,0.0,0.0,0.0,0.0,0.0,0.0,0.0,0.0,1.6155,0.0,0.0,0.0,0.0,0.0,0.0,0.0,0.0,0.0,0.0,0.0,0.0,0.0,0.0,0.0,0.0,0.0,0.0,0.0,0.0,1.4291,1.4291,1.4737,1.5001,1.4988,1.5272,1.541,1.5384,1.5384,1.5384,1.5384,1.5384,1.5445,1.5499,1.5689,1.5778,1.5784,1.5784,1.5784,1.5832,1.592,1.6055,1.6237,1.6433,1.644,1.64,1.7012,1.7106,1.6871,1.7384,1.7238,0.0,0.0,0.0,0.0,0.0,0.0,0.0,0.0,0.0,0.0,1.8798,1.9391,0.0,0.0,1.9783,1.9947,0.0,0.0,1.9965,0.0,0.0,0.0,0.0,0.0,0.0,2.1424,2.1154,2.1361,2.1903,2.1248,2.11,0.0,0.0,2.0236,2.0577,0.0,0.0,2.0282,1.9885,1.9693,1.9652,1.9676,1.9975,2.0292,2.0292,2.0061,1.9734,2.0052,1.9824,0.0,1.9462,0.0,0.0,0.0,0.0,0.0,1.7857,0.0,0.0,0.0,0.0,0.0,0.0,0.0,0.0,0.0,0.0,0.0,0.0,0.0,1.5007,0.0,0.0,0.0,0.0,0.0,0.0,0.0,0.0,0.0,0.0,0.0,0.0,0.0,1.4283,0.0,1.4768,1.4992,1.5299,1.5548,1.5854,1.6114,1.6332,1.6237,1.6237,1.6292,1.615,1.6103,1.6109,1.6244,1.6244,1.6204,1.6204,1.6204,1.6204,1.6305,1.644,1.6669,1.7138,1.7286,1.7347,1.7581,1.7628,1.7574,1.8054,1.8045,0.0,0.0,0.0,0.0,0.0,0.0,0.0,0.0,0.0,0.0,0.0,0.0,0.0,0.0,0.0,2.0893,2.0564,0.0,2.0643,0.0,0.0,2.0704,0.0,0.0,0.0,0.0,0.0,2.2196,2.266,2.2247,2.2069,2.2004,2.076,2.0196,2.0215,1.9993,1.9902,1.9939,2.0132,2.0127,2.0035,0.0,1.9975,2.0292,2.0292,0.0,0.0,1.9717,1.9567,0.0,0.0,0.0,0.0,0.0,0.0,0.0,0.0,0.0,0.0,1.7743,0.0,0.0,0.0,0.0,1.6077,0.0,0.0,0.0,0.0,1.5328,1.5133,1.4935,0.0,0.0,0.0,0.0,0.0,0.0,0.0,0.0,0.0,0.0,0.0,0.0,1.5054,0.0,1.5636,1.6385,1.6635,1.6301,1.6577,1.6721,1.6581,1.6339,1.6339,1.6588,1.6062,1.6204,1.6943,1.6723,1.6817,1.7232,1.7232,1.7232,1.7279,1.7527,1.7628,1.7675,1.7947,1.8087,1.804,1.7815,1.7527,1.7333,0.0,0.0,0.0,0.0,0.0,0.0,0.0,1.8655,0.0,0.0,0.0,0.0,0.0,0.0,2.1029,0.0,0.0,2.21,2.1826,2.1847,0.0,0.0,0.0,2.1912,0.0,0.0,0.0,0.0,0.0,0.0,2.2703,2.2703,2.2703,0.0,0.0,2.1268,0.0,0.0,0.0,0.0,0.0,2.1118,2.0683,0.0,0.0,2.0564,2.0564,2.041,0.0,2.0509,2.0244,1.9866,2.0071,1.9851,1.9603,1.9514,1.9164,0.0,0.0,0.0,1.8188,1.807,0.0,0.0,0.0,0.0,0.0,0.0,0.0,0.0,0.0,0.0,1.5204,1.5292,1.4963,0.0,0.0,0.0,0.0,0.0,0.0,0.0,0.0,0.0,0.0,1.4474,1.5206,1.571,0.0,1.6147,1.6484,1.6685,1.7072,1.7325,1.7477,1.7648,1.7667,1.7567,1.7426,1.7279,1.7232,1.7652,1.7846,1.7846,1.8172,1.8311,1.8311,1.8411,1.855,1.8681,1.8596,1.855,1.855,1.8334,1.8148,1.8094,2.0059,0.0,0.0,0.0,0.0,0.0,0.0,0.0,0.0,0.0,2.0292,0.0,2.1005,0.0,2.184,0.0,2.2729,2.2999,2.2758,2.2931,0.0,2.3207,2.3081,0.0,0.0,0.0,0.0,0.0,0.0,2.2478,2.259,0.0,0.0,0.0,0.0,2.1694,2.1411,0.0,2.0772,0.0,0.0,2.2255,0.0,0.0,2.1181,2.0989,0.0,2.1238,2.1198,2.1444,2.1229,2.0934,2.1007,2.0873,2.0625,2.0395,2.0008,1.9564,1.9476,1.9022,0.0,0.0,1.8708,0.0,1.8409,0.0,0.0,0.0,0.0,0.0,0.0,0.0,0.0,1.539,1.507,1.482,0.0,1.4677,0.0,0.0,0.0,0.0,0.0,0.0,1.4624,1.4636,1.5358,1.5834,0.0,0.0,1.6469,1.6805,1.7317,1.7733,1.8034,1.8348,1.8427,1.8365,1.8272,1.8079,1.7846,1.8311,1.845,1.8365,1.8504,1.8643,1.8781,1.8781,1.8966,1.9188,1.9104,1.9066,1.902,1.8658,1.8481,1.8481,0.0,0.0,0.0,0.0,1.932,0.0,0.0,0.0,2.0726,0.0,2.1528,2.208,2.2487,2.2679,2.2996,2.3364,2.3629,0.0,2.3522,2.3898,0.0,0.0,2.373,2.3515,2.2584,0.0,0.0,0.0,0.0,0.0,0.0,0.0,0.0,0.0,2.2101,0.0,2.0905,2.0284,2.0616,2.177,2.3218,2.3383,2.279,2.3332,0.0,2.162,2.2199,2.2438,2.2438,2.2438,2.2438,2.2403,2.2403,2.2394,2.2359,2.2183,2.1615,2.0988,2.0718,2.009,1.9586,2.0018,0.0,0.0,0.0,0.0,1.8987,0.0,0.0,0.0,0.0,0.0,0.0,1.5275,1.5204,1.5062,1.4677,0.0,0.0,0.0,0.0,0.0,0.0,1.4605,1.4748,1.5133,1.5467,1.5696,0.0,0.0,0.0,1.6665,1.7382,1.7958,1.8271,1.8424,1.8612,1.8781,1.8589,1.8589,1.8781,1.8635,1.8681,1.8827,1.8411,1.8458,1.8874,1.8874,1.9004,1.9279,1.9533,1.9633,1.9496,1.8805,1.8527,1.8527,2.0964,2.0498,2.0069,0.0,1.9808,2.0093,0.0,0.0,0.0,0.0,2.1938,2.2337,2.2891,2.2983,2.3157,2.3575,2.3986,0.0,0.0,0.0,0.0,2.5195,2.4861,2.4351,2.3782,2.3771,0.0,2.2325,0.0,0.0,2.2402,0.0,0.0,0.0,0.0,0.0,2.1759,2.1454,2.1585,2.206,2.3318,2.3524,0.0,0.0,2.4044,2.3407,2.3069,2.3071,2.3178,2.2994,2.2828,2.2706,2.2706,2.2545,2.2394,2.235,2.205,2.1686,2.1472,2.1058,2.0674,2.0639,2.0463,2.0343,0.0,0.0,0.0,0.0,0.0,0.0,0.0,0.0,0.0,0.0,1.5311,0.0,0.0,0.0,0.0,0.0,0.0,0.0,1.4605,1.4605,1.4645,1.474,1.511,1.5346,0.0,0.0,0.0,1.6333,1.7032,1.7607,1.795,1.848,1.8735,1.8781,1.8735,1.8735,1.8827,1.9142,1.9371,1.9417,1.9646,1.9791,1.9928,1.9928,1.9973,2.0019,1.9891,1.9716,1.9541,1.9158,1.9012,1.8966,2.154,0.0,0.0,2.0216,0.0,0.0,2.0757,0.0,0.0,2.2371,2.2853,0.0,2.3909,2.3977,2.4243,2.4857,2.5179,0.0,0.0,0.0,0.0,2.5933,2.5526,2.5174,2.4807,2.4501,0.0,2.2949,0.0,0.0,2.2553,0.0,0.0,0.0,0.0,2.244,0.0,2.2157,2.2424,2.2801,2.3964,0.0,0.0,2.4966,2.5139,2.488,2.4363,2.4209,2.4219,2.396,2.3831,2.3701,2.358,2.344,2.329,2.3202,2.294,2.2633,2.2369,2.1935,2.1593,2.1777,2.1686,2.156,2.156,2.156,2.1431,0.0,0.0,0.0,0.0,0.0,0.0,0.0,0.0,0.0,0.0,0.0,0.0,0.0,0.0,0.0,1.4772,1.4721,1.4784,1.4848,1.5223,1.5368,0.0,0.0,0.0,1.6093,1.7044,1.7623,1.7814,1.856,1.8958,1.8966,1.9196,1.9288,1.9288,1.9608,1.9783,1.992,1.9973,2.0119,2.0292,2.0155,2.0201,2.0292,2.011,2.0027,1.9853,1.9608,1.9371,1.9142,0.0,0.0,0.0,0.0,0.0,0.0,0.0,2.1906,0.0,2.3286,0.0,2.4668,2.5107,2.5156,2.5503,2.6322,0.0,2.6373,2.6335,2.6687,2.6731,2.6281,2.6184,2.5979,2.5709,2.5059,0.0,0.0,0.0,0.0,0.0,0.0,0.0,0.0,0.0,0.0,0.0,2.265,2.315,0.0,2.4743,2.5215,2.527,2.571,2.5895,2.5864,2.5686,2.5464,2.52,2.4988,2.4946,2.4903,2.4668,2.4583,2.454,2.4325,2.398,2.358,2.3309,2.2818,2.2501,2.3047,2.3057,2.2925,2.2925,2.2925,2.2759,2.2087,2.1333,0.0,0.0,0.0,0.0,0.0,0.0,0.0,0.0,0.0,0.0,0.0,0.0,0.0,0.0,1.4992,1.4987,1.5163,1.5458,0.0,0.0,0.0,0.0,0.0,1.7149,0.0,1.7858,0.0,1.9242,1.9234,1.97,1.9928,1.9928,1.9928,2.0065,2.0292,1.9853,1.9945,2.0292,2.0065,2.0065,2.0292,2.0292,2.0292,2.0246,2.0019,1.9654,1.9234,0.0,0.0,0.0,0.0,0.0,2.2507,2.2767,2.3208,2.3803,2.4629,2.4863,0.0,2.5566,2.5567,2.5654,2.583,2.583,0.0,0.0,0.0,0.0,2.7621,2.7467,2.7025,2.6185,2.6066,2.524,0.0,0.0,0.0,0.0,0.0,0.0,0.0,0.0,0.0,2.281,2.3324,0.0,2.3736,2.4774,2.5215,2.527,2.571,2.5895,2.5895,2.5864,2.5728,2.5475,2.5242,2.5158,2.5158,2.5073,2.4946,2.4818,2.4786,2.4572,2.4282,2.4067,2.3937,2.3807,2.3711,2.3667,2.3624,2.3624,2.3624,2.3537,2.3242,2.2519,2.1635,2.0646,0.0,0.0,0.0,0.0,0.0,0.0,0.0,0.0,0.0,0.0,0.0,0.0,0.0,0.0,0.0,0.0,0.0,0.0,0.0,0.0,0.0,0.0,0.0,0.0,0.0,0.0,1.9533,1.9799,2.0019,2.0246,2.0246,2.0246,2.0292,2.0201,2.0201,2.0292,2.0246,2.0246,2.0292,2.0292,2.0292,2.0246,2.0019,1.9837,1.9745,0.0,0.0,0.0,0.0,0.0,0.0,0.0,2.4224,0.0,2.5067,2.5273,2.5498,2.5664,2.5693,2.583,2.6072,2.6352,2.6812,2.7563,2.7904,2.8125,2.8418,2.8041,0.0,2.7064,2.6672,2.5749,2.4335,0.0,0.0,0.0,0.0,0.0,0.0,0.0,2.334,0.0,0.0,0.0,2.488,2.5087,2.5368,2.5579,2.5808,2.5895,2.5895,2.5895,2.5853,2.5728,2.5464,2.5422,2.538,2.5242,2.5115,2.5031,2.4946,2.4828,2.4658,2.4411,2.4292,2.4206,2.4196,2.4057,2.4024,2.4024,2.4024,2.3937,2.3711,2.3325,2.2644,2.139,2.0115,0.0,0.0,0.0,0.0,0.0,0.0,0.0,0.0,0.0,0.0,0.0,0.0,0.0,0.0,0.0,0.0,0.0,0.0,0.0,0.0,0.0,0.0,0.0,0.0,0.0,1.9754,1.9973,2.0201,2.0292,2.0292,2.0292,2.0292,2.0292,2.0292,2.0292,2.0292,2.0292,2.0292,2.0292,2.0292,2.0292,2.0155,2.011,2.0073,0.0,2.4956,0.0,0.0,2.4514,0.0,0.0,2.5139,2.5382,2.5243,2.5518,2.5732,2.5878,2.5878,2.6072,2.6582,2.7003,2.7421,2.794,2.842,2.8699,2.8803,2.8396,2.8061,2.7767,2.7108,2.6198,0.0,0.0,0.0,0.0,0.0,0.0,0.0,0.0,0.0,0.0,0.0,2.4694,2.5721,2.5478,2.5557,2.5895,2.5895,2.5895,2.5895,2.5895,2.5895,2.5864,2.5728,2.5644,2.5644,2.5422,2.5327,2.5242,2.5115,2.4999,2.4903,2.4658,2.4454,2.4368,2.4454,2.4368,2.4249,2.4249,2.4249,2.4206,2.3937,2.377,2.3275,2.2035,2.1155,0.0,0.0,0.0,0.0,0.0,0.0,0.0,0.0,0.0,0.0,0.0,0.0,0.0,0.0,0.0,0.0,0.0,0.0,0.0,0.0,0.0,0.0,1.9143,0.0,1.9936,0.0,2.0201,2.0337,2.0473,2.0337,2.0337,2.0382,2.0337,2.0292,2.0292,2.0292,2.0292,2.0292,2.0292,2.0292,2.0292,2.0292,2.0292,2.0246,0.0,0.0,0.0,0.0,0.0,0.0,0.0,2.6145,2.6245,2.5722,2.5664,2.5878,2.6352,2.6458,2.663,2.7098,2.7183,2.7421,2.794,2.8045,2.8279,2.8803,2.876,2.8508,2.7981,2.7501,2.6845,0.0,0.0,0.0,0.0,0.0,0.0,0.0,0.0,0.0,0.0,2.4942,2.5161,2.5314,2.5677,2.5863,2.5895,2.5895,2.5895,2.5895,2.5895,2.5895,2.5895,2.5895,2.5853,2.5853,2.5853,2.5728,2.5559,2.5559,2.538,2.5115,2.4903,2.4861,2.4786,2.454,2.4497,2.4454,2.4454,2.4454,2.4411,2.4206,2.3667,2.31,2.2621,2.2559,2.2423,0.0,0.0,0.0,0.0,0.0,0.0,0.0,0.0,0.0,0.0,0.0,0.0,0.0,0.0,0.0,0.0,0.0,0.0,1.8478,0.0,1.8856,1.9613,1.9825,0.0,2.0246,2.0292,2.051,2.0907,2.051,2.0428,2.0654,2.0428,2.0292,2.0292,2.0292,2.0292,2.0292,2.0292,2.0292,2.0292,2.0292,2.0292,2.0292,0.0,0.0,0.0,0.0,0.0,0.0,0.0,2.6843,2.6892,2.6648,2.6572,2.6668,2.6907,2.6907,2.7003,2.7183,2.7468,2.7752,2.7998,2.8279,2.856,2.8803,2.8943,2.8758,2.8273,2.821,2.7632,0.0,0.0,0.0,0.0,0.0,0.0,0.0,0.0,2.4607,2.5327,2.5259,2.5338,2.5633,2.5819,2.5895,2.5895,2.5895,2.5895,2.5895,2.5895,2.5895,2.5895,2.5895,2.5895,2.5895,2.5895,2.5853,2.578,2.5654,2.5517,2.538,2.5158,2.5073,2.5031,2.4786,2.4828,2.4914,2.4786,2.4828,2.4914,2.4828,2.4512,2.3998,2.3269,2.3338,2.3176,0.0,0.0,0.0,0.0,0.0,0.0,0.0,0.0,0.0,0.0,0.0,0.0,0.0,0.0,0.0,0.0,0.0,0.0,1.9118,0.0,1.9488,2.0276,2.035,2.0428,2.0518,2.0645,2.0817,2.0988,2.0817,2.0781,2.0871,2.0473,2.0382,2.0518,2.0382,2.0292,2.0292,2.0292,2.0292,2.0292,2.0292,2.0292,2.0292,2.7741,0.0,2.7685,0.0,2.7616,2.7714,2.7519,2.7598,2.7657,2.7657,2.7657,2.761,2.7468,2.7421,2.7515,2.7657,2.8081,2.8315,2.8315,2.8699,2.8896,2.8896,2.9035,0.0,2.8608,2.8712,2.8308,2.7327,2.6509,0.0,0.0,0.0,0.0,0.0,2.4897,2.5223,2.5884,2.5535,2.559,2.5895,2.5895,2.5895,2.5895,2.5895,2.5895,2.5895,2.5895,2.5895,2.5895,2.5895,2.5895,2.5895,2.5895,2.5895,2.5853,2.5728,2.5686,2.5644,2.538,2.5338,2.5242,2.5031,2.5073,2.5158,2.5031,2.5115,2.52,2.52,2.5073,2.4808,2.4105,2.4137,2.4023,0.0,0.0,0.0,0.0,0.0,0.0,0.0,0.0,2.0571,2.0017,0.0,0.0,0.0,0.0,0.0,0.0,0.0,0.0,0.0,0.0,0.0,0.0,2.0961,2.0826,2.0699,2.0781,2.0916,2.1141,2.1141,2.1087,2.0997,2.0645,2.0555,2.0699,2.0518,2.0382,2.0292,2.0292,2.0292,2.0292,2.0292,2.0292,2.0292,2.8781,2.8781,2.8595,2.807,2.8409,2.8606,2.8081,2.842,2.8803,2.8803,2.8803,2.856,2.8045,2.7998,2.8186,2.8746,2.8989,2.9082,2.9082,2.9082,2.9082,0.0,0.0,2.9082,2.9071,2.889,2.8903,2.9069,0.0,0.0,2.6846,0.0,2.5478,2.6155,2.5709,2.5642,2.5895,2.5895,2.5895,2.5895,2.5895,2.5895,2.5895,2.5895,2.5895,2.5895,2.5895,2.5895,2.5895,2.5895,2.5895,2.5895,2.5895,2.5895,2.5895,2.5895,2.5895,2.5853,2.5654,2.5601,2.5517,2.5242,2.52,2.52,2.52,2.52,2.52,2.52,2.52,2.52,2.5189,2.5189,2.5189,2.5179,0.0,0.0,0.0,0.0,0.0,0.0,2.2392,2.2009,2.1073,0.0,0.0,0.0,0.0,0.0,0.0,0.0,0.0,2.1425,2.1749,0.0,2.1695,2.1481,2.1141,2.0699,2.0428,2.0708,2.1392,2.1392,2.1248,2.0997,2.0988,2.0871,2.0699,2.0699,2.0518,2.0292,2.0292,2.0292,2.0292,2.0292,2.0292,2.0292,2.8803,2.8803,2.8757,2.856,2.871,2.8757,2.856,2.8803,2.8989,2.8989,2.9163,2.9117,2.8803,2.8606,2.8606,0.0,2.8989,2.9082,0.0,2.9255,2.9347,2.9347,2.9554,2.9657,2.9657,2.9716,2.9646,2.9348,0.0,0.0,0.0,2.6563,2.6463,2.6644,2.6199,2.6003,2.6115,2.5948,2.5895,2.5895,2.5895,2.5895,2.5895,2.5895,2.5895,2.5895,2.5895,2.5895,2.5895,2.5895,2.5895,2.5895,2.5895,2.5895,2.5895,2.5895,2.5895,2.5906,2.5812,2.5812,2.5728,2.5517,2.5591,2.5633,2.5506,2.5591,2.5633,2.5506,2.5464,2.5422,2.5242,2.52,2.52,2.52,0.0,0.0,0.0,0.0,0.0,0.0,0.0,2.2848,0.0,2.2124,0.0,0.0,0.0,0.0,0.0,0.0,0.0,0.0,2.19,0.0,2.2432,2.2388,2.2264,2.2132,2.2167,2.2087,2.1874,2.1526,2.1347,2.1248,2.1096,2.1051,2.1159,2.0961,2.0781,2.0564,2.0564,2.0473,2.0292,2.0292,2.0292,2.0292,2.8803,2.8803,2.8803,2.8803,2.885,2.8896,2.8896,2.9128,2.9266,2.9266,2.9393,2.9439,2.9255,2.9117,0.0,2.8943,2.9128,0.0,2.937,2.9542,2.9634,2.9634,2.9783,2.9886,2.9886,0.0,0.0,2.9768,2.9251,2.8586,2.7782,2.7615,2.7531,2.7459,2.7164,2.6995,2.691,2.6655,2.657,2.657,2.6473,2.6431,2.6409,2.6245,2.6168,2.6147,2.5961,2.5895,2.5895,2.5895,2.5895,2.5895,2.5895,2.5895,2.5895,2.5895,2.5895,2.5895,2.5895,2.5895,2.5853,2.5728,2.5812,2.5853,2.5738,2.5812,2.5853,2.5738,2.5728,2.5644,2.5506,2.5464,2.5464,2.5464,0.0,2.5577,0.0,0.0,0.0,0.0,0.0,0.0,0.0,2.3178,0.0,0.0,0.0,0.0,0.0,0.0,0.0,2.2605,2.3068,0.0,2.3169,2.3178,2.3003,2.2652,2.2882,2.275,2.2362,2.2141,2.2052,2.2008,2.1678,2.1597,2.166,2.1284,2.1006,2.0826,2.0826,2.0645,2.0473,2.0473,2.0382,2.0292,2.8803,2.8803,0.0,0.0,2.8989,0.0,2.9128,2.9359,2.9531,2.9531,2.9531,2.9531,2.9531,2.9531,2.9439,2.9174,0.0,0.0,0.0,2.9886,2.9931,2.9931,2.9931,0.0,2.9931,3.0091,3.0216,3.0216,2.9768,2.9297,2.8804,2.8769,2.864,2.8489,2.8411,2.8302,2.8084,2.7832,2.7701,2.7701,2.7414,2.7315,2.7261,2.6791,2.6639,2.6573,2.6157,2.5983,2.595,2.595,2.5928,2.5895,2.5895,2.5895,2.5895,2.5895,2.5895,2.5895,2.5895,2.5895,2.5895,2.5895,2.5895,2.5895,2.5895,2.5895,2.5895,2.5895,2.5895,2.5895,2.5895,2.5895,2.5895,2.5895,2.5895,2.5895,2.5895,0.0,0.0,0.0,0.0,0.0,0.0,2.4159,2.3836,0.0,0.0,0.0,0.0,0.0,2.3515,2.4456,2.4955,2.4765,2.393,2.3887,2.3444,2.2614,2.2775,2.2882,2.2882,2.3013,2.3101,2.3057,2.2618,2.2353,2.2141,2.1705,2.1374,2.1132,2.1087,2.0952,2.0789,2.0744,2.0564,2.0337,0.0,0.0,2.885,2.8989,2.9082,2.9174,2.9347,2.9634,2.9794,2.9794,2.9954,3.0,2.9829,2.9794,2.9794,2.9703,2.9794,2.984,2.9886,3.0057,3.0136,3.0136,3.0136,3.0136,3.0136,3.017,3.0216,3.0216,3.0101,2.9975,2.9848,2.9481,2.9309,2.9209,2.8646,2.8345,2.8302,2.8084,2.7865,2.769,2.7646,2.7459,2.7304,2.7195,2.7151,2.714,2.702,2.6747,2.641,2.641,2.6212,2.5895,2.5895,2.5895,2.5895,2.5895,2.5895,2.5895,2.5895,2.5895,2.5895,2.5895,2.5895,2.5895,2.5895,2.5895,2.5895,2.5895,2.5895,2.5895,2.5895,2.5895,2.5895,2.5895,2.5895,2.5895,2.5895,0.0,0.0,0.0,2.5633,2.5568,2.5568,2.5459,2.5382,0.0,0.0,0.0,0.0,0.0,2.46,2.4518,2.4955,2.5105,2.4893,2.4893,2.4754,2.4541,2.4069,2.3777,2.3541,2.3266,2.3013,2.2882,2.2925,2.2916,2.2838,2.275,2.2574,2.2344,2.1998,2.1678,2.1436,2.1042,2.0781,2.0609,2.9255,2.9209,2.9163,2.9266,2.9359,2.9508,2.9646,2.9874,3.0057,3.0057,3.0136,3.017,3.0057,3.0057,3.0057,3.0057,2.9931,2.9931,3.0011,3.0136,3.0216,3.0216,3.0216,3.0216,3.0216,3.0216,3.0216,3.0216,3.0216,3.0216,3.0204,2.9952,2.9825,2.9814,2.9405,2.9235,2.9191,2.9025,2.8858,2.8668,2.8443,2.8252,2.8084,2.773,2.7598,2.7576,2.7392,2.7151,2.69,2.69,2.6769,2.6507,2.6299,2.6234,2.619,2.5961,2.5895,2.5895,2.5895,2.5895,2.5895,2.5895,2.5895,2.5895,2.5895,2.5895,2.5895,2.5895,2.5895,2.5895,2.5895,2.5895,2.5895,2.5895,2.5895,2.5895,2.5895,2.5895,0.0,2.5895,2.5895,2.5895,2.5895,2.5895,2.5895,2.5895,0.0,0.0,2.5884,2.5644,2.542,2.5161,2.5367,2.5464,2.538,2.5242,2.52,2.52,2.485,2.4584,2.4413,2.4166,2.396,2.3744,2.3657,2.3527,2.3406,2.3188,2.3057,2.2882,2.2539,2.2353,2.2157,2.1802,2.1445,2.1132,2.9542,2.9531,2.9531,2.9531,2.9737,2.9886,2.9931,3.0091,3.0216,3.0216,3.0216,3.0216,3.0216,3.0216,3.0216,3.0216,3.0057,3.0011,3.017,3.0216,3.0216,3.0216,3.0216,3.0216,3.0216,3.0216,3.0216,3.0216,3.0216,3.0216,3.0216,3.0216,3.0216,3.0216,3.0216,3.0216,3.017,3.0011,2.9931,2.984,2.9416,2.9174,2.9084,2.8435,2.8145,2.8091,2.7676,2.7479,2.7424,2.7424,2.7336,2.7206,2.678,2.665,2.652,2.6107,2.5975,2.591,2.5917,2.5895,2.5895,2.5895,2.5895,2.5895,2.5895,2.5895,2.5895,2.5895,2.5895,2.5895,2.5895,2.5895,2.5895,2.5895,2.5895,2.5895,2.5895,0.0,2.5895,2.5895,2.5895,2.5895,2.5895,2.5895,2.5895,2.5895,2.5895,0.0,0.0,2.5895,2.5895,2.5895,2.5895,2.5812,2.5654,2.5422,2.5327,2.5327,2.5285,2.5242,2.5242,2.52,2.5115,2.4903,2.4509,2.4209,2.396,2.357,2.3353,2.3353,2.3057,2.2925,2.2891,2.2618,2.2246,2.1828,2.984,2.9634,2.9577,2.9794,2.9886,2.9977,3.0136,3.017,3.0216,3.0216,3.0216,3.0216,3.0216,3.0216,3.0216,3.0216,3.017,3.017,3.0216,3.0216,3.0216,3.0216,3.0216,3.0216,3.0216,3.0216,3.0216,3.0216,3.0216,3.0216,3.0216,3.0216,3.0216,3.0216,3.0216,3.0216,3.0216,3.017,3.0057,2.9886,2.9794,2.9646,2.9393,2.9039,2.8925,2.8914,2.8642,2.8276,2.7882,2.7882,2.7485,2.7027,2.6962,2.6797,2.6587,2.6512,2.6203,2.5894,2.5878,2.5895,2.5895,2.5895,2.5895,2.5895,2.5895,2.5895,2.5895,2.5895,2.5895,2.5895,2.5895,2.5895,2.5895,2.5895,2.5895,2.5895,2.5895,0.0,2.5895,2.5895,2.5895,2.5895,2.5895,2.5895,2.5895,2.5895,2.5895,2.5895,2.5895,2.5895,2.5895,2.5895,2.5895,2.5906,2.5853,2.5812,2.5812,2.5812,2.5601,2.5559,2.5517,2.5285,2.52,2.5158,2.5073,2.5031,2.4946,2.4733,2.4605,2.4562,2.3874,2.3537,2.3373,2.3101,2.2818,2.2624,3.0057,2.9954,2.9897,3.0045,3.0057,3.0091,3.017,3.0216,3.0216,3.0216,3.0216,3.0216,3.0216,3.0216,3.0216,3.0216,3.0216,3.0216,3.0216,3.0216,3.0216,3.0216,3.0216,3.0216,3.0216,3.0216,3.0216,3.0216,3.0216,3.0216,3.0216,3.0352,3.0442,3.0442,3.0442,3.0499,3.0601,3.0306,3.0216,3.0227,2.9817,2.9634,2.9439,2.9071,2.885,2.871,2.8757,2.8569,2.8245,2.8383,2.8104,2.7705,2.7446,2.7269,2.7125,2.6879,2.6462,2.6023,2.5816,2.5812,2.5895,2.5895,2.5895,2.5895,2.5895,2.5895,2.5895,2.5895,2.5895,2.5895,2.5895,2.5895,2.5895,2.5895,2.5895,0.0,0.0,2.5895,2.5895,2.5895,2.5895,2.5895,2.5895,2.5895,2.5895,2.5895,2.5895,2.5895,2.5895,2.5895,2.5895,2.5895,2.5895,2.5895,2.5895,2.5895,2.5895,2.5895,2.5812,2.577,2.577,2.5644,2.5506,2.5422,2.5422,2.5327,2.52,2.5115,2.5073,2.4988,2.4401,2.4186,2.4219,2.3841,2.3527,2.3299,3.0399,3.0308,3.0216,3.0216,3.0216,3.0216,3.0216,3.0216,3.0216,3.0216,3.0216,3.0216,3.0216,3.0216,3.0216,3.0216,3.0216,3.0216,3.0306,3.0306,3.0261,3.0216,3.0216,3.0216,3.0216,3.0216,3.0216,3.0216,3.0261,3.0306,3.0306,3.0578,3.0668,3.0668,3.0668,3.0826,3.0984,3.0544,3.0487,3.0634,3.0091,2.9806,2.9715,2.9301,2.8989,2.885,2.8943,2.885,2.8768,2.885,2.871,2.8423,2.8009,2.7845,2.7678,2.7334,2.6852,2.6281,2.5946,2.5867,2.5895,2.5895,2.5895,2.5895,2.5895,2.5895,2.5895,2.5895,2.5895,2.5895,2.5895,2.5895,2.5895,2.5895,0.0,0.0,0.0,2.5895,2.5895,2.5895,2.5895,2.5895,2.5895,2.5895,2.5895,2.5895,2.5895,2.5895,2.5895,2.5895,2.5895,2.5895,2.5895,2.5895,2.5895,2.5895,2.5895,2.5895,2.5895,2.5895,2.5895,2.5895,2.5822,2.5686,2.5686,2.5549,2.5369,2.5327,2.5285,2.5242,2.4828,2.47,2.47,2.4454,2.4153,2.3894,3.0962,3.056,3.0216,3.0216,3.0216,3.0216,3.0216,3.0216,3.0216,3.0216,3.0216,3.0216,3.0216,3.0216,3.0216,3.0216,3.0216,3.0306,3.0566,3.0578,3.0442,3.0216,3.0216,3.0216,3.0216,3.0216,3.0216,3.0216,3.0442,3.0578,3.0578,3.0826,3.0972,3.0972,3.0972,3.0984,3.0984,3.0984,3.0927,3.0984,3.0883,3.0736,3.0487,3.0216,3.008,3.0034,2.9577,2.96,2.9703,2.9231,2.8943,2.871,2.8445,2.819,2.7981,2.7949,2.7457,2.6886,2.6574,2.6202,2.5895,2.5895,2.5895,2.5895,2.5895,2.5895,2.5895,2.5895,2.5895,2.5895,2.5895,2.5895,2.5895,2.5895,0.0,0.0,2.5895,2.5895,2.5895,2.5895,2.5895,2.5895,2.5895,2.5895,2.5895,2.5895,2.5895,2.5895,2.5895,2.5895,2.5895,2.5895,2.5895,2.5895,2.5895,2.5895,2.5895,2.5895,2.5895,2.5895,2.5895,2.5895,2.5906,2.5895,2.5895,2.5853,2.5812,2.5644,2.5559,2.5559,2.5253,2.4786,2.4282,2.47,2.4572,2.4239,3.1077,3.0847,3.0606,3.0273,3.0216,3.0216,3.0216,3.0216,3.0216,3.0216,3.0216,3.0216,3.0216,3.0216,3.0216,3.0216,3.0352,3.0487,3.0578,3.0769,3.0736,3.0442,3.0442,3.0442,3.0442,3.0442,3.0532,3.0691,3.0781,3.0826,3.0871,3.1095,3.1184,3.1184,3.1184,3.1273,3.1407,3.1107,3.1062,3.1184,3.0859,3.0668,3.0578,3.0306,3.0114,2.9966,2.9932,2.9886,2.9795,2.9646,2.9312,2.8943,2.871,2.8477,2.829,2.8477,2.8058,2.7606,2.7511,2.6725,2.5972,2.6278,2.6125,2.5983,2.6289,2.6125,2.5895,2.5895,2.5895,2.5895,2.5895,2.5895,2.5895,2.5895,0.0,2.5895,2.5895,2.5895,2.5895,2.5895,2.5895,2.5895,2.5895,2.5895,2.5895,2.5895,2.5895,2.5895,2.5895,2.5895,2.5895,2.5895,2.5895,2.5895,2.5895,2.5895,2.5895,2.5895,2.5895,2.5895,2.5895,2.5895,2.5895,2.5895,2.5895,2.5895,2.5895,2.5812,2.578,2.577,2.5559,2.5295,2.5052,2.5073,2.4903,2.47,3.1547,3.1226,3.0893,3.0526,3.0331,3.0216,3.0216,3.0216,3.0216,3.0216,3.0216,3.0216,3.0216,3.0216,3.0216,3.0216,3.0442,3.0623,3.0724,3.105,3.105,3.0623,3.0679,3.0679,3.0623,3.0679,3.0826,3.0984,3.1062,3.1107,3.1107,3.1306,3.1439,3.1439,3.1439,3.1528,3.1661,3.1362,3.1318,3.1395,3.1083,3.0892,3.0802,3.0623,3.0431,3.0283,3.0397,3.0385,3.0238,3.0136,2.9863,2.9531,2.922,2.8943,2.8757,2.8989,2.8648,2.8273,2.8273,2.7437,2.6644,2.6758,2.6594,2.6431,2.6769,2.6474,2.6136,2.6136,2.6005,2.5895,2.5895,2.5895,2.5895,2.5895,2.5895,2.5895,2.5895,2.5895,2.5895,2.5895,2.5895,2.5895,2.5895,2.5895,2.5895,2.5895,2.5895,2.5895,2.5895,2.5895,2.5895,2.5895,2.6048,2.6136,2.6136,2.6136,2.6201,2.6343,2.6343,2.6343,2.6332,2.619,2.6136,2.6125,2.5961,2.5895,2.5895,2.5895,2.5948,2.599,2.5853,2.5686,2.5559,2.5464,2.52,2.4946,3.2489,3.1697,3.1019,3.1019,3.0572,3.0216,3.0216,3.0216,3.0216,3.0216,3.0216,3.0216,3.0216,3.0216,3.0216,3.0216,3.0442,3.0724,3.0972,3.1451,3.1395,3.0623,3.0871,3.0883,3.0623,3.0883,3.0984,3.1029,3.1229,3.1306,3.1306,3.1572,3.1705,3.1705,3.1705,3.1705,3.1705,3.1705,3.1705,3.1705,3.1705,3.1528,3.1306,3.1306,3.1306,3.1261,3.1062,3.1139,3.1217,3.0758,3.0623,3.0532,3.0068,2.9737,2.9485,2.9485,2.916,2.8791,2.8791,2.8477,2.7964,2.7448,2.7315,2.7315,2.7315,2.6922,2.6595,2.6595,2.6245,2.5906,2.5906,2.5895,2.5895,2.5895,2.5895,2.5895,2.5895,2.5895,2.5895,2.5895,2.5895,2.5895,2.5895,2.5895,2.5895,2.5895,2.5895,2.5895,2.5895,2.5895,2.5895,2.5895,2.6376,2.6584,2.6595,2.6595,2.6824,2.7315,2.7315,2.7315,2.7293,2.6802,2.6584,2.6562,2.6125,2.5906,2.5895,2.5895,2.6032,2.6199,2.6199,2.5926,2.5538,2.5812,2.5464,2.4988,3.2558,3.1961,3.141,3.1077,3.0572,3.0216,3.0216,3.0216,3.0216,3.0216,3.0216,3.0216,3.0216,3.0352,3.0487,3.0487,3.0847,3.1217,3.1451,3.1629,3.1528,3.1128,3.1172,3.1172,3.1071,3.1172,3.1318,3.1496,3.1528,3.1572,3.1572,3.1661,3.1705,3.1705,3.1705,3.1705,3.1705,3.1705,3.1705,3.1705,3.1705,3.1661,3.1572,3.1572,3.1572,3.1572,3.1496,3.154,3.1528,3.1217,3.0982,3.0724,3.0114,2.984,2.9737,2.9542,2.9385,2.9272,2.9272,2.9172,2.8925,2.8254,2.7844,2.7602,2.7752,2.7413,2.7108,2.7108,2.6736,2.6409,2.6409,2.6136,2.5895,2.5895,2.5895,2.5895,2.5895,2.5895,2.5895,2.5895,2.5895,2.5895,2.5895,2.5895,2.5895,2.5895,2.5895,2.5895,2.5895,2.5895,2.5895,2.5895,2.6376,2.6748,2.7108,2.7108,2.7173,2.7315,2.7315,2.7315,2.7304,2.7173,2.6933,2.6584,2.6431,2.6212,2.5895,2.5895,2.6032,2.6199,2.6199,2.6229,2.6302,2.6343,2.6166,2.5821,3.2868,3.2236,3.1651,3.1364,3.0709,3.0216,3.0216,3.0216,3.0216,3.0216,3.0216,3.0216,3.0216,3.0442,3.0623,3.0623,3.1026,3.1395,3.1661,3.1705,3.1617,3.1484,3.1439,3.1395,3.1306,3.1395,3.1528,3.1705,3.1705,3.1705,3.1705,3.1705,3.1705,3.1705,3.1705,3.1705,3.1705,3.1705,3.1705,3.1705,3.1705,3.1705,3.1705,3.1705,3.1705,3.1705,3.1705,3.1705,3.1661,3.1528,3.1306,3.0994,3.0601,3.0386,3.0296,3.0148,3.0091,3.0091,2.9943,2.9943,2.9772,2.9172,2.8701,2.8421,2.8437,2.8084,2.7688,2.7599,2.7184,2.6857,2.6857,2.666,2.6398,2.6223,2.619,2.6125,2.5928,2.5895,2.5895,2.5895,2.5895,2.5895,2.5895,2.5895,2.5983,2.6168,2.619,2.6267,2.6452,2.6452,2.6452,2.6452,2.6889,2.7282,2.7555,2.7785,2.7883,2.7883,2.7883,2.7928,2.8007,2.7731,2.7392,2.7031,2.6833,2.6471,2.6021,2.6146,2.6313,2.6479,2.6479,2.6561,2.6727,2.6727,2.655,2.6332,3.3174,3.248,3.1802,3.1756,3.0882,3.0216,3.0216,3.0216,3.0216,3.0216,3.0216,3.0216,3.0216,3.0442,3.0623,3.0623,3.1071,3.1439,3.1661,3.1705,3.1705,3.1705,3.1705,3.1572,3.135,3.1572,3.1705,3.1705,3.1705,3.1705,3.1705,3.1705,3.1705,3.1705,3.1705,3.1705,3.1705,3.1705,3.1705,3.1705,3.1705,3.1705,3.1705,3.1705,3.1705,3.1705,3.1705,3.1705,3.1705,3.1705,3.1528,3.135,3.1306,3.1184,3.1017,3.1062,3.1017,3.0927,3.0769,3.0656,3.0532,3.0068,2.9783,2.9531,2.922,2.8819,2.8408,2.8192,2.7764,2.7425,2.7425,2.7392,2.7217,2.6758,2.6693,2.654,2.6092,2.6069,2.6111,2.6111,2.6111,2.6153,2.6153,2.6153,2.6339,2.6703,2.6736,2.6911,2.7293,2.7315,2.7315,2.7315,2.774,2.7991,2.7991,2.8517,2.8803,2.8803,2.8803,2.8896,2.9071,2.839,2.7985,2.7778,2.7214,2.6727,2.6296,2.6542,2.6727,2.6891,2.6891,2.6891,2.6933,2.6933,2.6809,2.6603,3.2741,3.2179,3.1687,3.1249,3.0641,3.0216,3.0216,3.0216,3.0216,3.0216,3.0216,3.0216,3.0216,3.0646,3.0927,3.0927,3.1362,3.1617,3.1705,3.1705,3.1705,3.1705,3.1705,3.1761,3.1849,3.1761,3.1705,3.1705,3.1705,3.1705,3.1705,3.1705,3.1705,3.1705,3.1705,3.1705,3.1705,3.1705,3.1705,3.1705,3.1705,3.1705,3.1705,3.1705,3.1705,3.1705,3.1705,3.1705,3.1705,3.1705,3.1661,3.1572,3.135,3.1261,3.1261,3.1427,3.1261,3.1062,3.1327,3.116,3.0838,3.0544,3.0397,3.0216,2.9577,2.9315,2.9237,2.9191,2.8812,2.8478,2.8478,2.8165,2.7821,2.7513,2.7458,2.7371,2.702,2.7369,2.7629,2.7629,2.7931,2.8188,2.8188,2.8188,2.8062,2.7785,2.7796,2.7655,2.7304,2.7315,2.7315,2.7315,2.774,2.7991,2.7991,2.8517,2.8803,2.8803,2.8803,2.8896,2.9082,2.8925,2.8753,2.8511,2.7986,2.7495,2.7037,2.6718,2.6727,2.6891,2.6891,2.6985,2.7138,2.7138,2.7108,2.7026,3.2934,3.2291,3.1605,3.11,3.0572,3.0216,3.0216,3.0216,3.0216,3.0216,3.0306,3.0397,3.0397,3.0814,3.1184,3.1318,3.1584,3.1705,3.1705,3.1705,3.1749,3.1849,3.1761,3.1805,3.1994,3.1893,3.1849,3.1849,3.1849,3.1805,3.1705,3.1705,3.1705,3.1705,3.1705,3.1705,3.1705,3.1705,3.1705,3.1705,3.1705,3.1705,3.1705,3.1705,3.1705,3.1705,3.1705,3.1705,3.1705,3.1705,3.1705,3.1661,3.1528,3.1617,3.1849,3.1969,3.1969,3.1957,3.2089,3.1969,3.1705,3.1193,3.1059,3.0836,2.9909,2.968,2.9634,2.9531,2.9284,2.9116,2.9116,2.8948,2.8656,2.8255,2.8221,2.8088,2.7756,2.8018,2.8236,2.8236,2.8551,2.8821,2.8821,2.8896,2.8945,2.8969,2.8937,2.8896,2.8868,2.8757,2.8757,2.888,2.9094,2.9184,2.9059,2.9568,2.9703,2.9485,2.9336,2.952,2.9943,2.9726,2.95,2.9292,2.8505,2.7922,2.7414,2.7054,2.6933,2.7056,2.7056,2.7108,2.719,2.719,2.7149,2.7026,3.3253,3.2556,3.1712,3.1078,3.056,3.0216,3.0261,3.0261,3.0261,3.0318,3.0532,3.0679,3.0679,3.1038,3.1395,3.1661,3.1705,3.1705,3.1705,3.1705,3.1805,3.1994,3.1805,3.1849,3.2113,3.2081,3.2038,3.1937,3.1981,3.1893,3.1705,3.1705,3.1705,3.1705,3.1705,3.1705,3.1705,3.1705,3.1705,3.1705,3.1705,3.1705,3.1705,3.1705,3.1705,3.1705,3.1705,3.1705,3.1705,3.1705,3.1705,3.1705,3.1705,3.2025,3.2388,3.2475,3.2754,3.3,3.2871,3.2797,3.2624,3.1945,3.1801,3.1504,3.0408,3.0102,2.9966,2.9715,2.9715,2.976,2.976,2.976,2.9636,2.9274,2.9172,2.8981,2.864,2.8779,2.8941,2.8941,2.9225,2.9421,2.9421,2.957,2.982,3.0168,3.0135,3.0267,3.0633,3.0431,3.0431,3.0656,3.0656,3.0521,3.0295,3.0734,3.0722,3.0431,3.0272,3.0464,3.0949,3.0578,3.0312,3.0159,2.9118,2.8439,2.7981,2.7502,2.7313,2.7313,2.7231,2.719,2.719,2.719,2.7067,2.685,3.3278,3.2759,3.209,3.1083,3.0534,3.0261,3.0532,3.0532,3.0634,3.0883,3.0927,3.0927,3.0927,3.1184,3.1395,3.1661,3.1705,3.1705,3.1705,3.1705,3.1805,3.1994,3.1805,3.1969,3.2581,3.2431,3.2169,3.1749,3.1893,3.1893,3.1705,3.1705,3.1705,3.1705,3.1705,3.1705,3.1705,3.1705,3.1705,3.1705,3.1705,3.1705,3.1705,3.1705,3.1705,3.1705,3.1705,3.1705,3.1705,3.1705,3.1705,3.1705,3.1705,3.2025,3.2475,3.284,3.2957,3.3074,3.3458,3.3258,3.2914,3.2624,3.2537,3.2351,3.1548,3.0925,3.0487,3.0442,3.0578,3.0724,3.0724,3.0724,3.0791,3.0944,3.0608,3.0405,3.0536,3.0879,3.1189,3.1189,3.162,3.1906,3.1906,3.1949,3.1787,3.1384,3.134,3.1187,3.0902,3.0812,3.0812,3.0857,3.0857,3.0857,3.0812,3.0857,3.108,3.1403,3.1625,3.1548,3.1261,3.1172,3.127,3.1416,3.0348,2.9839,2.9642,2.8362,2.7812,2.776,2.7353,2.719,2.719,2.719,2.6974,2.6685,3.3742,3.3258,3.2565,3.1529,3.1172,3.1177,3.1596,3.126,3.1133,3.1575,3.1362,3.1184,3.1184,3.1395,3.1572,3.1705,3.1705,3.1705,3.1705,3.1705,3.1849,3.2213,3.1981,3.2113,3.2667,3.2593,3.2419,3.2069,3.2169,3.2081,3.1849,3.1749,3.1705,3.1705,3.1705,3.1705,3.1705,3.1981,3.1937,3.1749,3.222,3.2276,3.2125,3.2351,3.2438,3.2438,3.2438,3.2276,3.2113,3.2351,3.2438,3.2438,3.2438,3.2742,3.3172,3.3343,3.3598,3.3839,3.4008,3.3924,3.3713,3.3343,3.3258,3.3086,3.2513,3.1845,3.1327,3.1193,3.116,3.1205,3.1472,3.1427,3.1395,3.1484,3.135,3.125,3.1327,3.1637,3.1901,3.2013,3.2376,3.255,3.255,3.281,3.284,3.2599,3.2525,3.2351,3.212,3.1869,3.1781,3.1901,3.1901,3.1857,3.1737,3.2001,3.2089,3.2057,3.245,3.245,3.2101,3.1981,3.1981,3.2021,3.0682,3.0086,3.0001,2.8753,2.8243,2.8203,2.799,2.7708,2.733,2.7138,2.685,2.6644]}]]